[[{"header":{"parameterUnit":"m.s-1","parameterCategory":1,"la1":30.6,"la2":29.2853,"lo1":-89.7004,"lo2":-87.6739,"dy":0.0162,"dx":0.0183,"nx":112,"ny":82,"refTime":"2026-05-12T00:00:00:Z","depth":0,"parameterNumber":2,"parameterNumberName":"U-component_of_WINDS"},"data":[0.0,0.0,0.0,0.0,0.0,0.0,0.0,0.0,0.0,0.0,0.0,0.0,0.0,0.0,0.0,0.0,0.0,0.0,0.0,0.0,0.0,0.0,0.0,0.0,0.0,0.0,0.0,0.0,0.0,0.0,0.0,0.0,0.0,0.0,0.0,0.0,0.0,0.0,0.0,0.0,0.0,0.0,0.0,0.0,0.0,0.0,0.0,0.0,0.0,0.0,0.0,0.0,0.0,0.0,0.0,0.0,0.0,0.0,0.0,0.0,0.0,0.0,0.0,0.0,0.0,0.0,0.0,0.0,0.0,0.0,0.0,0.0,0.0,0.0,0.0,0.0,0.0,0.0,0.0,0.0,0.0,0.0,0.0,0.0,0.0,0.0,0.0,0.0,0.0,0.0,2.2312,2.1581,2.0773,2.0312,2.0312,2.0312,2.0639,2.1446,0.0,0.0,0.0,0.0,0.0,0.0,0.0,0.0,0.0,0.0,0.0,0.0,0.0,0.0,0.0,0.0,0.0,0.0,0.0,0.0,0.0,0.0,0.0,0.0,0.0,0.0,0.0,0.0,0.0,0.0,0.0,0.0,0.0,0.0,0.0,0.0,0.0,0.0,0.0,0.0,0.0,0.0,0.0,0.0,0.0,0.0,0.0,0.0,0.0,0.0,0.0,0.0,0.0,0.0,0.0,0.0,0.0,0.0,0.0,0.0,0.0,0.0,0.0,0.0,0.0,0.0,0.0,0.0,0.0,0.0,0.0,0.0,0.0,0.0,0.0,0.0,0.0,0.0,0.0,0.0,0.0,0.0,0.0,0.0,0.0,0.0,0.0,0.0,0.0,0.0,0.0,0.0,0.0,0.0,0.0,0.0,0.0,0.0,0.0,0.0,0.0,0.0,0.0,0.0,2.1658,2.1504,2.0773,2.0312,2.0312,2.0312,2.0639,2.1446,0.0,0.0,0.0,0.0,0.0,0.0,0.0,0.0,0.0,0.0,0.0,0.0,0.0,0.0,0.0,0.0,0.0,0.0,0.0,0.0,0.0,0.0,0.0,0.0,0.0,0.0,0.0,0.0,0.0,0.0,0.0,0.0,0.0,0.0,0.0,0.0,0.0,0.0,0.0,0.0,0.0,0.0,0.0,0.0,0.0,0.0,0.0,0.0,0.0,0.0,0.0,0.0,0.0,0.0,0.0,0.0,0.0,0.0,0.0,0.0,0.0,0.0,0.0,0.0,0.0,0.0,0.0,0.0,0.0,0.0,0.0,0.0,0.0,0.0,0.0,0.0,0.0,0.0,0.0,0.0,0.0,0.0,0.0,0.0,0.0,0.0,0.0,0.0,0.0,0.0,0.0,0.0,0.0,0.0,0.0,0.0,0.0,0.0,0.0,0.0,0.0,0.0,0.0,2.1504,2.1331,2.0908,2.0523,2.0312,2.0312,2.0312,2.0465,2.0831,2.2081,0.0,0.0,0.0,0.0,0.0,0.0,0.0,0.0,0.0,0.0,0.0,0.0,0.0,0.0,0.0,0.0,0.0,0.0,0.0,0.0,0.0,0.0,0.0,0.0,0.0,0.0,0.0,0.0,0.0,0.0,0.0,0.0,0.0,0.0,0.0,0.0,0.0,0.0,0.0,0.0,0.0,0.0,0.0,0.0,0.0,0.0,0.0,0.0,0.0,0.0,0.0,0.0,0.0,0.0,0.0,0.0,0.0,0.0,0.0,0.0,0.0,0.0,0.0,0.0,0.0,0.0,0.0,0.0,0.0,0.0,0.0,0.0,0.0,0.0,0.0,0.0,0.0,0.0,0.0,0.0,0.0,0.0,0.0,0.0,0.0,0.0,0.0,0.0,0.0,0.0,0.0,0.0,0.0,0.0,0.0,0.0,0.0,0.0,0.0,0.0,0.0,0.0,2.1389,2.1196,2.0389,2.0312,2.0312,2.0312,2.0496,2.0515,2.0312,2.2062,0.0,0.0,0.0,0.0,0.0,0.0,0.0,0.0,0.0,0.0,0.0,0.0,0.0,0.0,0.0,0.0,0.0,0.0,0.0,0.0,0.0,0.0,0.0,0.0,0.0,0.0,0.0,0.0,0.0,0.0,0.0,0.0,0.0,0.0,0.0,0.0,0.0,0.0,0.0,0.0,0.0,0.0,0.0,0.0,0.0,0.0,0.0,0.0,0.0,0.0,0.0,0.0,0.0,0.0,0.0,0.0,0.0,0.0,0.0,0.0,0.0,0.0,0.0,0.0,0.0,0.0,0.0,0.0,0.0,0.0,0.0,0.0,0.0,0.0,0.0,0.0,0.0,0.0,0.0,0.0,0.0,0.0,0.0,0.0,0.0,0.0,0.0,0.0,0.0,0.0,0.0,0.0,0.0,0.0,0.0,0.0,0.0,0.0,0.0,0.0,0.0,0.0,2.1043,2.1196,2.0389,2.0312,2.0312,2.0312,2.1034,2.1169,2.0342,2.262,0.0,0.0,0.0,0.0,0.0,0.0,0.0,0.0,0.0,0.0,0.0,0.0,0.0,0.0,0.0,0.0,0.0,0.0,0.0,0.0,0.0,0.0,0.0,0.0,0.0,0.0,0.0,0.0,0.0,0.0,0.0,0.0,0.0,0.0,0.0,0.0,0.0,0.0,0.0,0.0,0.0,0.0,0.0,0.0,0.0,0.0,0.0,0.0,0.0,0.0,0.0,0.0,0.0,0.0,0.0,0.0,0.0,0.0,0.0,0.0,0.0,0.0,0.0,0.0,0.0,0.0,0.0,0.0,0.0,0.0,0.0,0.0,0.0,0.0,0.0,0.0,0.0,0.0,0.0,0.0,0.0,0.0,0.0,0.0,0.0,0.0,0.0,0.0,0.0,0.0,0.0,0.0,0.0,0.0,0.0,0.0,0.0,0.0,0.0,0.0,0.0,0.0,2.1004,2.1196,0.0,2.0312,2.0312,2.0312,2.0592,2.065,2.0331,0.0,0.0,0.0,0.0,0.0,0.0,0.0,0.0,0.0,0.0,0.0,0.0,0.0,0.0,0.0,0.0,0.0,0.0,0.0,0.0,0.0,0.0,0.0,0.0,0.0,0.0,0.0,0.0,0.0,0.0,0.0,0.0,0.0,0.0,0.0,0.0,0.0,0.0,0.0,0.0,0.0,0.0,0.0,0.0,0.0,0.0,0.0,0.0,0.0,0.0,0.0,0.0,0.0,0.0,0.0,0.0,0.0,0.0,0.0,0.0,0.0,0.0,0.0,0.0,0.0,0.0,0.0,0.0,0.0,0.0,0.0,0.0,0.0,0.0,0.0,0.0,0.0,0.0,0.0,0.0,0.0,0.0,0.0,0.0,0.0,0.0,0.0,0.0,0.0,0.0,0.0,0.0,0.0,0.0,0.0,0.0,0.0,0.0,0.0,0.0,0.0,0.0,2.0446,2.1235,2.1504,0.0,2.0312,2.0312,2.0312,2.0554,2.0592,2.0331,0.0,0.0,0.0,0.0,0.0,0.0,0.0,0.0,0.0,0.0,0.0,0.0,0.0,0.0,0.0,0.0,0.0,0.0,0.0,0.0,0.0,0.0,0.0,0.0,0.0,0.0,0.0,0.0,0.0,0.0,0.0,0.0,0.0,0.0,0.0,0.0,0.0,0.0,0.0,0.0,0.0,0.0,0.0,0.0,0.0,0.0,0.0,0.0,0.0,0.0,0.0,0.0,0.0,0.0,0.0,0.0,0.0,0.0,0.0,0.0,0.0,0.0,0.0,0.0,0.0,0.0,0.0,0.0,0.0,0.0,0.0,0.0,0.0,0.0,0.0,0.0,0.0,0.0,0.0,0.0,0.0,0.0,0.0,0.0,0.0,0.0,0.0,0.0,0.0,0.0,0.0,0.0,0.0,0.0,0.0,0.0,0.0,0.0,0.0,0.0,0.0,0.0,2.0542,2.1773,2.2177,2.0485,2.0312,2.0312,2.0312,2.1092,2.1227,0.0,0.0,0.0,0.0,0.0,0.0,0.0,0.0,0.0,0.0,0.0,0.0,0.0,0.0,0.0,0.0,0.0,0.0,0.0,0.0,0.0,0.0,0.0,0.0,0.0,0.0,0.0,0.0,0.0,0.0,0.0,0.0,0.0,0.0,0.0,0.0,0.0,0.0,0.0,0.0,0.0,0.0,0.0,0.0,0.0,0.0,0.0,0.0,0.0,0.0,0.0,0.0,0.0,0.0,0.0,0.0,0.0,0.0,0.0,0.0,0.0,0.0,0.0,0.0,0.0,0.0,0.0,0.0,0.0,0.0,0.0,0.0,0.0,0.0,0.0,0.0,0.0,0.0,0.0,0.0,0.0,0.0,0.0,0.0,0.0,0.0,0.0,0.0,0.0,0.0,0.0,0.0,0.0,0.0,0.0,0.0,0.0,0.0,0.0,0.0,0.0,0.0,0.0,2.1293,2.2639,2.3071,2.1331,2.1193,2.0962,2.035,2.0534,2.0592,2.0389,0.0,0.0,0.0,0.0,0.0,0.0,0.0,0.0,0.0,0.0,0.0,0.0,0.0,0.0,0.0,0.0,0.0,0.0,0.0,0.0,0.0,0.0,0.0,0.0,0.0,0.0,0.0,0.0,0.0,0.0,0.0,0.0,0.0,0.0,0.0,0.0,0.0,0.0,0.0,0.0,0.0,0.0,0.0,0.0,0.0,0.0,0.0,0.0,0.0,0.0,0.0,0.0,0.0,0.0,0.0,0.0,0.0,0.0,0.0,0.0,0.0,0.0,0.0,0.0,0.0,0.0,0.0,0.0,0.0,0.0,0.0,0.0,0.0,0.0,0.0,0.0,0.0,0.0,0.0,0.0,0.0,0.0,0.0,0.0,0.0,0.0,0.0,0.0,0.0,0.0,0.0,0.0,0.0,0.0,0.0,0.0,0.0,0.0,0.0,0.0,0.0,0.0,2.1611,2.3024,2.3437,2.1696,2.1532,2.1213,2.0369,2.0312,2.0331,2.0369,0.0,0.0,0.0,0.0,0.0,0.0,0.0,0.0,0.0,0.0,0.0,0.0,0.0,0.0,0.0,0.0,0.0,0.0,0.0,0.0,0.0,0.0,0.0,0.0,0.0,0.0,0.0,0.0,0.0,0.0,0.0,0.0,0.0,0.0,0.0,0.0,0.0,0.0,0.0,0.0,0.0,0.0,0.0,0.0,0.0,0.0,0.0,0.0,0.0,0.0,0.0,0.0,0.0,0.0,0.0,0.0,0.0,0.0,0.0,0.0,0.0,0.0,0.0,0.0,0.0,0.0,0.0,0.0,0.0,0.0,0.0,0.0,0.0,0.0,0.0,0.0,0.0,0.0,0.0,0.0,0.0,0.0,0.0,0.0,0.0,0.0,0.0,0.0,0.0,0.0,0.0,0.0,0.0,0.0,0.0,0.0,0.0,0.0,0.0,0.0,0.0,0.0,2.1797,2.3159,2.3553,2.1927,2.1677,2.1293,2.0504,2.035,2.0312,2.0331,0.0,0.0,0.0,0.0,0.0,0.0,0.0,0.0,0.0,0.0,0.0,0.0,0.0,0.0,0.0,0.0,0.0,0.0,0.0,0.0,0.0,0.0,0.0,0.0,0.0,0.0,0.0,0.0,0.0,0.0,0.0,0.0,0.0,0.0,0.0,0.0,0.0,0.0,0.0,0.0,0.0,0.0,0.0,0.0,0.0,0.0,0.0,0.0,0.0,0.0,0.0,0.0,0.0,0.0,0.0,0.0,0.0,0.0,0.0,0.0,1.5189,0.0,0.0,0.0,0.0,0.0,0.0,0.0,0.0,0.0,0.0,0.0,0.0,0.0,0.0,0.0,0.0,0.0,0.0,0.0,0.0,0.0,0.0,0.0,0.0,0.0,0.0,0.0,0.0,0.0,0.0,0.0,0.0,0.0,0.0,0.0,0.0,0.0,0.0,0.0,0.0,0.0,2.3228,2.4186,2.449,2.3639,2.2928,2.2224,2.1471,2.0723,2.035,2.0446,2.0408,0.0,0.0,0.0,0.0,0.0,0.0,0.0,0.0,0.0,0.0,0.0,0.0,0.0,0.0,0.0,0.0,0.0,0.0,0.0,0.0,0.0,0.0,0.0,0.0,0.0,0.0,0.0,0.0,0.0,0.0,0.0,0.0,0.0,0.0,0.0,0.0,0.0,0.0,0.0,0.0,0.0,0.0,0.0,0.0,0.0,0.0,0.0,0.0,0.0,0.0,0.0,0.0,0.0,0.0,0.0,0.0,0.0,0.0,0.0,0.0,1.5189,0.0,0.0,0.0,0.0,0.0,0.0,0.0,0.0,0.0,0.0,0.0,0.0,0.0,0.0,0.0,0.0,0.0,0.0,0.0,0.0,0.0,0.0,0.0,0.0,0.0,0.0,0.0,0.0,0.0,0.0,0.0,0.0,0.0,0.0,0.0,0.0,0.0,0.0,0.0,0.0,2.3138,2.4342,2.4713,2.3601,2.3062,2.234,2.1174,2.0608,2.0353,2.0495,2.047,0.0,0.0,0.0,0.0,0.0,0.0,0.0,0.0,0.0,0.0,0.0,0.0,0.0,0.0,0.0,0.0,0.0,0.0,0.0,0.0,0.0,0.0,0.0,0.0,0.0,0.0,0.0,0.0,0.0,0.0,0.0,0.0,0.0,0.0,0.0,0.0,0.0,0.0,0.0,0.0,0.0,0.0,0.0,0.0,0.0,0.0,0.0,0.0,0.0,0.0,0.0,0.0,0.0,1.6561,1.6926,1.6715,1.6946,1.6849,1.6465,1.5888,1.5465,1.5189,1.5189,0.0,0.0,0.0,0.0,0.0,0.0,0.0,0.0,0.0,0.0,0.0,0.0,0.0,0.0,0.0,0.0,0.0,0.0,0.0,0.0,0.0,0.0,0.0,0.0,1.9786,1.9809,1.9912,0.0,0.0,0.0,0.0,0.0,0.0,0.0,0.0,0.0,0.0,0.0,2.2924,2.4317,2.4726,2.3389,2.2966,2.2274,2.0946,2.0515,2.0371,2.0488,2.05,2.0491,0.0,0.0,0.0,0.0,0.0,0.0,0.0,0.0,0.0,0.0,0.0,0.0,0.0,0.0,0.0,0.0,0.0,0.0,0.0,0.0,0.0,0.0,0.0,0.0,0.0,0.0,0.0,0.0,0.0,0.0,0.0,0.0,1.5618,1.642,0.0,0.0,0.0,0.0,0.0,0.0,0.0,0.0,0.0,0.0,0.0,0.0,0.0,1.5301,1.5301,1.5984,1.6343,1.6349,1.7196,1.758,1.7542,1.758,1.7196,1.6522,1.7119,0.0,1.5189,1.5189,0.0,0.0,0.0,0.0,0.0,0.0,0.0,0.0,0.0,0.0,0.0,0.0,0.0,0.0,0.0,0.0,0.0,0.0,0.0,0.0,0.0,0.0,1.9813,1.9802,1.972,1.9636,0.0,1.9649,1.9623,1.9596,1.9471,0.0,0.0,0.0,0.0,0.0,0.0,0.0,2.4308,2.4822,2.5023,2.4985,2.3678,2.2744,2.2579,2.1229,2.0416,2.0508,2.0544,2.0562,2.0487,2.0422,0.0,0.0,0.0,0.0,0.0,0.0,0.0,0.0,0.0,0.0,0.0,0.0,0.0,0.0,0.0,0.0,0.0,0.0,0.0,0.0,0.0,0.0,0.0,0.0,0.0,0.0,0.0,0.0,0.0,1.5292,1.5426,1.5728,1.5459,1.5382,0.0,0.0,0.0,0.0,0.0,0.0,0.0,0.0,0.0,1.5965,1.5965,1.6195,1.6638,1.7003,1.7176,1.7176,1.803,1.8434,1.8434,1.8434,1.8241,1.7895,1.776,1.7273,1.6619,1.6619,1.6349,1.5926,0.0,0.0,0.0,0.0,1.7388,1.7888,1.9254,1.9415,1.8992,1.8992,0.0,0.0,0.0,0.0,0.0,0.0,0.0,0.0,0.0,0.0,1.9669,1.9559,1.9462,1.9423,1.9423,1.9423,1.9423,0.0,1.935,1.9305,1.9305,0.0,0.0,0.0,0.0,2.3042,2.3959,2.4607,2.4897,2.4649,2.3966,2.3148,2.2241,2.1526,2.0958,2.0527,2.0566,2.0586,2.0566,2.0455,2.039,0.0,0.0,0.0,0.0,0.0,0.0,0.0,0.0,0.0,0.0,0.0,0.0,0.0,0.0,0.0,0.0,0.0,0.0,0.0,0.0,0.0,0.0,0.0,0.0,0.0,0.0,0.0,0.0,1.5272,1.5253,1.5209,1.5189,1.5189,0.0,0.0,0.0,0.0,0.0,0.0,1.5599,1.5561,1.5926,1.6772,1.6811,1.708,1.7702,1.7914,1.803,1.8049,1.8915,1.9338,1.9338,1.9338,1.9203,1.8972,1.8549,1.8234,1.803,1.7799,1.735,1.6811,1.6811,1.6811,1.6869,1.7484,1.7837,1.8222,1.9523,1.9696,1.9338,1.9338,1.9296,1.9127,1.8486,0.0,0.0,0.0,0.0,1.9663,1.9536,1.9527,1.9485,1.9335,1.9305,1.9305,1.9305,1.9305,1.9305,0.0,1.9473,1.9601,1.9601,0.0,0.0,0.0,0.0,2.3434,2.379,2.4512,2.4859,2.4457,2.4225,2.3599,2.2357,2.1902,2.1435,2.0831,2.0683,2.0605,2.0605,2.0475,2.039,2.0389,0.0,0.0,0.0,0.0,0.0,0.0,0.0,0.0,0.0,0.0,0.0,0.0,0.0,0.0,0.0,0.0,0.0,0.0,0.0,0.0,0.0,0.0,0.0,0.0,0.0,0.0,0.0,0.0,0.0,1.5189,1.5189,0.0,0.0,0.0,0.0,1.5209,1.5209,1.558,1.6407,1.6445,1.6792,1.76,1.7645,1.7664,1.7702,1.853,1.8934,1.8953,1.9812,2.0235,2.0235,2.0235,1.9773,1.903,1.9831,1.9696,1.8876,1.8049,1.7683,1.7645,1.7645,1.7645,1.7638,1.7702,1.8222,1.8953,1.903,1.9581,2.0235,2.0235,2.0112,1.9945,1.9907,1.973,0.0,0.0,1.9448,1.932,1.932,1.932,1.9305,1.9305,1.9305,1.9305,1.9305,1.9305,1.9305,0.0,1.9913,2.0429,2.0429,0.0,2.1987,2.2776,2.3134,2.3659,2.4605,2.4879,2.5069,2.5216,2.4562,2.4072,2.3975,2.2588,2.1681,2.1644,2.0986,2.0605,2.0605,2.0475,2.039,2.0389,2.0331,0.0,0.0,0.0,0.0,0.0,0.0,0.0,0.0,0.0,0.0,0.0,0.0,0.0,0.0,0.0,0.0,0.0,0.0,0.0,0.0,0.0,0.0,0.0,0.0,0.0,0.0,0.0,0.0,1.5189,1.5189,0.0,1.5189,1.5189,1.5189,1.5189,1.5189,1.558,1.6445,1.6503,1.7125,1.8491,1.8549,1.8819,1.9369,1.9677,1.9761,1.9656,1.9962,2.0106,2.0106,2.0106,2.0016,1.985,2.0177,2.0119,1.9812,1.9504,1.9042,1.8549,1.8549,1.8549,1.8549,1.8549,1.9088,1.9831,1.9831,2.0042,2.0277,2.0152,2.006,1.9973,1.979,1.9669,1.9569,1.9438,1.9368,1.9305,1.9305,1.9305,1.9305,1.9305,1.9305,1.9305,1.9305,1.9305,1.9305,1.9305,1.995,2.0503,2.0503,2.1657,2.2666,2.296,2.3492,2.4094,2.4723,2.4842,2.4987,2.5264,2.5043,2.4659,2.4149,2.362,2.2856,2.1772,2.2021,2.1738,2.0644,2.1048,2.1017,2.0408,2.0331,2.0312,0.0,0.0,0.0,0.0,0.0,0.0,0.0,0.0,0.0,0.0,0.0,0.0,0.0,0.0,0.0,0.0,0.0,0.0,0.0,0.0,0.0,0.0,0.0,0.0,0.0,0.0,1.5146,1.5189,1.5189,1.5189,1.5189,1.5465,1.5638,1.5638,1.5888,1.6426,1.7298,1.7337,1.7991,1.9396,1.9434,1.9681,2.0197,2.0197,2.0124,1.9993,1.9993,2.0031,2.0106,2.0106,2.0169,2.0312,2.0312,2.0312,2.0312,2.0312,1.9965,1.9434,1.9434,1.9434,1.9427,1.9358,1.9707,2.0197,2.0153,2.0135,2.0107,1.9992,1.9912,1.9824,1.9643,1.9555,1.9471,1.9335,1.9305,1.9305,1.9305,1.9305,1.9305,1.9305,1.9305,1.9305,1.9305,1.9305,1.9305,1.9305,2.0189,2.0941,2.0941,2.2318,2.34,2.34,2.3859,2.4321,2.4654,2.476,2.4896,2.5182,2.5264,2.5082,2.4543,2.4332,2.3728,2.2605,2.2919,2.2636,2.1515,2.1653,2.1475,2.0843,2.0484,2.0158,1.985,0.0,0.0,0.0,0.0,0.0,0.0,0.0,0.0,0.0,0.0,0.0,0.0,0.0,0.0,0.0,0.0,0.0,0.0,0.0,0.0,0.0,0.0,0.0,1.4999,1.4995,1.5042,1.5183,1.5189,1.5209,1.5228,1.6003,1.6503,1.6542,1.7253,1.8087,1.8953,1.8984,1.9388,2.0257,2.0277,2.0188,2.0003,1.9984,1.9984,1.9993,1.9993,2.0097,2.0277,2.0277,2.0277,2.0277,2.0277,2.0277,2.0277,2.0277,2.0285,2.0285,2.0304,2.0304,2.0277,2.0078,2.0012,1.9993,1.9847,1.979,1.9802,1.9809,1.9707,1.9614,1.9582,1.9438,1.9305,1.9305,1.9305,1.9305,1.9305,1.9305,1.9305,1.9305,1.9305,1.9305,1.9305,1.9323,1.9326,1.9326,2.0701,2.1839,2.1803,2.3125,2.419,2.419,2.419,0.0,2.4478,2.467,2.4855,2.4986,2.5173,2.5303,2.5303,2.4649,2.4229,2.4209,2.3615,2.3252,2.3209,2.2282,2.1757,2.1699,2.0779,1.9869,1.8992,0.0,0.0,0.0,0.0,0.0,0.0,0.0,0.0,0.0,0.0,0.0,0.0,0.0,0.0,0.0,0.0,0.0,0.0,0.0,0.0,0.0,1.4666,1.4698,1.4958,1.4995,1.5042,1.5183,1.5189,1.5445,1.608,1.6349,1.6734,1.733,1.7561,1.8033,1.8816,1.8846,1.9192,1.9912,1.9931,1.9909,1.9858,1.9858,1.9821,1.972,1.972,1.9744,1.9781,1.9781,1.9851,1.9931,1.9931,1.9931,1.9931,1.9931,1.9992,2.0106,2.0241,2.0205,2.0087,2.0169,2.0225,2.018,1.9899,1.9869,1.9922,1.9732,1.9636,1.9569,1.9442,1.9335,1.9305,1.9305,1.9305,1.9305,1.9305,1.9305,1.9305,1.9305,1.9305,1.9305,1.9305,1.9767,2.017,2.017,2.1528,2.2483,2.1913,2.3125,2.419,2.419,2.419,0.0,2.4478,2.467,2.4855,2.4986,2.5173,2.5303,2.5303,2.5168,2.4825,2.4248,2.4678,2.4389,2.3179,2.3411,2.2975,2.164,2.0739,1.9869,0.0,0.0,0.0,0.0,0.0,0.0,0.0,0.0,0.0,0.0,0.0,0.0,0.0,0.0,0.0,0.0,0.0,0.0,0.0,0.0,0.0,0.0,1.4777,1.4722,1.5282,1.5142,1.5004,1.5095,1.5171,1.5541,1.6426,1.6752,1.7259,1.8091,1.8414,1.8773,1.919,1.9228,1.9406,1.979,1.9858,1.9824,1.9732,1.9774,1.9726,1.9614,1.9614,1.9636,1.9682,1.9682,1.9762,1.988,1.9824,1.9824,1.989,1.989,1.9901,0.0,0.0,0.0,0.0,0.0,2.0001,1.9855,1.9657,1.9638,1.9688,1.9518,1.9485,1.9438,1.9335,1.9305,1.9305,1.9305,1.9305,1.9305,1.9305,1.9305,1.9305,1.9305,1.9305,1.9381,1.973,2.017,2.0613,2.0978,2.2097,0.0,2.2373,2.3364,2.419,2.419,2.419,2.4266,2.4478,2.467,2.4855,2.4986,2.5499,2.5687,2.5322,2.5707,0.0,0.0,0.0,2.4833,2.3122,2.3486,0.0,0.0,0.0,0.0,0.0,0.0,0.0,0.0,1.8802,1.8965,0.0,0.0,0.0,0.0,0.0,0.0,0.0,0.0,0.0,0.0,0.0,0.0,0.0,0.0,0.0,0.0,1.5221,1.5048,1.5896,1.545,1.5016,1.4985,1.5082,1.553,1.6496,1.7129,1.7889,1.885,1.946,1.9778,1.9786,0.0,0.0,0.0,0.0,1.9813,1.9569,1.9688,1.9676,1.9555,1.9555,1.963,1.9743,1.9743,1.9813,1.9914,1.9896,1.9889,1.9924,2.0019,1.9945,1.9797,1.9912,2.0079,2.0208,1.9866,1.958,1.9365,1.932,0.0,0.0,1.9305,1.9305,1.9305,1.9305,1.9305,1.9305,1.9305,1.9305,1.9305,1.9305,1.9305,1.9305,1.9305,1.9363,1.962,2.0338,2.0649,2.1015,2.1785,2.2575,2.3144,2.3144,2.3731,2.4226,2.4318,2.4337,2.4432,2.4739,2.4951,2.5139,2.5272,0.0,0.0,2.5514,2.6217,2.6314,2.5447,2.5505,2.4846,2.3195,2.2983,2.2117,2.0465,2.035,2.0312,2.0304,2.0047,1.9941,1.9922,1.8889,1.8791,0.0,0.0,0.0,0.0,0.0,0.0,0.0,0.0,0.0,0.0,0.0,0.0,0.0,0.0,0.0,1.6248,1.6397,1.65,1.6673,1.6126,1.5515,1.4978,1.4936,1.554,1.6999,1.7264,1.7964,1.9495,1.9726,1.975,1.963,1.9649,1.9564,1.939,1.9415,1.9419,1.935,1.9376,1.9376,1.935,0.0,0.0,1.939,1.939,1.9419,1.9467,2.0092,2.0015,1.9485,2.0137,2.0098,1.9649,1.9656,1.9781,1.9866,1.9513,1.9532,1.9657,1.939,1.9413,1.9513,1.935,1.9305,1.9305,1.9305,1.9305,0.0,1.9305,1.9305,1.9305,1.9305,1.9305,1.9305,1.9305,1.9803,2.0301,2.0466,2.1548,2.2575,2.274,2.3419,2.3969,2.3969,2.4098,2.441,2.5072,2.5182,2.5483,2.6321,2.6604,2.6843,2.7077,2.7428,2.7294,2.6428,2.6505,2.6274,2.5447,2.5418,2.5003,2.4014,2.3225,2.234,2.1293,2.0639,2.0312,2.0304,2.0606,2.0778,2.0728,1.9639,1.9522,0.0,0.0,0.0,0.0,0.0,0.0,0.0,0.0,0.0,0.0,0.0,1.3787,1.3926,0.0,1.6214,1.6969,1.6881,1.6893,1.7426,1.6864,1.6311,1.6028,1.5696,1.614,1.7742,1.7847,1.8327,1.9595,1.9612,1.9518,1.9438,1.9456,1.9394,1.9305,1.98,2.0003,1.9895,2.0394,2.0615,2.0554,2.0554,2.0554,2.0554,2.0554,2.0602,2.068,2.1009,2.0954,2.068,2.1011,2.1018,2.0796,2.0726,2.054,2.0337,2.0552,2.0704,2.0782,2.0618,2.0636,2.068,2.0586,2.0554,2.0554,2.0554,2.0554,2.0554,2.0554,2.0554,2.0554,2.0554,2.0554,2.0554,2.0554,2.0849,2.1272,2.1658,2.241,2.3125,2.3529,2.4245,2.4795,2.4795,2.5126,2.5401,2.5403,2.5731,2.626,2.6967,2.714,2.7346,2.7707,2.8203,2.8159,2.7313,2.6851,2.6255,2.5447,2.537,2.4812,2.3599,2.3494,2.2831,2.1523,2.1523,2.1543,2.1543,2.1612,2.1645,2.1632,2.0889,2.0758,0.0,0.0,0.0,0.0,0.0,0.0,0.0,1.3537,1.3318,1.2631,1.3471,1.4359,1.4473,1.5567,1.678,1.7781,1.7417,1.73,1.8214,1.7642,1.7238,1.7497,1.678,1.6838,1.827,1.8329,1.8623,1.9485,1.938,1.9363,1.951,1.9528,1.9601,1.9782,2.0566,2.0917,2.0758,2.1549,2.19,2.1803,2.1803,2.1803,2.1803,2.1803,2.1852,2.1964,2.1835,2.1961,2.2168,2.1909,2.1869,2.1964,2.2019,2.1703,2.1291,2.1776,2.1884,2.1803,2.1803,2.1803,2.1803,2.1803,2.1803,2.1803,2.1803,2.1803,2.1803,2.1803,2.1803,2.1803,2.1803,2.1803,2.1803,2.1803,2.1931,2.2208,2.2868,2.3254,2.3657,2.43,2.5071,2.5621,2.5621,2.63,2.6612,2.5972,2.641,2.7058,2.761,2.7695,2.7869,2.8338,2.8967,2.9025,2.8198,2.7198,2.6313,2.5678,2.5418,2.4639,2.3195,2.3764,2.336,2.1773,2.2447,2.2784,2.2738,2.2607,2.2518,2.2464,2.2321,2.2171,1.4936,1.4727,1.4545,1.4522,1.4522,1.4492,0.0,1.4371,1.4477,1.4837,1.5048,1.5532,1.6781,1.7153,1.7613,1.8679,1.8785,1.8815,1.9112,1.8463,1.8243,1.8971,1.7734,1.7164,1.8061,1.8139,1.8456,1.928,1.9305,1.9601,2.0319,2.0356,2.0721,2.1509,2.1636,2.1673,2.1639,2.1765,2.182,2.1803,2.1803,2.1803,2.1803,2.1803,2.1803,2.182,2.1803,2.2207,2.2831,2.2097,2.1803,2.1893,2.2593,2.2813,2.2684,2.204,2.182,2.1803,2.1803,2.1803,2.1803,2.1803,2.1803,2.1803,2.1803,2.1803,2.1803,2.1803,2.1803,2.1803,2.1803,2.1803,2.1803,2.1803,2.2354,2.2905,2.2997,2.4116,2.5164,2.5256,2.5915,2.6465,2.6465,2.7126,2.764,2.7548,2.7603,2.8093,2.9266,2.9413,2.9596,3.0067,3.0198,2.991,2.9044,2.7505,2.6563,2.6467,2.5726,2.4909,2.3995,2.4052,2.3648,2.2658,2.2754,2.2719,2.252,2.3082,2.3281,2.3119,2.3676,2.3547,1.4717,1.4589,1.4488,1.4488,1.4488,1.4488,1.4488,1.4866,1.5183,1.5142,1.5959,1.677,1.6962,1.7603,1.8251,0.0,1.8896,1.9069,1.9274,1.8996,1.8922,1.9253,1.9124,1.8926,1.8812,1.8794,1.8941,1.9271,1.973,2.0152,2.0484,2.0978,2.1418,2.1803,2.2244,2.2501,2.2501,2.296,2.3199,2.3199,2.3199,2.3199,2.3199,2.3199,2.3199,2.3199,2.3199,2.3382,2.3676,2.3327,2.3199,2.3217,2.3566,2.3694,2.3657,2.3309,2.3199,2.3199,2.3199,2.3199,2.3199,2.3199,2.3199,2.3199,2.3199,2.3199,2.3199,2.3199,2.3199,2.3199,2.3199,2.3199,2.3309,2.3786,2.4135,2.452,2.4997,2.5621,2.6098,2.6098,2.6741,2.7291,2.7291,2.797,2.8503,2.8503,2.8503,2.875,2.9437,2.9644,2.988,3.0355,3.0398,3.0044,2.9159,2.8448,2.764,2.6659,2.6255,2.5466,2.4149,2.4543,2.4409,2.3571,2.4024,2.4167,2.3969,2.4155,2.4159,2.3975,2.4598,2.4704,1.4567,1.4488,1.4488,1.4488,1.4488,1.4488,1.4488,1.5123,1.5626,1.5378,1.6561,1.7506,1.7182,1.7867,1.8528,1.8697,1.8861,1.9141,1.957,1.962,1.9711,1.9966,2.0501,2.0629,2.0058,2.0003,2.0003,2.0003,2.0537,2.096,2.1181,2.1785,2.2226,2.2446,2.3033,2.3327,2.3327,2.3914,2.419,2.419,2.419,2.419,2.419,2.419,2.419,2.419,2.419,2.419,2.419,2.419,2.419,2.419,2.419,2.419,2.4226,2.4447,2.4392,2.419,2.419,2.419,2.419,2.419,2.419,2.419,2.419,2.419,2.419,2.419,2.419,2.4245,2.4465,2.452,2.4722,2.5529,2.5713,2.5878,2.6465,2.6778,2.6924,2.6924,2.7585,2.8136,2.8136,2.8613,2.8994,2.8994,2.8994,2.9089,2.9372,2.9607,2.9943,3.0355,3.0398,3.014,2.9506,2.9236,2.8486,2.7044,2.6736,2.5947,2.4485,2.4986,2.5024,2.4428,2.5005,2.5182,2.4956,2.5069,2.4992,2.4762,2.5427,2.5713,1.4533,1.4488,1.4488,1.4488,1.4488,1.4488,1.4488,1.5123,1.5796,1.609,1.6835,1.7557,1.8055,1.8191,1.8391,1.8914,1.8984,1.934,2.034,2.0448,2.0794,2.1637,2.1748,2.1766,0.0,2.1729,2.1729,2.1729,2.1748,2.2097,2.2887,2.296,2.3327,2.4098,2.4153,2.4153,2.4153,2.419,2.419,2.419,2.419,2.419,2.419,2.419,2.419,2.419,2.419,2.419,2.419,2.419,2.419,2.419,2.419,2.419,2.4281,2.509,2.4869,2.419,2.419,2.419,2.419,2.419,2.419,2.419,2.419,2.419,2.419,2.419,2.419,2.4373,2.5164,2.5366,2.5586,2.6374,2.6557,2.6576,2.6594,2.7218,2.775,2.775,2.8411,2.8957,2.8957,2.8975,2.8994,2.8994,2.8994,2.9089,2.9372,2.9748,3.0109,3.0367,3.0398,3.0379,3.0359,2.9583,2.8736,2.7909,2.7063,2.6197,2.5303,2.5284,2.5284,2.5264,2.5284,2.5138,2.4804,2.5586,2.5755,2.5384,2.619,2.6557,1.4533,1.4488,1.4488,1.4488,1.4488,1.4634,1.5178,1.5931,1.6639,1.7102,1.799,1.8622,1.8494,1.9163,1.9741,1.9795,2.0389,2.0984,2.1308,2.1363,2.1473,2.1784,2.2263,0.0,0.0,0.0,0.0,2.1803,2.2281,2.2721,2.2997,2.3511,2.3914,2.419,2.419,2.419,2.419,2.419,2.4465,2.5017,2.5529,2.5236,2.4245,2.5309,2.5493,2.5035,2.5566,2.5786,2.5786,2.5786,2.5786,2.5786,2.5786,2.5786,2.5823,2.6098,2.6025,2.5786,2.5786,2.5786,2.5786,2.5786,2.5786,2.5786,2.5786,2.5419,2.5017,2.5017,2.5017,2.5072,2.5329,2.5786,2.6392,2.72,2.7402,2.7548,2.8081,2.8411,2.8613,2.8613,2.8815,2.8994,2.8994,2.8994,2.8994,2.8994,2.8994,2.9089,2.9372,2.9625,2.9877,3.0122,3.0279,3.0398,3.0398,3.014,2.9602,2.8736,2.8409,2.7621,2.6217,2.6717,2.6486,2.5322,2.6263,2.639,2.5605,2.6272,2.6451,2.6227,2.7016,2.7402,1.5165,1.52,1.52,1.52,1.53,1.5478,1.6022,1.6743,1.7402,1.7645,1.8485,1.9066,1.8679,1.9579,2.0351,2.0228,2.1097,2.1913,2.2189,2.2226,2.2336,2.2611,2.3107,2.3437,0.0,0.0,0.0,2.3088,2.329,2.3694,2.4263,2.4226,2.4465,2.5034,2.4777,2.4759,2.5052,2.5052,2.5309,2.5823,2.6355,2.6062,2.5089,2.6135,2.6319,2.586,2.6374,2.6612,2.6612,2.6612,2.6612,2.6612,2.6612,2.6612,2.6631,2.6924,2.7034,2.6998,2.6704,2.6612,2.6612,2.6612,2.6612,2.6612,2.6612,2.6245,2.5823,2.5823,2.5823,2.5897,2.6172,2.6631,2.7236,2.8044,2.8227,2.8374,2.8906,2.8994,2.8994,2.8994,2.8994,2.8994,2.8994,2.8994,2.8994,2.8994,2.8994,2.9089,2.9372,2.957,2.978,2.9984,3.0241,3.0398,3.0398,3.0398,3.0025,2.9159,2.9102,2.8486,2.7121,2.7601,2.7371,2.6255,2.7064,2.7158,2.6434,2.7045,2.7227,2.7053,2.8154,2.865,1.6289,1.6504,1.6489,1.6504,1.6686,1.6881,1.6918,1.7518,1.8038,1.7808,1.8441,1.8949,0.0,1.9542,2.0282,2.0282,2.1206,2.2189,2.296,2.307,2.3345,2.4116,2.4245,2.4263,0.0,0.0,0.0,2.5531,0.0,2.4997,2.6521,2.5144,2.5016,2.6557,2.586,2.5823,2.6594,2.6649,2.6649,2.6612,2.6686,2.6686,2.6612,2.6704,2.6704,2.6667,2.6704,2.6722,2.6722,2.6722,2.6722,2.6722,2.6722,2.6722,2.6833,2.7585,2.786,2.775,2.6998,2.6722,2.6722,2.6722,2.6722,2.6722,2.6722,2.6704,2.6667,2.6667,2.6667,2.6851,2.764,2.786,2.8062,2.8925,2.9085,2.9067,2.9104,2.9104,2.9104,2.9104,2.9104,2.9104,2.9104,2.9104,2.9104,2.9067,2.9049,2.9144,2.9351,2.957,2.9763,2.9969,3.0279,3.0436,3.0398,3.0436,3.0102,2.9217,2.9159,2.8794,2.7986,2.7986,2.7975,2.7879,2.7682,2.7471,2.7264,2.7886,2.8114,2.7952,2.9531,3.0265,1.6432,1.638,1.63,1.6458,1.655,1.6712,1.7162,1.7708,1.8221,1.8583,1.8972,1.9196,1.913,2.0366,2.1386,2.1386,2.263,2.3657,2.3878,2.3896,2.3969,2.4171,2.4722,2.509,2.509,2.5823,0.0,0.0,2.6447,2.6172,2.6594,2.6209,2.619,2.6594,2.641,2.6392,2.6612,2.72,2.72,2.6612,2.7824,2.7746,2.6649,2.7838,2.8062,2.753,2.8136,2.8388,2.8388,2.8388,2.8388,2.8388,2.8388,2.8388,2.8407,2.8631,2.8705,2.8668,2.8466,2.8388,2.8388,2.8388,2.8388,2.8388,2.8388,2.797,2.7493,2.7493,2.7493,2.7677,2.8503,2.8705,2.9053,3.0448,3.0338,3.0063,3.065,3.0797,3.0797,3.0797,3.0797,3.0797,3.0797,3.0797,3.0577,2.9989,2.9898,2.9701,2.9163,2.9456,2.9731,2.9763,3.0729,3.1121,3.0456,3.1006,3.1006,3.0121,3.0083,2.9698,2.8832,2.9232,2.8886,2.7625,2.8468,2.8577,2.7867,2.9074,2.9655,2.9604,3.0613,3.1091,1.7291,1.7347,1.7294,1.738,1.7579,1.7814,1.8154,1.8442,1.8727,1.9059,1.9504,1.9711,1.9363,2.096,2.2208,2.1858,2.3144,2.4318,2.4667,2.441,2.4465,2.5162,2.5328,2.555,2.5878,2.6649,2.731,0.0,2.7053,2.6924,2.7622,2.6979,2.6924,2.764,2.731,2.731,2.7658,2.8099,2.8099,2.7677,2.8553,2.8517,2.7673,2.859,2.8737,2.8356,0.0,2.8994,2.9012,2.936,2.9549,2.9549,2.9549,2.9751,3.0008,2.9659,2.9751,3.0063,3.0063,3.0063,2.9953,2.9214,2.9232,2.9475,2.9104,2.9182,2.931,2.8943,2.9108,2.9475,2.9934,3.0063,3.0283,3.1182,3.1054,3.0852,3.1292,3.1384,3.1384,3.1384,3.1384,3.1384,3.1384,3.1384,3.1237,3.0797,3.0723,3.0558,3.0118,3.0097,3.0076,3.0076,3.1271,3.1703,3.0879,3.1668,3.1872,3.1025,3.1295,3.1066,3.012,3.0395,3.0083,2.9011,2.9608,2.9857,2.9725,3.0406,3.0723,3.0742,3.1549,3.1935,1.8389,1.8604,1.8566,1.8641,1.893,1.9212,1.9162,1.9212,1.9243,1.9212,1.9902,2.0283,1.9583,2.14,2.2813,2.2208,2.3382,2.463,2.5458,2.4961,2.5034,2.6429,2.608,2.5988,2.6686,2.7493,2.7952,2.7952,2.731,2.7548,2.892,2.7695,2.7567,2.8957,2.8319,2.8301,2.8975,2.8994,2.8994,2.8994,2.8994,2.8994,2.8994,2.8994,2.9049,2.914,2.914,2.9237,2.9384,3.0081,3.0356,3.0356,3.0356,3.0797,3.1311,3.0613,3.0797,3.1384,3.1384,3.1384,3.1146,2.9659,2.9714,3.021,2.9402,3.021,3.1237,3.0558,3.0852,3.1403,3.1513,3.1476,3.1439,3.1659,3.1623,3.1586,3.1696,3.1715,3.1715,3.1715,3.1715,3.1715,3.1715,3.1715,3.1678,3.1568,3.1549,3.1513,3.1403,3.102,3.0751,3.0751,3.1882,3.2257,3.1328,3.2292,3.2563,3.1642,3.2352,3.2379,3.1451,3.1381,3.1267,3.1017,3.0798,3.1061,3.1768,3.1623,3.1549,3.1568,3.2394,3.2761,1.8807,1.8622,1.8371,1.8807,1.8825,1.8661,1.8452,1.8734,1.8983,1.8771,1.9684,2.0448,2.0319,2.1785,2.318,2.3694,2.4575,2.5456,2.6282,2.6282,2.63,2.6576,2.7053,2.7438,2.7567,2.8319,0.0,0.0,2.8645,2.87,2.8975,2.8737,2.87,2.8975,2.8847,2.8847,2.8994,2.8994,2.8994,2.8994,2.8994,2.8994,2.8994,2.8994,2.9365,2.9989,2.9989,0.0,3.098,3.1127,3.1182,3.1182,3.1182,3.1274,3.1366,3.1237,3.1274,3.1384,3.1384,3.1384,3.1237,3.0301,3.054,3.1035,3.0246,3.065,3.1366,3.1219,3.1274,3.1549,3.2228,3.1898,3.1733,3.3073,3.2889,3.2577,3.3238,3.3385,3.3385,3.3385,3.3385,3.3385,3.3385,3.3385,3.3164,3.2504,3.2394,3.2155,3.1476,3.1501,3.1589,3.1589,3.2594,3.2638,3.1108,3.241,3.2655,3.114,3.1785,3.2164,3.1958,3.1784,3.1699,3.1635,3.1385,3.1335,3.1483,3.2089,3.2394,3.2412,3.322,3.3587,1.9039,1.8807,1.8678,1.8931,1.8983,1.893,1.8807,1.8964,1.9243,1.9523,2.0441,2.118,2.118,2.252,2.3621,2.3584,2.4245,2.5199,2.6429,2.6245,2.6447,2.7714,2.7824,2.7952,2.8374,2.8755,2.8994,2.8994,2.8994,2.8994,2.8994,2.8994,2.8994,2.8994,2.8994,2.9195,2.9622,2.9195,2.9195,2.9622,2.9622,2.942,2.9012,2.9879,3.0228,3.0228,3.0632,3.1035,3.1421,3.1843,3.2027,3.2027,3.2027,3.2284,3.2596,3.2173,3.2284,3.2651,3.2651,3.2651,3.2522,3.1715,3.1715,3.1861,3.1072,3.1678,3.2559,3.2137,3.232,3.2742,3.3128,3.2944,3.2834,3.3623,3.3513,3.333,3.3715,3.3807,3.3807,3.3807,3.3807,3.3807,3.3807,3.3807,3.3678,3.3293,3.322,3.3091,3.2687,3.276,3.2693,3.2268,3.3179,3.3315,3.2096,3.3274,3.3542,3.2279,3.2996,3.32,3.2585,3.2478,3.2358,3.2231,3.2084,3.2228,3.2651,3.3036,3.322,3.3238,3.4064,3.4431,1.9469,1.9288,1.9253,1.9305,1.9405,1.9483,1.9483,1.9483,1.9666,2.0325,2.1112,2.177,2.2006,2.318,2.3967,2.3565,2.419,2.5217,2.6649,2.6612,2.7071,2.8792,2.8594,2.8484,2.8957,2.914,0.0,2.925,2.9439,2.9365,2.9012,2.8994,2.8994,2.8994,2.9159,2.9567,3.0191,2.9751,2.9843,3.0467,3.0467,3.0136,2.9567,3.0815,3.1146,3.076,3.1384,3.1751,3.1953,3.2596,3.2871,3.2871,3.2871,3.3238,3.3715,3.3091,3.3256,3.3807,3.3807,3.3807,3.3697,3.3073,3.2871,3.2724,3.1898,3.2651,3.3678,3.3036,3.3311,3.3807,3.3807,3.3807,3.3807,3.3807,3.3807,3.3807,3.3807,3.3935,3.4009,3.3825,3.3935,3.4064,3.4064,3.3917,3.3862,3.4027,3.3917,3.3807,3.3807,3.3807,3.3568,3.2926,3.3598,3.3783,3.298,3.3904,3.4148,3.3283,3.4036,3.4117,3.3213,3.3175,3.3074,3.2871,3.2871,3.3183,3.3807,3.3807,3.3899,3.4082,3.4697,3.5082,2.0511,2.0242,2.0137,2.0327,2.0242,2.0119,2.0119,2.0119,2.0138,2.021,2.0825,2.1659,2.2685,2.3373,2.4055,2.5032,2.5841,2.6686,2.7567,2.8888,2.9567,2.9049,2.9586,2.9732,2.9049,2.9659,3.0099,3.0099,3.076,3.054,2.9067,2.8994,2.8994,2.8994,2.9714,3.0136,3.021,3.0852,3.1219,3.1274,3.1274,3.1237,3.1182,3.1329,3.1751,3.2394,3.2467,3.2908,0.0,3.366,3.3697,3.3697,3.3697,3.3733,3.3788,3.3715,3.3733,3.3807,3.3807,3.3807,3.3788,3.3715,3.3697,3.3532,3.2742,3.3109,3.377,3.3715,3.3733,3.3807,3.3807,3.3807,3.3807,3.3807,3.3807,3.3807,3.3807,3.4376,3.4688,3.3935,3.4394,3.488,3.488,3.4284,3.4045,3.477,3.4284,3.3807,3.3807,3.3807,3.377,3.3697,3.3778,3.3511,3.2695,3.3408,3.3519,3.2709,3.3408,3.3831,3.3732,3.3732,3.3705,3.3697,3.3697,3.3733,3.3807,3.3807,3.4192,3.488,3.4954,3.544,2.1475,2.122,2.1168,2.1255,2.0819,2.0513,2.1041,2.0768,2.0659,2.168,2.2118,2.2555,2.3279,2.3737,2.4231,2.499,2.5536,2.6319,2.7622,2.8778,2.9549,2.9714,3.043,3.0797,3.0485,0.0,3.0907,3.0907,3.1219,3.1109,3.0485,3.0448,3.0448,3.0448,3.076,3.1146,3.1641,3.1476,3.1641,3.2118,3.2118,3.1861,3.1421,3.2394,3.2761,3.2632,3.3109,3.3495,0.0,3.3807,3.3807,3.3807,3.3807,3.3807,3.3807,3.3807,3.3807,3.3807,3.3807,3.3807,3.3807,3.3807,3.3807,3.3733,3.3421,3.355,3.3807,3.3807,3.3807,3.3807,3.3807,3.3807,3.3807,3.3807,3.4174,3.4523,3.4523,3.5202,3.5697,3.5367,3.5569,3.5789,3.5789,3.5092,3.4816,3.5661,3.5073,3.4724,3.5238,3.4853,3.4523,3.4523,3.41,3.3678,3.3348,3.4064,3.4192,3.3366,3.4082,3.4523,3.4523,3.4064,3.4266,3.5293,3.4798,3.478,3.5293,3.5293,3.5477,3.5789,3.6285,3.6688,2.2373,2.2152,2.2152,2.2152,2.1694,2.1383,2.2006,2.1675,2.1566,2.2776,2.2923,2.3047,2.3608,2.3994,2.4339,2.468,2.5393,2.641,2.778,2.8965,2.9934,3.0485,3.1274,3.1659,3.1403,3.1623,3.1843,3.2082,3.21,3.21,3.21,3.21,3.188,3.1403,3.1623,3.2027,3.2596,3.2265,3.2394,3.2963,3.2963,3.2669,3.2137,3.3275,3.3495,3.2999,3.355,3.3807,0.0,3.3807,3.3807,3.3807,3.3807,3.3807,3.3807,3.3807,3.3807,3.3807,3.3807,3.3807,3.3844,3.4082,3.4156,3.4211,3.4468,3.4192,3.3807,3.3807,3.3972,3.4211,3.4468,3.4541,3.4541,3.4541,3.4981,3.5385,3.5385,3.6046,3.6578,3.634,3.6486,3.6652,3.6652,3.5954,3.5679,3.6523,3.5936,3.5624,3.6211,3.5771,3.5385,3.5385,3.489,3.4431,3.4174,3.4688,3.489,3.4559,3.5073,3.5385,3.5385,3.4835,3.5092,3.6266,3.5697,3.5697,3.6303,3.6303,3.6413,3.667,3.7221,3.7734,2.3217,2.2997,2.2997,2.2997,2.2978,2.2997,2.2997,2.2978,2.2997,2.3015,2.2753,2.2751,2.3548,2.4034,2.4307,2.4325,2.5929,2.7482,2.8294,3.0104,3.1366,3.1384,3.21,3.2284,3.1476,3.2118,3.2926,3.3715,3.377,0.0,3.377,3.377,3.3054,3.1439,3.2173,3.2596,3.2614,3.3385,3.377,3.3788,3.3788,3.377,3.377,3.3788,3.3807,3.3788,3.3807,3.3807,0.0,3.3807,3.3807,3.3807,3.3807,3.3807,3.3807,3.3807,3.3807,3.3807,3.3807,3.3807,3.3935,3.4715,3.4972,3.5137,3.6009,3.511,3.3807,3.3807,3.4376,3.5174,3.6046,3.6266,3.6266,3.6266,3.6266,3.6285,3.6285,3.6909,3.7239,3.645,3.6927,3.7477,3.7477,3.6817,3.656,3.7349,3.6798,3.6285,3.6303,3.6285,3.6285,3.6285,3.6266,3.5917,3.5045,3.499,3.5367,3.6211,3.6266,3.6285,3.6285,3.6266,3.6266,3.6303,3.6285,3.6285,3.6303,3.6303,3.6707,3.7477,3.7507,3.834,2.3896,2.3823,2.3823,2.3823,2.3419,2.3144,2.3694,2.34,2.3162,2.3712,2.3553,2.3462,2.4005,2.4198,2.4734,2.6109,2.7308,2.8484,2.9855,3.13,3.2228,3.2228,3.2926,3.333,0.0,0.0,3.3532,3.377,3.3807,3.3807,3.3807,3.3807,3.3568,3.3054,3.3293,3.3421,3.3421,3.3678,3.3807,3.3807,3.3807,3.3807,3.3807,3.3807,3.3807,3.3807,3.3807,3.3807,3.3807,3.3807,3.3807,3.3844,3.4412,3.4633,3.4706,3.5293,3.5514,3.5514,3.5514,3.5514,3.555,3.5807,3.5899,3.5936,3.6211,3.5936,3.5514,3.5514,3.5697,3.5954,3.6229,3.6303,3.6303,3.6303,3.6707,3.711,3.711,3.7734,3.8248,3.7991,3.8157,3.8322,3.8322,3.7643,3.7386,3.8193,3.7624,3.7312,3.7863,3.7459,3.711,3.711,3.6615,3.6193,3.5917,3.6395,3.6578,3.6321,3.6817,3.711,3.711,3.6578,3.6817,3.7918,3.7386,3.7386,3.7936,3.7936,3.834,3.9148,3.9698,4.023,2.419,2.419,2.419,2.419,2.3823,2.3584,2.408,2.3804,2.3638,2.4288,2.4248,2.4221,2.4523,2.4804,2.5331,2.6461,2.7408,2.861,3.036,3.1383,3.2245,3.2955,3.377,3.4137,0.0,3.3807,3.3807,3.3807,3.3807,3.3935,3.4247,3.4266,3.4412,3.4724,3.4137,3.3954,3.4266,3.4266,3.4431,3.4743,3.4743,3.4578,3.4266,3.4266,3.41,3.3807,3.3807,3.3972,0.0,3.4266,3.4449,3.4798,3.5293,3.5495,3.5569,3.6101,3.6303,3.6303,3.6303,3.6303,3.634,3.6652,3.6964,3.7202,3.7202,3.678,3.6358,3.667,3.6743,3.6817,3.7129,3.7202,3.7202,3.7202,3.7588,3.7936,3.7936,3.834,3.8707,3.8707,3.8707,3.8707,3.8707,3.8285,3.812,3.8615,3.8267,3.812,3.8634,3.8267,3.7936,3.7936,3.7496,3.7202,3.7202,3.7386,3.7404,3.7221,3.7679,3.7936,3.7936,3.7459,3.7679,3.8689,3.8212,3.834,3.9148,3.946,3.9863,4.0377,4.1185,4.1552,0.0,2.419,2.4208,2.4263,2.4245,2.4226,2.4337,2.4318,0.0,2.4811,2.4882,2.4902,2.5118,2.5656,2.6004,2.5876,2.6745,2.8119,3.0044,3.0801,3.1819,3.3688,3.4614,3.4752,3.3972,3.3935,3.3972,3.3972,3.3972,3.4302,3.5045,3.5082,3.5477,3.6266,3.4798,3.4339,3.5082,3.5082,3.5514,3.6303,3.6303,3.5881,3.5082,3.5082,3.4688,0.0,3.3972,3.4412,0.0,3.5082,3.5587,3.6303,3.6358,3.6376,3.6376,3.645,3.6468,3.6468,3.6468,3.6468,3.6597,3.7331,3.8083,3.8707,3.8707,3.7661,3.6633,3.7367,3.7569,3.7753,3.8505,3.8707,3.8707,3.8707,3.8707,3.8707,3.8707,3.8707,3.8707,3.8707,3.8707,3.8707,3.8707,3.8707,3.8707,3.8707,3.8762,3.8799,3.8799,3.8836,3.8872,3.8872,3.8817,3.8817,3.8872,3.8065,3.79,3.8652,3.8707,3.8707,3.8707,3.8762,3.8799,3.8799,3.8836,3.9239,3.9992,4.0799,4.1222,4.1295,4.2103,4.2506,2.419,0.0,2.4337,2.4942,2.4649,2.452,0.0,2.5548,2.5228,2.5646,2.5511,2.5614,2.6506,2.6148,2.6265,2.7944,2.8682,2.9414,3.0469,3.2303,3.3839,3.4632,3.5477,3.5661,3.4789,3.533,3.5716,3.5716,3.5716,3.5789,3.5973,3.5991,3.6083,3.6285,3.5917,3.5807,3.5991,3.5991,3.6101,3.6303,3.6303,3.6193,3.5991,3.5991,3.5881,3.5716,3.5716,3.5826,3.5991,3.5991,3.6119,3.6358,3.6964,3.7202,3.7276,3.79,3.8138,3.8138,3.8138,3.8138,3.8175,3.8358,3.856,3.8707,3.8707,3.845,3.8175,3.8358,3.8414,3.8469,3.8652,3.8707,3.8707,3.8707,3.8707,3.8707,3.8707,3.8707,3.8707,3.8707,3.8707,3.8707,3.8707,3.8707,3.8707,3.8707,3.9221,3.9625,3.9625,4.0157,4.0543,4.0543,3.9992,3.9863,4.0487,3.9239,3.8505,3.8689,3.8707,3.8707,3.8707,3.9294,3.9625,3.9625,4.023,4.0634,4.0836,4.1644,4.2323,4.2947,4.3773,4.447,2.419,2.419,2.43,2.474,2.452,2.4428,2.5309,2.5438,2.546,2.5727,2.5904,2.6254,2.6877,2.6774,2.7029,2.8247,2.8954,2.9713,3.0867,3.2955,3.4546,3.4962,3.5771,3.6101,0.0,3.6028,3.6303,3.6303,3.6303,3.645,3.6817,3.6835,3.7019,3.7386,3.7404,3.7221,3.6835,3.6835,3.7037,3.7404,3.7404,3.7202,3.6835,3.6835,3.6652,3.6303,3.6303,3.6505,3.6835,3.6835,3.7055,3.7441,3.7881,3.8046,3.8102,3.8542,3.8707,3.8707,3.8707,3.8707,3.8707,3.8707,3.8707,3.8707,3.8707,3.8707,3.8707,3.8707,3.8707,3.8707,3.8707,3.8707,3.8707,3.8707,3.8707,3.8799,3.9166,3.8964,3.8817,3.9184,3.9239,3.9239,3.9239,3.957,3.9808,3.9808,4.0175,4.0451,4.0451,4.0836,4.1111,4.1111,4.0726,4.0634,4.1075,4.0304,3.9808,3.9808,3.946,3.9423,3.979,4.023,4.0451,4.0451,4.124,4.1662,4.1662,4.2837,4.3626,4.4066,4.4874,4.548,2.4355,2.4373,2.4373,2.4373,2.4281,2.4263,2.4502,2.5051,2.5517,2.5648,2.6267,2.6848,2.7012,2.7469,2.7857,2.8093,2.8822,2.9966,3.1751,3.3538,3.4798,3.5224,3.608,0.0,3.6486,3.6597,3.667,3.667,3.667,3.6964,3.7643,3.7661,3.7991,3.8689,3.8707,3.8377,3.7679,3.7661,3.8028,3.8707,3.8707,3.834,3.7661,3.7661,3.7294,3.667,0.0,0.0,3.7661,3.7661,3.8065,3.8707,3.8707,3.8707,3.8707,3.8707,3.8707,3.8726,3.8836,3.8964,3.9074,3.9074,3.9074,3.9038,3.8927,3.8982,3.9038,3.8927,3.8891,3.8891,3.8891,3.8982,3.9074,3.9074,3.9074,3.9258,3.9937,3.9551,3.9276,3.9955,4.0084,4.0084,4.0084,4.0653,4.1111,4.1111,4.1203,4.1295,4.1295,4.1405,4.1479,4.1479,4.1368,4.135,4.1479,4.1258,4.1203,4.146,4.0598,4.0432,4.1258,4.1295,4.135,4.1479,4.2139,4.2543,4.2671,4.4048,4.4837,4.5094,4.5773,4.6159,2.5035,2.5219,2.5219,2.5219,2.4685,2.4557,2.5915,2.6049,2.6021,2.6437,2.6889,2.75,2.8472,2.818,2.8212,2.955,3.0378,3.1764,3.4345,3.5291,3.5917,3.636,0.0,3.8065,3.7367,3.7936,3.834,3.834,3.834,3.8395,3.8505,3.8524,3.8579,3.8707,3.8707,3.8652,3.8524,3.8524,3.8579,3.8707,3.8707,3.8634,3.8524,3.8524,3.845,3.834,0.0,3.8395,3.8524,3.8524,3.8597,3.8707,3.8707,3.8707,3.8707,3.8707,3.8707,3.8799,3.9478,4.0157,4.0744,4.0744,4.0744,4.0616,3.9918,4.0194,4.0598,3.99,3.9717,3.9717,3.9717,4.023,4.0744,4.0744,4.0744,4.0781,4.0891,4.0836,4.0781,4.091,4.0928,4.0928,4.0928,4.1038,4.1111,4.1111,4.168,4.2121,4.2121,4.2708,4.313,4.313,4.2525,4.2396,4.3057,4.1882,4.168,4.3039,4.1735,4.1295,4.2084,4.2121,4.2433,4.3112,4.324,4.3644,4.4342,4.458,4.5406,4.6746,4.6874,4.7297,2.4433,2.4933,2.5403,2.5403,2.5438,2.5635,2.6158,2.647,2.6606,2.6409,2.6874,2.7523,2.8216,2.8399,2.9076,3.097,3.1901,3.2934,3.4449,3.4843,3.5381,0.0,0.0,3.7763,3.809,3.8487,3.8707,3.8707,3.8707,3.8707,3.8707,3.8707,3.8707,3.8707,3.8707,3.8707,3.8707,3.8707,3.8707,3.8707,3.8707,3.8707,3.8707,3.8707,3.8707,3.8707,0.0,3.8707,3.8707,3.8707,3.8707,3.8707,3.8707,3.8707,3.8762,3.9184,3.935,3.946,4.0267,4.0799,4.1111,4.1111,4.1111,4.1038,4.0671,4.0818,4.1038,4.0653,4.0561,4.0561,4.0561,4.0836,4.1111,4.1111,4.1111,4.124,4.1662,4.1423,4.124,4.1662,4.1754,4.1754,4.1754,4.2121,4.2396,4.2396,4.2708,4.2947,4.2947,4.3259,4.3497,4.3497,4.3167,4.3094,4.3461,4.2818,4.2525,4.2818,4.2561,4.2561,4.2928,4.2947,4.3332,4.4121,4.4158,4.4544,4.5351,4.5792,4.6397,4.7131,4.7572,4.7957,2.397,2.4751,2.5578,2.5658,2.5988,2.6252,2.6044,2.6554,2.6934,2.6445,2.7075,2.7841,2.8249,2.9127,3.0362,3.2239,3.3169,3.3837,3.4363,3.4683,3.5337,3.6664,3.7027,3.7562,3.8603,3.8707,3.8707,3.8707,3.8707,3.8707,3.8707,3.8707,3.8707,3.8707,3.8707,3.8707,3.8707,3.8707,3.8707,3.8707,3.8707,3.8707,3.8707,3.8707,3.8707,3.8707,3.8707,3.8707,3.8707,3.8707,3.8707,3.8707,3.8707,3.8817,3.9074,3.9882,4.0304,4.0543,4.1167,4.1515,4.1662,4.1662,4.1662,4.1644,4.1442,4.1515,4.1625,4.1442,4.1534,4.1625,4.1442,4.1534,4.1662,4.1662,4.1662,4.1827,4.2451,4.2103,4.1846,4.2451,4.258,4.258,4.258,4.3075,4.3497,4.3497,4.3644,4.3773,4.3773,4.3938,4.4048,4.4048,4.4048,4.4048,4.4048,4.4048,4.3791,4.3185,4.3534,4.3773,4.3773,4.3956,4.4342,4.4984,4.4984,4.5388,4.6177,4.6819,4.7223,4.7407,4.8012,4.8306,2.4527,2.5434,2.6123,2.6439,2.5988,2.5596,2.5917,2.632,2.6718,2.7047,2.8083,2.9079,2.9803,3.1089,3.2324,3.3186,3.3931,3.4658,3.5396,0.0,3.7031,3.7159,3.7977,3.8603,3.8707,3.8707,3.8707,3.8707,3.8707,3.8707,3.8707,3.8707,3.8707,3.8707,3.8707,3.8707,3.8707,3.8707,3.8707,3.8707,3.8707,3.8707,3.8707,3.8707,3.8707,3.8707,3.8707,3.8707,3.8707,3.8707,3.8707,3.8707,3.8707,3.9166,3.99,4.0726,4.1497,4.2139,4.2194,4.269,4.3314,4.3314,4.3314,4.3185,4.2433,4.2745,4.3167,4.2415,4.2745,4.3149,4.2415,4.2763,4.3314,4.3314,4.3314,4.3332,4.3387,4.3369,4.3332,4.3387,4.3406,4.3406,4.3406,4.3442,4.3497,4.3497,4.414,4.4617,4.4617,4.5278,4.5736,4.5736,4.5736,4.5736,4.5736,4.5736,4.57,4.5645,4.5002,4.4617,4.4617,4.5333,4.5755,4.581,4.581,4.6214,4.7021,4.7095,4.7498,4.8233,4.8269,4.8306,2.3743,2.4949,2.6191,2.653,2.6553,2.6615,2.7032,2.7443,2.7837,2.8254,2.8676,2.9211,2.9973,3.1681,3.3068,3.3355,3.4404,3.5301,3.5588,3.6249,3.6843,3.7135,3.7808,3.8332,3.8658,3.8707,3.8707,3.8707,3.8707,3.8707,3.8707,3.8707,3.8707,3.8707,3.8707,3.8707,3.8707,3.8707,3.8707,3.8707,3.8707,3.8707,3.8707,3.8707,3.8707,3.8707,3.8707,3.8707,3.8707,3.8707,3.9001,3.9496,4.001,4.0396,4.0744,4.1552,4.2047,4.2378,4.2873,4.324,4.3497,4.3497,4.3497,4.3424,4.313,4.3259,4.3424,4.313,4.3259,4.3424,4.313,4.3259,4.3497,4.3497,4.3497,4.3497,4.3497,4.3497,4.3497,4.3497,4.3497,4.3497,4.3497,4.3901,4.425,4.425,4.4929,4.5461,4.5461,4.5718,4.5902,4.5902,4.5902,4.5902,4.5902,4.5902,4.5902,4.5902,4.5608,4.5461,4.5461,4.5736,4.614,4.6654,4.6654,4.7058,4.7865,4.7865,4.8012,4.8306,4.8306,4.8581,2.3554,2.473,2.6033,2.6322,2.6652,2.7014,2.7502,2.8018,2.8474,2.8914,2.9347,2.9905,3.0666,3.2222,3.3491,3.3711,3.4793,3.565,3.581,3.6333,3.6825,3.736,3.7843,3.83,3.8658,3.8707,3.8707,3.8707,3.8707,3.8707,3.8707,3.8707,3.8707,3.8707,3.8707,3.8707,3.8707,3.8707,3.8707,3.8707,3.8707,3.8707,3.8707,3.8707,3.8707,3.8707,3.8707,3.8836,3.9074,3.9074,3.9551,4.0359,4.1167,4.1497,4.1589,4.2378,4.2671,4.2763,4.3296,4.3497,4.3497,4.3497,4.3497,4.3497,4.3497,4.3497,4.3497,4.3497,4.3681,4.3883,4.3883,4.3883,4.3883,4.3883,4.4066,4.425,4.425,4.425,4.425,4.425,4.425,4.425,4.425,4.4709,4.5094,4.5094,4.5773,4.6287,4.6287,4.6507,4.6654,4.6654,4.6654,4.6654,4.6654,4.6654,4.6654,4.6654,4.6654,4.6544,4.6287,4.6526,4.6929,4.748,4.7498,4.7755,4.8306,4.8306,4.8306,4.8324,4.8581,4.9003,2.4325,2.4974,2.5661,2.5943,2.6118,2.6385,2.7037,2.7764,2.8424,2.8895,3.0176,3.141,3.2138,3.2899,3.3643,3.437,3.5131,3.5783,3.6291,3.6882,3.736,3.7825,3.8382,3.8707,3.8707,3.8707,3.8707,3.8707,3.8707,3.8707,3.8707,3.8707,3.8707,3.8707,3.8707,3.8707,3.8707,3.8707,3.8707,3.8707,3.8707,3.8707,3.8707,3.8707,3.8707,3.8707,3.8707,3.9166,3.99,3.9918,4.0396,4.1203,4.2011,4.2304,4.2415,4.3204,4.3497,4.3497,4.3497,4.3497,4.3497,4.3497,4.3497,4.3497,4.3497,4.3497,4.3497,4.3497,4.4085,4.4709,4.4727,4.4727,4.4727,4.4727,4.5333,4.5902,4.5902,4.5902,4.5902,4.5902,4.5902,4.5902,4.5902,4.5902,4.5902,4.5902,4.6617,4.7131,4.7131,4.7829,4.8306,4.8306,4.8306,4.8306,4.8306,4.8306,4.8306,4.8306,4.8306,4.7957,4.715,4.7884,4.8306,4.8306,4.8306,4.8306,4.8324,4.8324,4.8324,4.8343,4.9205,4.9609,2.3702,2.4523,2.5559,2.5636,2.6314,2.7026,2.722,2.8048,2.9136,3.0298,3.0886,3.141,3.2138,3.2899,0.0,3.437,3.5446,3.6097,3.5854,3.6925,3.7614,3.7433,3.8168,3.8707,3.8707,3.8707,3.8707,3.8707,3.8707,3.8707,3.8707,3.8707,3.8707,3.8707,3.8707,3.8707,3.8707,3.8707,3.8707,3.8707,3.9276,3.9239,3.8707,3.8707,3.9019,3.9533,3.9533,3.9992,4.0799,4.135,4.1735,4.2029,4.2818,4.313,4.3167,4.3406,4.3497,4.3497,4.3497,4.3497,4.3497,4.3497,4.3497,4.3497,4.3497,4.3497,4.3608,4.4176,4.4525,4.4837,4.5406,4.5975,4.6269,4.5681,4.5736,4.5902,4.5902,4.5902,4.5902,4.5902,4.5902,4.5902,4.5902,4.6379,4.6746,4.6746,4.7443,4.7957,4.7957,4.8159,4.8306,4.8306,4.8306,4.8306,4.8306,4.8306,4.8306,4.8306,4.8306,4.8196,4.7957,4.8177,4.8306,4.8306,4.8306,4.86,4.9205,4.9205,4.9499,5.0068,5.0325,5.0747,2.4683,2.5174,2.5858,2.6156,2.6427,2.6862,2.7772,2.8509,2.9397,3.0886,3.119,3.1512,3.2544,3.3102,0.0,3.4776,3.5608,3.6054,3.5941,3.6886,3.7578,3.7506,3.8201,3.8707,3.8707,3.9001,3.9184,3.9184,3.9184,3.9184,3.9184,3.8872,3.8707,3.8707,3.9019,3.9019,3.8707,3.9019,3.9019,3.8707,3.9515,3.9643,3.9184,3.9515,3.9918,4.0396,4.0708,4.113,4.1644,4.2433,4.2782,4.2818,4.3296,4.3497,4.3497,4.3497,4.3497,4.3497,4.3497,4.3497,4.3497,4.3497,4.3718,4.3975,4.3975,4.4195,4.4544,4.5039,4.5424,4.5773,4.625,4.6985,4.7388,4.6581,4.6617,4.6856,4.6856,4.6856,4.6856,4.6856,4.6856,4.6856,4.6856,4.7278,4.759,4.759,4.7994,4.8306,4.8306,4.8306,4.8306,4.8306,4.8306,4.8306,4.8306,4.86,4.8783,4.8802,4.9114,4.9297,4.9297,4.8985,4.8967,4.9297,4.9297,4.9554,5.0068,5.0068,5.0325,5.082,5.1132,5.1536,2.6375,2.6363,2.635,2.6995,2.6475,2.6387,2.8586,2.9076,2.9482,3.0903,3.119,3.1647,3.3136,3.3406,3.3897,3.5385,3.5667,3.5854,3.6333,3.6921,3.7433,3.7859,3.8382,3.8726,3.8799,3.946,3.9918,3.9992,3.9937,3.99,3.99,3.9148,3.8707,3.8707,3.9405,3.9441,3.8707,3.9423,3.946,3.8817,3.9625,4.0047,4.0139,4.0799,4.1148,4.1258,4.2066,4.2415,4.247,4.3185,4.3497,4.3497,4.3497,4.3497,4.3497,4.3497,4.3497,4.3497,4.3497,4.3534,4.3608,4.3608,4.4158,4.4819,4.4819,4.5333,4.592,4.5993,4.6544,4.7094,4.7205,4.7755,4.8122,4.7388,4.7774,4.8306,4.8306,4.8306,4.8306,4.8306,4.8306,4.8306,4.8306,4.8306,4.8306,4.8306,4.8306,4.8306,4.8306,4.8306,4.8343,4.8416,4.8416,4.8453,4.8526,4.9205,4.9627,4.9701,5.0398,5.0839,5.0912,5.0123,5.005,5.0784,5.0802,5.0839,5.0912,5.0912,5.0949,5.1041,5.1775,5.2105,2.4944,2.5305,2.6109,2.597,2.6656,2.7791,2.9482,2.9871,3.0125,3.1021,3.119,3.1647,3.3136,3.3406,3.3897,3.5385,3.5941,3.6266,3.6374,3.7155,3.779,3.7911,3.8382,3.8946,3.957,3.979,4.0157,4.0799,4.0267,3.99,3.99,3.9148,3.8707,3.8707,3.8872,3.8872,3.8707,3.8872,3.9184,3.9643,4.0469,4.1167,4.1772,4.1313,4.1442,4.2084,4.2892,4.3222,4.3259,4.3424,4.3497,4.3497,4.3497,4.3497,4.3497,4.3497,4.3497,4.3497,4.3497,4.3901,4.4452,4.4452,4.4984,4.5645,4.5645,4.5755,4.603,4.6673,4.6985,4.726,4.7884,4.8177,4.8269,4.8086,4.8177,4.8306,4.8306,4.8306,4.8306,4.8306,4.8306,4.8306,4.8306,4.8306,4.8306,4.8306,4.8306,4.8306,4.8306,4.8306,4.8563,4.9242,4.9315,4.9572,5.0215,5.0417,5.0527,5.0545,5.071,5.1077,5.172,5.0967,5.0618,5.0802,5.0802,5.1114,5.1738,5.1738,5.2068,5.2692,5.2876,5.2949,2.5727,2.5945,2.6411,2.6606,2.7249,2.8178,2.9753,3.0108,3.0311,3.1055,3.119,3.1647,3.3136,3.3406,3.3897,3.5385,3.6054,3.6374,3.6374,3.7268,3.8038,3.8417,3.8948,3.9588,4.0396,4.0469,4.0653,4.1075,4.0359,3.99,3.99,3.9148,3.8707,3.8707,3.9074,3.9093,3.8707,3.946,3.9882,3.99,4.1111,4.2103,4.2855,4.2433,4.2488,4.2892,4.3314,4.3497,4.3497,4.3497,4.3497,4.3497,4.3497,4.3497,4.3534,4.392,4.4066,4.4121,4.4507,4.4929,4.5278,4.5278,4.5828,4.6471,4.6471,4.6746,4.715,4.7572,4.7682,4.7774,4.8196,4.8306,4.8306,4.8306,4.8306,4.8306,4.8306,4.8306,4.8306,4.8306,4.8306,4.8306,4.8306,4.8306,4.8306,4.8306,4.8306,4.8453,4.8857,4.8912,4.9242,5.0068,5.016,5.0343,5.0765,5.1151,5.1371,5.1371,5.1738,5.2142,5.2564,5.2179,5.1958,5.1958,5.1958,5.216,5.2564,5.2564,5.2803,5.3206,5.3206,5.3206,2.6882,2.6971,2.7063,2.7824,2.8112,2.8586,2.9973,3.0294,3.0497,3.1241,3.1275,3.1647,3.3136,3.3406,3.3922,3.5501,3.6097,3.6457,3.6643,3.7379,3.818,3.8952,3.9433,4.001,4.0818,4.0891,4.102,4.1295,4.0561,4.0175,4.0304,3.9423,3.8982,3.9111,3.9625,3.9643,3.9129,4.0432,4.0836,4.0322,4.1791,4.2855,4.3497,4.3497,4.3497,4.3497,4.3497,4.3497,4.3497,4.3497,4.3497,4.3497,4.3497,4.3497,4.3589,4.4415,4.4709,4.4837,4.5626,4.5993,4.6104,4.6104,4.6654,4.7333,4.7333,4.7774,4.8306,4.8306,4.8306,4.8306,4.8306,4.8306,4.8306,4.8306,4.8306,4.8306,4.8306,4.8306,4.8306,4.8306,4.8306,4.8306,4.8306,4.8416,4.8526,4.8526,4.8636,4.8985,4.9701,4.9793,5.0105,5.0912,5.1004,5.1059,5.1206,5.1811,5.2197,5.2197,5.2839,5.3206,5.3206,5.3206,5.3206,5.3206,5.3206,5.3206,5.3206,5.3206,5.3206,5.3206,5.3206,5.328,2.6073,2.6725,2.7858,2.8636,2.9313,3.0023,3.0852,3.1055,3.1258,3.1985,3.163,3.1647,3.3136,3.3406,3.4049,3.5983,3.6333,3.6706,3.7578,3.7825,3.8101,3.8693,3.8823,3.9184,3.9974,4.0065,4.0634,4.2029,4.1405,4.124,4.1937,4.0561,4.0065,4.0763,4.0212,4.0175,4.0781,4.1001,4.1405,4.1992,4.2892,4.3387,4.3497,4.3497,4.3497,4.3497,4.3497,4.3497,4.3497,4.3497,4.3497,4.3497,4.3497,4.3497,4.3589,4.4415,4.4709,4.4837,4.5626,4.6361,4.6948,4.6948,4.7498,4.8141,4.8141,4.8214,4.8306,4.8306,4.8306,4.8306,4.8306,4.8306,4.8306,4.8306,4.8306,4.8306,4.8306,4.8306,4.8306,4.8306,4.8306,4.8306,4.8306,4.893,4.9426,4.9426,5.0013,5.0508,5.0618,5.0637,5.0949,5.1738,5.183,5.2123,5.2839,5.2986,5.3041,5.3041,5.3151,5.3206,5.3206,5.3206,5.3206,5.3206,5.3206,5.3206,5.3206,5.3206,5.3206,5.3206,5.3206,5.3573,2.6742,2.7299,2.8076,2.9313,2.9871,3.0294,3.1021,3.119,3.1393,3.2138,3.2019,3.2256,3.3744,3.4015,3.4525,3.6118,3.6643,3.7238,3.8419,3.8837,3.9451,4.0565,4.0726,4.102,4.1827,4.1497,4.1534,4.2249,4.1552,4.1258,4.1625,4.0524,4.0267,4.1075,4.0322,4.0286,4.1111,4.1552,4.2176,4.2983,4.3314,4.3497,4.3497,4.3497,4.3497,4.3497,4.3497,4.3497,4.3497,4.3497,4.3497,4.3534,4.3993,4.4176,4.4323,4.559,4.6049,4.6177,4.6966,4.748,4.7774,4.7774,4.8012,4.8306,4.8306,4.8306,4.8306,4.8306,4.8306,4.8306,4.8306,4.8306,4.8306,4.8306,4.8636,4.9022,4.9205,4.9132,4.915,4.9609,4.9701,4.9701,4.9701,5.0013,5.027,5.027,5.0563,5.0967,5.1408,5.1463,5.1775,5.2601,5.2674,5.2821,5.3188,5.3206,5.3206,5.3206,5.3206,5.3206,5.3206,5.3206,5.3427,5.3867,5.3445,5.3206,5.3206,5.3206,5.3206,5.3225,5.3665,5.4069,2.7182,2.7824,2.8433,2.9786,3.0378,3.0852,3.1579,3.1765,3.1968,3.2696,3.2954,3.3427,3.4583,3.4624,3.4968,3.6359,3.7119,3.795,3.9117,3.9816,4.0653,4.1846,4.2011,4.2231,4.2818,4.2359,4.2084,4.2286,4.1754,4.1497,4.1699,4.0946,4.0873,4.168,4.0928,4.0891,4.1699,4.2304,4.291,4.3497,4.3497,4.3497,4.3497,4.3497,4.3497,4.3497,4.3497,4.3497,4.3497,4.3497,4.3608,4.3864,4.447,4.4837,4.5186,4.6599,4.7113,4.7241,4.8031,4.8306,4.8306,4.8306,4.8306,4.8306,4.8306,4.8306,4.8306,4.8306,4.8471,4.8636,4.8636,4.8783,4.8948,4.8948,4.9389,4.9903,5.0141,5.005,5.0068,5.0674,5.0802,5.0802,5.0802,5.0967,5.1096,5.1096,5.1279,5.1628,5.2234,5.2307,5.2527,5.3151,5.3206,5.3206,5.3206,5.3206,5.3298,5.35,5.35,5.361,5.3812,5.3812,5.4087,5.4693,5.4124,5.372,5.35,5.3316,5.3206,5.3225,5.4032,5.4509,2.6539,2.7807,2.911,2.9922,3.114,3.2357,3.3119,3.3288,3.3491,3.4218,3.4802,3.5249,3.5491,3.4979,3.5078,3.6858,3.781,3.8686,3.9717,4.0529,4.1075,4.1167,4.1167,4.1185,4.124,4.1203,4.1497,4.2249,4.2268,4.2561,4.3314,4.2598,4.2543,4.3332,4.258,4.2561,4.3369,4.3406,4.3442,4.3497,4.3497,4.3497,4.3497,4.3497,4.3497,4.3497,4.3497,4.3497,4.3497,4.3497,4.3956,4.4654,4.469,4.5168,4.5938,4.6801,4.7113,4.7241,4.8031,4.8306,4.8306,4.8306,4.8306,4.8306,4.8306,4.8306,4.8306,4.8306,4.8893,4.9517,4.9517,5.0086,5.0674,5.0674,5.071,5.0747,5.0747,5.0747,5.0747,5.0802,5.0802,5.0802,5.0802,5.1426,5.194,5.194,5.2601,5.3096,5.3133,5.3151,5.317,5.3206,5.3206,5.3206,5.3206,5.3206,5.3537,5.4289,5.4344,5.4675,5.5427,5.5464,5.5482,5.5537,5.5482,5.5097,5.4344,5.3573,5.3206,5.3225,5.4032,5.4803,2.7097,2.818,2.9161,2.9922,3.1207,3.2381,3.2611,3.3321,3.4112,3.485,3.5397,3.5934,3.6527,3.6399,3.6431,3.7099,3.813,3.9283,4.0482,4.1368,4.2066,4.258,4.2635,4.2635,4.2635,4.2635,4.2763,4.3039,4.3057,4.3185,4.3461,4.2745,4.2671,4.3461,4.2708,4.269,4.3479,4.3497,4.3497,4.3497,4.3497,4.3497,4.3497,4.3497,4.3497,4.3497,4.3497,4.3497,4.3497,4.3497,4.3663,4.403,4.5076,4.5645,4.6067,4.7388,4.7884,4.7921,4.8214,4.8306,4.8306,4.8306,4.8306,4.8306,4.8306,4.8691,4.9132,4.9132,4.9719,5.0362,5.0362,5.0582,5.093,5.1444,5.1958,5.2344,5.2344,5.194,5.172,5.2252,5.2344,5.2344,5.2344,5.2582,5.2766,5.2766,5.3023,5.3206,5.3206,5.3206,5.3206,5.3206,5.3206,5.3206,5.3206,5.3683,5.4087,5.4381,5.4876,5.5299,5.5574,5.5592,5.5831,5.6363,5.5849,5.5445,5.517,5.4876,5.473,5.4748,5.5574,5.6088,2.6742,2.7824,2.8839,2.9854,3.1021,3.2121,3.2848,3.3825,3.4792,3.5498,3.6207,3.6755,3.7122,3.7487,3.7632,3.747,3.86,3.9857,4.0954,4.2029,4.2892,4.3424,4.3497,4.3497,4.3497,4.3497,4.3497,4.3497,4.3497,0.0,4.3497,4.2983,4.2947,4.3461,4.2983,4.2947,4.3479,4.3497,4.3497,4.3497,4.3497,4.3497,4.3497,4.3497,4.3497,4.3497,4.3497,4.3497,4.3497,4.3497,4.3809,4.4397,4.548,4.6232,4.6838,4.7921,4.8306,4.8306,4.8306,4.8306,4.8306,4.8306,4.8306,4.8361,4.8655,4.9132,4.9646,4.9921,5.0582,5.1206,5.1206,5.1408,5.1738,5.2289,5.2821,5.3206,5.3206,5.2784,5.2564,5.3115,5.3206,5.3206,5.3206,5.3206,5.3206,5.3206,5.3206,5.3206,5.3206,5.3206,5.3206,5.3206,5.3206,5.3316,5.3592,5.4087,5.4638,5.517,5.5702,5.6106,5.6381,5.64,5.6657,5.7189,5.6675,5.64,5.64,5.5849,5.5592,5.5611,5.6436,5.695,0.0,0.0,0.0,2.9702,3.0632,3.1765,3.3931,3.4871,3.5503,3.6225,3.7157,3.7737,3.7285,3.8016,3.8546,3.805,3.9282,4.0526,4.1064,4.2506,4.3497,4.3497,4.3497,4.3497,4.3497,4.3497,4.3497,4.3497,4.3497,4.3497,4.3497,4.3497,4.3497,4.3497,4.3497,4.3497,4.3497,4.3497,4.3497,4.3497,4.3497,4.3497,4.3497,4.3497,4.3497,4.3497,4.3497,4.3497,4.3534,4.3534,4.4452,4.5865,4.592,4.6893,4.8269,4.8306,4.8306,4.8306,4.8306,4.8306,4.8306,4.8306,4.8306,4.8471,4.9334,4.9609,4.9793,5.0618,5.1408,5.2032,5.2032,5.2619,5.3206,5.3206,5.3206,5.3206,5.3206,5.3206,5.3206,5.3206,5.3206,5.3206,5.3206,5.3206,5.3206,5.3206,5.3206,5.3206,5.3206,5.3206,5.3225,5.3243,5.3243,5.3573,5.4363,5.4454,5.5152,5.6712,5.6822,5.7189,5.796,5.7997,5.7997,5.7997,5.7997,5.7997,5.7997,5.6418,5.5666,5.5684,5.6473,5.7262,2.5406,0.0,0.0,0.0,0.0,0.0,3.2628,3.3722,3.4723,3.5428,3.6397,3.7244,3.7612,3.8234,3.8841,3.9264,4.0233,4.1144,4.1849,4.2837,4.3497,4.3497,4.3497,4.3497,4.3497,4.3497,4.3497,0.0,4.3497,4.3497,4.3497,4.3497,4.3497,4.3497,4.3497,4.3497,4.3497,4.3497,4.3497,4.3497,4.3497,4.3497,4.3497,4.3497,4.3497,4.3497,4.3497,4.3828,4.4378,4.4378,4.4635,4.5149,4.6324,4.7058,4.7517,4.8104,4.8306,4.8306,4.8306,4.8306,4.8306,4.8306,4.8306,4.8471,4.9334,4.9994,5.0637,5.1444,5.2252,5.2876,5.2876,5.3041,5.3206,5.3206,5.3206,5.3206,5.3206,5.3206,5.3206,5.3206,5.3206,5.3206,5.3206,5.3206,5.3206,5.3206,5.3206,5.3206,5.3206,5.3206,5.3427,5.4014,5.4069,5.4399,5.5188,5.5794,5.6326,5.6785,5.7354,5.7776,5.7997,5.7997,5.7997,5.7997,5.7997,5.7997,5.7997,5.7538,5.7336,5.7336,5.7556,5.7795,2.5017,2.6218,0.0,2.8704,0.0,0.0,3.2374,3.3499,3.4575,3.5832,3.6969,3.7959,3.8616,3.9264,3.9974,4.0763,4.1295,4.1772,4.2231,4.2983,4.3497,4.3497,4.3497,4.3497,4.3497,4.3497,4.3497,4.3497,4.3497,4.3497,4.3497,4.3497,4.3497,4.3497,4.3497,4.3497,4.3497,4.3497,4.3497,4.3497,4.3497,4.3497,4.3497,4.3497,4.3681,4.3993,4.3993,4.4452,4.5241,4.5571,4.5718,4.581,4.6746,4.7333,4.7682,4.8141,4.8306,4.8306,4.8306,4.8306,4.8306,4.8306,4.8545,4.9003,4.9829,5.0655,5.1463,5.227,5.2839,5.3206,5.3206,5.3206,5.3206,5.3206,5.3206,5.3206,5.3206,5.3206,5.3206,5.3206,5.3206,5.3206,5.3206,5.3206,5.3206,5.3206,5.3206,5.3206,5.3206,5.35,5.3885,5.4344,5.4693,5.5225,5.6033,5.6528,5.695,5.7281,5.774,5.7997,5.7997,5.7997,5.7997,5.7997,5.7997,5.7997,5.7997,5.7997,5.7997,5.7997,5.7997,5.7997,2.4611,2.5625,0.0,2.8586,2.9011,0.0,3.2527,3.3596,3.4501,3.6397,3.7809,3.892,3.9506,4.0349,4.1203,4.1919,4.2176,4.2323,4.2415,4.3039,4.3516,4.3608,4.3626,4.3663,4.3754,4.3754,4.3754,4.3754,4.3663,4.3589,4.3497,4.3497,4.3497,4.3497,4.3497,4.3497,4.3497,4.3497,4.3497,4.3497,4.3497,4.3497,4.3497,4.3589,4.4011,4.4709,4.48,4.5296,4.6085,4.6819,4.7113,4.7131,4.7223,4.7682,4.8306,4.8306,4.8306,4.8306,4.8306,4.8306,4.8324,4.8416,4.8967,4.9756,5.0655,5.1426,5.216,5.2986,5.3206,5.3206,5.3206,5.3206,5.3206,5.3206,5.3206,5.3206,5.3206,5.3206,5.3206,5.3206,5.3206,5.3206,5.3206,5.3206,5.3206,5.3206,5.3206,5.3206,5.3206,5.3904,5.4436,5.4528,5.5244,5.6051,5.6877,5.6932,5.7244,5.7941,5.7997,5.7997,5.7997,5.7997,5.7997,5.7997,5.7997,5.7997,5.7997,5.7997,5.7997,5.7997,5.7997,5.7997,2.5389,2.6031,2.7063,2.8586,0.0,0.0,3.1224,3.219,3.2934,3.396,3.5448,3.6844,3.7594,3.9039,4.0175,4.0341,4.146,4.2525,4.3167,4.3387,4.3736,4.4397,4.447,4.4727,4.5369,4.5424,4.5424,4.5424,4.4837,4.4176,4.3516,4.3497,4.3497,4.3497,4.3497,4.3497,4.3497,4.3497,4.3497,4.3497,4.3497,4.3497,4.3516,4.4176,4.4562,4.4745,4.5388,4.6122,4.6893,4.7058,4.7113,4.7186,4.7829,4.8159,4.8306,4.8306,4.8306,4.8306,4.8306,4.8306,4.8416,4.9114,4.9444,4.9848,5.1316,5.1867,5.216,5.2986,5.3206,5.3206,5.3206,5.3206,5.3206,5.3206,5.3206,5.3206,5.3206,5.3206,5.3206,5.3206,5.3206,5.3206,5.3206,5.3206,5.3206,5.3206,5.3206,5.3206,5.3206,5.3904,5.4638,5.5299,5.6088,5.6895,5.7703,5.7776,5.7831,5.7997,5.7997,5.7997,5.7997,5.7997,5.7997,5.7997,5.7997,5.7997,5.7997,5.7997,5.7997,5.7997,5.7997,5.7997,2.5609,2.6133,2.7063,2.8586,0.0,0.0,0.0,3.2019,3.2574,3.359,3.4797,3.6086,3.7363,3.8683,3.9908,4.0932,4.1772,4.258,4.3387,4.3846,4.425,4.4654,4.5057,4.5461,4.5865,4.5902,4.5902,4.5902,4.5149,4.4525,4.4121,4.3718,4.3497,4.3497,4.3497,4.3497,4.3497,4.3901,4.4103,4.4103,4.4507,4.469,4.4709,4.5112,4.5535,4.5938,4.6324,4.6966,4.7719,4.7719,4.7719,4.7755,4.8141,4.8306,4.8306,4.8306,4.8306,4.8306,4.8306,4.8581,4.9022,4.9444,5.0123,5.093,5.1756,5.227,5.2674,5.3096,5.3206,5.3206,5.3206,5.3206,5.3206,5.3206,5.3206,5.3206,5.3206,5.3206,5.3206,5.3206,5.3206,5.3206,5.3206,5.3206,5.3206,5.3206,5.3206,5.3206,5.3206,5.3904,5.4711,5.55,5.6326,5.7134,5.7923,5.7997,5.7997,5.7997,5.7997,5.7997,5.7997,5.7997,5.7997,5.7997,5.7997,5.7997,5.7997,5.7997,5.7997,5.7997,5.7997,5.7997,0.0,0.0,0.0,0.0,0.0,2.9553,0.0,0.0,0.0,3.3623,3.4528,3.5612,3.711,3.8253,3.949,4.1101,4.1772,4.2304,0.0,4.3864,0.0,4.469,4.5406,4.5957,4.6122,4.614,4.614,4.614,4.5388,4.4947,4.4947,4.4176,4.3718,4.3718,4.3571,4.3552,4.3718,4.4378,4.4782,4.4947,4.559,4.5902,4.5902,4.6067,4.6489,4.7131,4.7278,4.7719,4.8306,4.8306,4.8306,4.8306,4.8306,4.8306,4.8306,4.8306,4.8306,4.8324,4.8489,4.9003,4.9627,4.9939,5.1041,5.2234,5.2234,5.2692,5.3206,5.3206,5.3206,5.3206,5.3206,5.3206,5.3206,5.3206,5.3206,5.3206,5.3206,5.3206,5.3206,5.3206,5.3206,5.3206,5.3206,5.3206,5.3206,5.3206,5.3206,5.328,5.3427,5.4124,5.4932,5.5739,5.6547,5.7299,5.7941,5.7997,5.7997,5.7997,5.7997,5.7997,5.7997,5.7997,5.7997,5.7997,5.7997,5.7997,5.7997,5.7997,5.7997,5.7997,5.7997,5.7997,0.0,0.0,0.0,0.0,2.9482,0.0,0.0,0.0,3.2347,3.2513,0.0,3.4516,3.5049,0.0,0.0,0.0,0.0,0.0,4.1368,4.2671,4.3901,4.4635,4.5406,4.6177,4.6911,4.6966,4.6966,4.6966,4.6232,4.5755,4.5755,4.5002,4.4562,4.4562,4.3864,4.3828,4.4562,4.4654,4.5057,4.5755,4.5865,4.5902,4.592,4.6654,4.7021,4.715,4.7865,4.8233,4.8306,4.8306,4.8306,4.8306,4.8306,4.8306,4.8306,4.8306,4.8306,4.8416,4.9169,4.9499,4.9829,5.1242,5.2325,5.3078,5.3078,5.3133,5.3206,5.3206,5.3206,5.3206,5.3206,5.3206,5.3206,5.3206,5.3206,5.3206,5.3206,5.3206,5.3206,5.3206,5.3206,5.3206,5.3206,5.3206,5.3206,5.3206,5.3206,5.3463,5.4179,5.4968,5.5757,5.6583,5.7373,5.7905,5.7997,5.7997,5.7997,5.7997,5.7997,5.7997,5.7997,5.7997,5.7997,5.7997,5.7997,5.7997,5.7997,5.7997,5.7997,5.7997,5.7997,5.7997,0.0,0.0,0.0,0.0,0.0,0.0,3.0954,0.0,3.1647,0.0,0.0,0.0,0.0,0.0,0.0,0.0,3.9538,0.0,4.1038,4.168,4.2763,4.4507,0.0,0.0,4.704,4.7113,4.7297,4.7774,4.6617,4.6104,4.6581,4.5828,4.5406,4.5406,4.5076,4.5039,4.5388,4.5865,4.6269,4.6617,4.7076,4.7297,4.7297,4.7645,4.781,4.7829,4.8159,4.8306,4.8306,4.8306,4.8306,4.8306,4.8306,4.8306,4.8306,4.8306,4.8618,4.9095,4.9462,5.0196,5.1169,5.2325,5.2931,5.3206,5.3206,5.3206,5.3206,5.3206,5.3555,5.3904,5.3904,5.4234,5.4583,5.4583,5.4583,5.4583,5.4583,5.4583,5.4583,5.4583,5.4583,5.4583,5.4583,5.383,5.3206,5.3206,5.361,5.4014,5.4363,5.5097,5.5904,5.6712,5.7097,5.7483,5.796,5.7997,5.7997,5.7997,5.7997,5.7997,5.7997,5.7997,5.7997,5.7997,5.7997,5.7997,5.7997,5.7997,5.7997,5.7997,5.7997,5.7997,2.9027,0.0,0.0,0.0,0.0,0.0,0.0,0.0,0.0,0.0,0.0,0.0,0.0,0.0,0.0,0.0,0.0,4.0175,0.0,4.0928,4.1589,0.0,0.0,0.0,0.0,4.6581,4.6874,4.7902,4.6691,4.6361,4.7388,4.6673,4.6232,4.6232,4.6012,4.6012,4.6232,4.6819,4.7223,4.7462,4.8031,4.8306,4.8306,4.8306,4.8306,4.8306,4.8306,4.8306,4.8306,4.8306,4.8434,4.8655,4.8655,4.8802,4.8967,4.8746,4.9187,4.9958,5.016,5.1151,5.2435,5.3023,5.3206,5.3243,5.3463,5.3537,5.3573,5.3812,5.4289,5.473,5.473,5.5152,5.5592,5.5592,5.5592,5.5592,5.5592,5.5592,5.5592,5.5592,5.5592,5.5592,5.5592,5.4638,5.3867,5.3867,5.4344,5.4803,5.5023,5.5574,5.6235,5.7042,5.7134,5.7373,5.7941,5.7997,5.7997,5.7997,5.7997,5.7997,5.7997,5.7997,5.7997,5.7997,5.7997,5.7997,5.7997,5.7997,5.7997,5.7997,5.7997,5.7997,0.0,0.0,0.0,3.1282,0.0,0.0,0.0,0.0,3.2239,0.0,0.0,0.0,0.0,0.0,0.0,0.0,0.0,0.0,0.0,0.0,0.0,0.0,0.0,0.0,0.0,4.5241,4.5443,0.0,4.6379,4.6599,4.8196,4.7517,4.7076,4.7076,4.6305,4.6269,4.7076,4.7113,4.7498,4.8269,4.8306,4.8306,4.8306,4.8306,4.8306,4.8306,4.8306,4.8306,4.8306,4.8306,4.8802,4.9536,4.9536,5.0031,5.0637,4.9848,5.0068,5.0875,5.1646,5.2472,5.3188,5.3206,5.3206,5.3353,5.4124,5.4363,5.4528,5.5299,5.5537,5.5556,5.5556,5.5574,5.5592,5.5592,5.5592,5.5592,5.5592,5.5592,5.5592,5.5592,5.5592,5.5592,5.5592,5.5556,5.55,5.55,5.5537,5.5831,5.662,5.6767,5.7079,5.7886,5.796,5.796,5.7997,5.7997,5.7997,5.7997,5.7997,5.7997,5.7997,5.7997,5.7997,5.7997,5.7997,5.7997,5.7997,5.7997,5.7997,5.7997,5.7997,5.7997,0.0,0.0,3.0819,3.2288,0.0,0.0,0.0,0.0,0.0,0.0,0.0,0.0,0.0,0.0,0.0,0.0,0.0,0.0,0.0,0.0,0.0,0.0,0.0,0.0,0.0,0.0,4.5938,4.704,4.6856,0.0,4.8251,4.8049,4.7902,4.7902,4.7627,4.7627,4.7902,4.7902,4.8031,4.8306,4.8306,4.8306,4.8306,4.8306,4.8306,4.8306,4.8306,4.8636,4.915,4.915,4.9646,5.038,5.038,5.0894,5.1499,5.0692,5.0894,5.1701,5.2527,5.2986,5.3298,5.383,5.3995,5.4142,5.495,5.5188,5.5244,5.55,5.5978,5.64,5.64,5.6785,5.7189,5.7189,5.7189,5.7189,5.7189,5.7189,5.7189,5.7189,5.7189,5.7189,5.7189,5.7189,5.6822,5.5757,5.6051,5.6492,5.6767,5.7262,5.7703,5.796,5.7997,5.7997,5.7997,5.7997,5.7997,5.7997,5.7997,5.7997,5.7997,5.7997,5.7997,5.7997,5.7997,5.7997,5.7997,5.7997,5.7997,5.7997,5.7997,5.7997,3.3375,3.2857,0.0,3.3634,3.3325,0.0,3.2552,0.0,0.0,0.0,0.0,0.0,0.0,0.0,0.0,0.0,0.0,0.0,0.0,4.0561,0.0,0.0,0.0,0.0,0.0,4.4488,4.5186,4.6581,4.6416,4.6856,0.0,4.8306,4.8306,4.8306,4.8306,4.8306,4.8306,4.8306,4.8306,4.8306,4.8306,4.8306,4.8306,4.8306,4.8306,4.8324,4.8636,4.9077,4.9609,4.9903,5.049,5.1224,5.1224,5.172,5.2325,5.1518,5.1738,5.2509,5.3023,5.3206,5.3335,5.4142,5.4399,5.4601,5.5702,5.6033,5.6088,5.6363,5.6822,5.7226,5.7226,5.7611,5.7997,5.7997,5.7997,5.7997,5.7997,5.7997,5.7997,5.7997,5.7997,5.7997,5.7997,5.7997,5.7648,5.6602,5.6895,5.7226,5.7226,5.7685,5.7997,5.7997,5.7997,5.7997,5.7997,5.7997,5.7997,5.7997,5.7997,5.7997,5.7997,5.7997,5.7997,5.7997,5.7997,5.7997,5.7997,5.7997,5.7997,5.7997,5.7997,5.7997]},{"header":{"parameterUnit":"m.s-1","parameterCategory":1,"la1":30.6,"la2":29.2853,"lo1":-89.7004,"lo2":-87.6739,"dy":0.0162,"dx":0.0183,"nx":112,"ny":82,"refTime":"2026-05-12T00:00:00:Z","depth":0,"parameterNumber":3,"parameterNumberName":"V-component_of_WINDS"},"data":[0.0,0.0,0.0,0.0,0.0,0.0,0.0,0.0,0.0,0.0,0.0,0.0,0.0,0.0,0.0,0.0,0.0,0.0,0.0,0.0,0.0,0.0,0.0,0.0,0.0,0.0,0.0,0.0,0.0,0.0,0.0,0.0,0.0,0.0,0.0,0.0,0.0,0.0,0.0,0.0,0.0,0.0,0.0,0.0,0.0,0.0,0.0,0.0,0.0,0.0,0.0,0.0,0.0,0.0,0.0,0.0,0.0,0.0,0.0,0.0,0.0,0.0,0.0,0.0,0.0,0.0,0.0,0.0,0.0,0.0,0.0,0.0,0.0,0.0,0.0,0.0,0.0,0.0,0.0,0.0,0.0,0.0,0.0,0.0,0.0,0.0,0.0,0.0,0.0,0.0,0.3934,0.3805,0.3663,0.3581,0.3581,0.3581,0.3639,0.3782,0.0,0.0,0.0,0.0,0.0,0.0,0.0,0.0,0.0,0.0,0.0,0.0,0.0,0.0,0.0,0.0,0.0,0.0,0.0,0.0,0.0,0.0,0.0,0.0,0.0,0.0,0.0,0.0,0.0,0.0,0.0,0.0,0.0,0.0,0.0,0.0,0.0,0.0,0.0,0.0,0.0,0.0,0.0,0.0,0.0,0.0,0.0,0.0,0.0,0.0,0.0,0.0,0.0,0.0,0.0,0.0,0.0,0.0,0.0,0.0,0.0,0.0,0.0,0.0,0.0,0.0,0.0,0.0,0.0,0.0,0.0,0.0,0.0,0.0,0.0,0.0,0.0,0.0,0.0,0.0,0.0,0.0,0.0,0.0,0.0,0.0,0.0,0.0,0.0,0.0,0.0,0.0,0.0,0.0,0.0,0.0,0.0,0.0,0.0,0.0,0.0,0.0,0.0,0.0,0.3819,0.3792,0.3663,0.3581,0.3581,0.3581,0.3639,0.3782,0.0,0.0,0.0,0.0,0.0,0.0,0.0,0.0,0.0,0.0,0.0,0.0,0.0,0.0,0.0,0.0,0.0,0.0,0.0,0.0,0.0,0.0,0.0,0.0,0.0,0.0,0.0,0.0,0.0,0.0,0.0,0.0,0.0,0.0,0.0,0.0,0.0,0.0,0.0,0.0,0.0,0.0,0.0,0.0,0.0,0.0,0.0,0.0,0.0,0.0,0.0,0.0,0.0,0.0,0.0,0.0,0.0,0.0,0.0,0.0,0.0,0.0,0.0,0.0,0.0,0.0,0.0,0.0,0.0,0.0,0.0,0.0,0.0,0.0,0.0,0.0,0.0,0.0,0.0,0.0,0.0,0.0,0.0,0.0,0.0,0.0,0.0,0.0,0.0,0.0,0.0,0.0,0.0,0.0,0.0,0.0,0.0,0.0,0.0,0.0,0.0,0.0,0.0,0.3792,0.3761,0.3687,0.3619,0.3581,0.3581,0.3581,0.3609,0.3673,0.3894,0.0,0.0,0.0,0.0,0.0,0.0,0.0,0.0,0.0,0.0,0.0,0.0,0.0,0.0,0.0,0.0,0.0,0.0,0.0,0.0,0.0,0.0,0.0,0.0,0.0,0.0,0.0,0.0,0.0,0.0,0.0,0.0,0.0,0.0,0.0,0.0,0.0,0.0,0.0,0.0,0.0,0.0,0.0,0.0,0.0,0.0,0.0,0.0,0.0,0.0,0.0,0.0,0.0,0.0,0.0,0.0,0.0,0.0,0.0,0.0,0.0,0.0,0.0,0.0,0.0,0.0,0.0,0.0,0.0,0.0,0.0,0.0,0.0,0.0,0.0,0.0,0.0,0.0,0.0,0.0,0.0,0.0,0.0,0.0,0.0,0.0,0.0,0.0,0.0,0.0,0.0,0.0,0.0,0.0,0.0,0.0,0.0,0.0,0.0,0.0,0.0,0.0,0.3771,0.3737,0.3595,0.3581,0.3581,0.3581,0.366,0.3664,0.3581,0.389,0.0,0.0,0.0,0.0,0.0,0.0,0.0,0.0,0.0,0.0,0.0,0.0,0.0,0.0,0.0,0.0,0.0,0.0,0.0,0.0,0.0,0.0,0.0,0.0,0.0,0.0,0.0,0.0,0.0,0.0,0.0,0.0,0.0,0.0,0.0,0.0,0.0,0.0,0.0,0.0,0.0,0.0,0.0,0.0,0.0,0.0,0.0,0.0,0.0,0.0,0.0,0.0,0.0,0.0,0.0,0.0,0.0,0.0,0.0,0.0,0.0,0.0,0.0,0.0,0.0,0.0,0.0,0.0,0.0,0.0,0.0,0.0,0.0,0.0,0.0,0.0,0.0,0.0,0.0,0.0,0.0,0.0,0.0,0.0,0.0,0.0,0.0,0.0,0.0,0.0,0.0,0.0,0.0,0.0,0.0,0.0,0.0,0.0,0.0,0.0,0.0,0.0,0.371,0.3737,0.3595,0.3581,0.3581,0.3581,0.3756,0.378,0.3633,0.3988,0.0,0.0,0.0,0.0,0.0,0.0,0.0,0.0,0.0,0.0,0.0,0.0,0.0,0.0,0.0,0.0,0.0,0.0,0.0,0.0,0.0,0.0,0.0,0.0,0.0,0.0,0.0,0.0,0.0,0.0,0.0,0.0,0.0,0.0,0.0,0.0,0.0,0.0,0.0,0.0,0.0,0.0,0.0,0.0,0.0,0.0,0.0,0.0,0.0,0.0,0.0,0.0,0.0,0.0,0.0,0.0,0.0,0.0,0.0,0.0,0.0,0.0,0.0,0.0,0.0,0.0,0.0,0.0,0.0,0.0,0.0,0.0,0.0,0.0,0.0,0.0,0.0,0.0,0.0,0.0,0.0,0.0,0.0,0.0,0.0,0.0,0.0,0.0,0.0,0.0,0.0,0.0,0.0,0.0,0.0,0.0,0.0,0.0,0.0,0.0,0.0,0.0,0.3704,0.3737,0.0,0.3581,0.3581,0.3581,0.3677,0.3688,0.3585,0.0,0.0,0.0,0.0,0.0,0.0,0.0,0.0,0.0,0.0,0.0,0.0,0.0,0.0,0.0,0.0,0.0,0.0,0.0,0.0,0.0,0.0,0.0,0.0,0.0,0.0,0.0,0.0,0.0,0.0,0.0,0.0,0.0,0.0,0.0,0.0,0.0,0.0,0.0,0.0,0.0,0.0,0.0,0.0,0.0,0.0,0.0,0.0,0.0,0.0,0.0,0.0,0.0,0.0,0.0,0.0,0.0,0.0,0.0,0.0,0.0,0.0,0.0,0.0,0.0,0.0,0.0,0.0,0.0,0.0,0.0,0.0,0.0,0.0,0.0,0.0,0.0,0.0,0.0,0.0,0.0,0.0,0.0,0.0,0.0,0.0,0.0,0.0,0.0,0.0,0.0,0.0,0.0,0.0,0.0,0.0,0.0,0.0,0.0,0.0,0.0,0.0,0.3605,0.3744,0.3792,0.0,0.3581,0.3581,0.3581,0.367,0.3677,0.3585,0.0,0.0,0.0,0.0,0.0,0.0,0.0,0.0,0.0,0.0,0.0,0.0,0.0,0.0,0.0,0.0,0.0,0.0,0.0,0.0,0.0,0.0,0.0,0.0,0.0,0.0,0.0,0.0,0.0,0.0,0.0,0.0,0.0,0.0,0.0,0.0,0.0,0.0,0.0,0.0,0.0,0.0,0.0,0.0,0.0,0.0,0.0,0.0,0.0,0.0,0.0,0.0,0.0,0.0,0.0,0.0,0.0,0.0,0.0,0.0,0.0,0.0,0.0,0.0,0.0,0.0,0.0,0.0,0.0,0.0,0.0,0.0,0.0,0.0,0.0,0.0,0.0,0.0,0.0,0.0,0.0,0.0,0.0,0.0,0.0,0.0,0.0,0.0,0.0,0.0,0.0,0.0,0.0,0.0,0.0,0.0,0.0,0.0,0.0,0.0,0.0,0.0,0.3622,0.3839,0.391,0.3612,0.3581,0.3581,0.3581,0.3767,0.3791,0.0,0.0,0.0,0.0,0.0,0.0,0.0,0.0,0.0,0.0,0.0,0.0,0.0,0.0,0.0,0.0,0.0,0.0,0.0,0.0,0.0,0.0,0.0,0.0,0.0,0.0,0.0,0.0,0.0,0.0,0.0,0.0,0.0,0.0,0.0,0.0,0.0,0.0,0.0,0.0,0.0,0.0,0.0,0.0,0.0,0.0,0.0,0.0,0.0,0.0,0.0,0.0,0.0,0.0,0.0,0.0,0.0,0.0,0.0,0.0,0.0,0.0,0.0,0.0,0.0,0.0,0.0,0.0,0.0,0.0,0.0,0.0,0.0,0.0,0.0,0.0,0.0,0.0,0.0,0.0,0.0,0.0,0.0,0.0,0.0,0.0,0.0,0.0,0.0,0.0,0.0,0.0,0.0,0.0,0.0,0.0,0.0,0.0,0.0,0.0,0.0,0.0,0.0,0.3754,0.3992,0.4016,0.3761,0.3642,0.3602,0.3588,0.3667,0.3677,0.3595,0.0,0.0,0.0,0.0,0.0,0.0,0.0,0.0,0.0,0.0,0.0,0.0,0.0,0.0,0.0,0.0,0.0,0.0,0.0,0.0,0.0,0.0,0.0,0.0,0.0,0.0,0.0,0.0,0.0,0.0,0.0,0.0,0.0,0.0,0.0,0.0,0.0,0.0,0.0,0.0,0.0,0.0,0.0,0.0,0.0,0.0,0.0,0.0,0.0,0.0,0.0,0.0,0.0,0.0,0.0,0.0,0.0,0.0,0.0,0.0,0.0,0.0,0.0,0.0,0.0,0.0,0.0,0.0,0.0,0.0,0.0,0.0,0.0,0.0,0.0,0.0,0.0,0.0,0.0,0.0,0.0,0.0,0.0,0.0,0.0,0.0,0.0,0.0,0.0,0.0,0.0,0.0,0.0,0.0,0.0,0.0,0.0,0.0,0.0,0.0,0.0,0.0,0.3859,0.406,0.408,0.3826,0.3748,0.3645,0.3592,0.3581,0.3585,0.3592,0.0,0.0,0.0,0.0,0.0,0.0,0.0,0.0,0.0,0.0,0.0,0.0,0.0,0.0,0.0,0.0,0.0,0.0,0.0,0.0,0.0,0.0,0.0,0.0,0.0,0.0,0.0,0.0,0.0,0.0,0.0,0.0,0.0,0.0,0.0,0.0,0.0,0.0,0.0,0.0,0.0,0.0,0.0,0.0,0.0,0.0,0.0,0.0,0.0,0.0,0.0,0.0,0.0,0.0,0.0,0.0,0.0,0.0,0.0,0.0,0.0,0.0,0.0,0.0,0.0,0.0,0.0,0.0,0.0,0.0,0.0,0.0,0.0,0.0,0.0,0.0,0.0,0.0,0.0,0.0,0.0,0.0,0.0,0.0,0.0,0.0,0.0,0.0,0.0,0.0,0.0,0.0,0.0,0.0,0.0,0.0,0.0,0.0,0.0,0.0,0.0,0.0,0.404,0.4188,0.4206,0.3866,0.3822,0.3754,0.3615,0.3588,0.3581,0.3585,0.0,0.0,0.0,0.0,0.0,0.0,0.0,0.0,0.0,0.0,0.0,0.0,0.0,0.0,0.0,0.0,0.0,0.0,0.0,0.0,0.0,0.0,0.0,0.0,0.0,0.0,0.0,0.0,0.0,0.0,0.0,0.0,0.0,0.0,0.0,0.0,0.0,0.0,0.0,0.0,0.0,0.0,0.0,0.0,0.0,0.0,0.0,0.0,0.0,0.0,0.0,0.0,0.0,0.0,0.0,0.0,0.0,0.0,0.0,0.0,0.2712,0.0,0.0,0.0,0.0,0.0,0.0,0.0,0.0,0.0,0.0,0.0,0.0,0.0,0.0,0.0,0.0,0.0,0.0,0.0,0.0,0.0,0.0,0.0,0.0,0.0,0.0,0.0,0.0,0.0,0.0,0.0,0.0,0.0,0.0,0.0,0.0,0.0,0.0,0.0,0.0,0.0,0.5043,0.5141,0.4927,0.4168,0.4043,0.3869,0.3641,0.3608,0.3588,0.3605,0.3598,0.0,0.0,0.0,0.0,0.0,0.0,0.0,0.0,0.0,0.0,0.0,0.0,0.0,0.0,0.0,0.0,0.0,0.0,0.0,0.0,0.0,0.0,0.0,0.0,0.0,0.0,0.0,0.0,0.0,0.0,0.0,0.0,0.0,0.0,0.0,0.0,0.0,0.0,0.0,0.0,0.0,0.0,0.0,0.0,0.0,0.0,0.0,0.0,0.0,0.0,0.0,0.0,0.0,0.0,0.0,0.0,0.0,0.0,0.0,0.0,0.2712,0.0,0.0,0.0,0.0,0.0,0.0,0.0,0.0,0.0,0.0,0.0,0.0,0.0,0.0,0.0,0.0,0.0,0.0,0.0,0.0,0.0,0.0,0.0,0.0,0.0,0.0,0.0,0.0,0.0,0.0,0.0,0.0,0.0,0.0,0.0,0.0,0.0,0.0,0.0,0.0,0.5182,0.5063,0.4804,0.4161,0.4066,0.3889,0.3638,0.3587,0.3087,0.1928,0.2968,0.0,0.0,0.0,0.0,0.0,0.0,0.0,0.0,0.0,0.0,0.0,0.0,0.0,0.0,0.0,0.0,0.0,0.0,0.0,0.0,0.0,0.0,0.0,0.0,0.0,0.0,0.0,0.0,0.0,0.0,0.0,0.0,0.0,0.0,0.0,0.0,0.0,0.0,0.0,0.0,0.0,0.0,0.0,0.0,0.0,0.0,0.0,0.0,0.0,0.0,0.0,0.0,0.0,0.292,0.2985,0.2947,0.2988,0.2971,0.2903,0.2801,0.2727,0.2712,0.2712,0.0,0.0,0.0,0.0,0.0,0.0,0.0,0.0,0.0,0.0,0.0,0.0,0.0,0.0,0.0,0.0,0.0,0.0,0.0,0.0,0.0,0.0,0.0,0.0,0.5394,0.5308,0.4826,0.0,0.0,0.0,0.0,0.0,0.0,0.0,0.0,0.0,0.0,0.0,0.524,0.4892,0.4527,0.4124,0.405,0.3927,0.3693,0.3433,0.2366,0.0134,0.1884,0.2516,0.0,0.0,0.0,0.0,0.0,0.0,0.0,0.0,0.0,0.0,0.0,0.0,0.0,0.0,0.0,0.0,0.0,0.0,0.0,0.0,0.0,0.0,0.0,0.0,0.0,0.0,0.0,0.0,0.0,0.0,0.0,0.0,0.2754,0.2932,0.0,0.0,0.0,0.0,0.0,0.0,0.0,0.0,0.0,0.0,0.0,0.0,0.0,0.2526,0.2526,0.2818,0.2918,0.2883,0.3032,0.31,0.3093,0.31,0.3032,0.2913,0.3018,0.0,0.2712,0.2712,0.0,0.0,0.0,0.0,0.0,0.0,0.0,0.0,0.0,0.0,0.0,0.0,0.0,0.0,0.0,0.0,0.0,0.0,0.0,0.0,0.0,0.0,0.5216,0.526,0.5701,0.605,0.0,0.6007,0.6093,0.6179,0.6562,0.0,0.0,0.0,0.0,0.0,0.0,0.0,0.64,0.5788,0.5148,0.4518,0.4175,0.3959,0.388,0.2748,0.1472,0.0089,0.0314,0.0404,0.0223,0.1383,0.0,0.0,0.0,0.0,0.0,0.0,0.0,0.0,0.0,0.0,0.0,0.0,0.0,0.0,0.0,0.0,0.0,0.0,0.0,0.0,0.0,0.0,0.0,0.0,0.0,0.0,0.0,0.0,0.0,0.2456,0.272,0.2809,0.2761,0.2747,0.0,0.0,0.0,0.0,0.0,0.0,0.0,0.0,0.0,0.2815,0.2815,0.2856,0.2934,0.2998,0.3029,0.3029,0.3139,0.3209,0.3209,0.3209,0.3175,0.3115,0.3092,0.3046,0.293,0.293,0.2883,0.2808,0.0,0.0,0.0,0.0,0.3066,0.3154,0.3395,0.338,0.3306,0.3306,0.0,0.0,0.0,0.0,0.0,0.0,0.0,0.0,0.0,0.0,0.5873,0.6167,0.6465,0.6641,0.6641,0.6641,0.6641,0.0,0.6852,0.6979,0.6979,0.0,0.0,0.0,0.0,0.6935,0.642,0.5851,0.5179,0.4402,0.4226,0.403,0.3772,0.3169,0.2018,0.0134,0.0,0.0,0.0,0.1162,0.2368,0.0,0.0,0.0,0.0,0.0,0.0,0.0,0.0,0.0,0.0,0.0,0.0,0.0,0.0,0.0,0.0,0.0,0.0,0.0,0.0,0.0,0.0,0.0,0.0,0.0,0.0,0.0,0.0,0.2693,0.269,0.2716,0.2712,0.2712,0.0,0.0,0.0,0.0,0.0,0.0,0.2751,0.2744,0.2808,0.2957,0.2964,0.3012,0.3082,0.3118,0.3139,0.3142,0.3293,0.3366,0.3366,0.3366,0.3343,0.3303,0.3229,0.3215,0.3139,0.3098,0.3059,0.2964,0.2964,0.2964,0.2974,0.3083,0.3105,0.3172,0.3442,0.3473,0.3366,0.3366,0.3489,0.3545,0.3468,0.0,0.0,0.0,0.0,0.5825,0.6301,0.6392,0.652,0.6894,0.6979,0.6979,0.6979,0.6979,0.6979,0.0,0.7088,0.7134,0.7134,0.0,0.0,0.0,0.0,0.7053,0.6374,0.5828,0.5171,0.4367,0.4217,0.4055,0.3791,0.3665,0.2679,0.0591,0.018,0.0,0.0,0.1163,0.2368,0.3595,0.0,0.0,0.0,0.0,0.0,0.0,0.0,0.0,0.0,0.0,0.0,0.0,0.0,0.0,0.0,0.0,0.0,0.0,0.0,0.0,0.0,0.0,0.0,0.0,0.0,0.0,0.0,0.0,0.0,0.2712,0.2712,0.0,0.0,0.0,0.0,0.2716,0.2716,0.2747,0.2893,0.29,0.2961,0.3103,0.3072,0.3075,0.3082,0.3226,0.3296,0.3299,0.3493,0.3568,0.3568,0.3568,0.3487,0.3313,0.3497,0.3473,0.3286,0.3142,0.3078,0.3072,0.3072,0.3072,0.311,0.3082,0.3172,0.3299,0.3313,0.3453,0.3568,0.3568,0.3909,0.4331,0.4322,0.5148,0.0,0.0,0.6507,0.6937,0.6937,0.6937,0.6979,0.6979,0.6979,0.6979,0.6979,0.6979,0.6979,0.0,0.7248,0.7486,0.7486,0.0,0.8003,0.829,0.774,0.712,0.6651,0.5973,0.5214,0.456,0.4331,0.419,0.4174,0.3831,0.3047,0.1798,0.0641,0.0,0.0,0.1163,0.2368,0.3595,0.3585,0.0,0.0,0.0,0.0,0.0,0.0,0.0,0.0,0.0,0.0,0.0,0.0,0.0,0.0,0.0,0.0,0.0,0.0,0.0,0.0,0.0,0.0,0.0,0.0,0.0,0.0,0.0,0.0,0.2712,0.2712,0.0,0.2712,0.2712,0.2712,0.2712,0.2712,0.2747,0.29,0.291,0.2981,0.3219,0.3229,0.3276,0.3415,0.347,0.3662,0.3999,0.4061,0.4136,0.4136,0.4136,0.3891,0.35,0.3558,0.3548,0.3493,0.3439,0.3358,0.3229,0.3229,0.3229,0.3229,0.3229,0.3323,0.3497,0.3497,0.3534,0.3667,0.4008,0.4264,0.4565,0.5303,0.5873,0.6264,0.6598,0.6859,0.6979,0.6979,0.6979,0.6979,0.6979,0.6979,0.6979,0.6979,0.6979,0.6979,0.6979,0.7261,0.7513,0.7513,0.7882,0.825,0.8357,0.8319,0.7887,0.674,0.6367,0.5769,0.4625,0.4416,0.4348,0.4204,0.4165,0.3518,0.1905,0.0673,0.0,0.0,0.1888,0.3141,0.3598,0.3585,0.3581,0.0,0.0,0.0,0.0,0.0,0.0,0.0,0.0,0.0,0.0,0.0,0.0,0.0,0.0,0.0,0.0,0.0,0.0,0.0,0.0,0.0,0.0,0.0,0.0,0.0,0.0,0.2841,0.2712,0.2712,0.2712,0.2712,0.2727,0.2757,0.2757,0.2801,0.2896,0.3011,0.3018,0.3132,0.3376,0.3383,0.3559,0.388,0.388,0.4049,0.4387,0.4387,0.4303,0.4136,0.4136,0.3921,0.3581,0.3581,0.3581,0.3581,0.3581,0.352,0.3383,0.3383,0.3383,0.3425,0.3588,0.3741,0.388,0.41,0.4188,0.4228,0.457,0.4826,0.5173,0.5959,0.6307,0.6562,0.6894,0.6979,0.6979,0.6979,0.6979,0.6979,0.6979,0.6979,0.6979,0.6979,0.6979,0.6979,0.6979,0.7348,0.7622,0.7622,0.8123,0.8517,0.8517,0.8684,0.8374,0.7128,0.675,0.615,0.4952,0.4625,0.4423,0.4328,0.44,0.3758,0.2027,0.07,0.0198,0.061,0.2133,0.297,0.2976,0.3382,0.3554,0.35,0.0,0.0,0.0,0.0,0.0,0.0,0.0,0.0,0.0,0.0,0.0,0.0,0.0,0.0,0.0,0.0,0.0,0.0,0.0,0.0,0.0,0.0,0.0,0.336,0.329,0.3163,0.2746,0.2712,0.2716,0.2719,0.2822,0.291,0.2917,0.3042,0.3149,0.3299,0.3347,0.3419,0.3663,0.3667,0.3924,0.4434,0.443,0.443,0.4478,0.4478,0.418,0.3667,0.3667,0.3667,0.3667,0.3667,0.3667,0.3667,0.3667,0.3622,0.3622,0.3626,0.3626,0.3667,0.4176,0.4391,0.4478,0.5087,0.5303,0.526,0.5308,0.5744,0.6184,0.6221,0.6598,0.6979,0.6979,0.6979,0.6979,0.6979,0.6979,0.6979,0.6979,0.6979,0.6979,0.6979,0.6985,0.7034,0.7034,0.7483,0.7895,0.7882,0.8417,0.8804,0.8804,0.8804,0.0,0.7777,0.7074,0.6312,0.5597,0.4893,0.4519,0.4519,0.4513,0.3838,0.2278,0.0928,0.066,0.1827,0.19,0.1856,0.1851,0.3013,0.3503,0.3306,0.0,0.0,0.0,0.0,0.0,0.0,0.0,0.0,0.0,0.0,0.0,0.0,0.0,0.0,0.0,0.0,0.0,0.0,0.0,0.0,0.0,0.473,0.4564,0.3453,0.329,0.3163,0.2746,0.2712,0.2723,0.2835,0.2883,0.2951,0.3056,0.3096,0.3342,0.3914,0.3963,0.4211,0.4826,0.4831,0.4918,0.5043,0.5043,0.5265,0.5701,0.5701,0.5615,0.5486,0.5486,0.5226,0.4831,0.4831,0.4831,0.4831,0.4831,0.457,0.4136,0.3751,0.3836,0.4132,0.3921,0.384,0.3968,0.4961,0.5,0.4783,0.5658,0.605,0.6264,0.6647,0.6894,0.6979,0.6979,0.6979,0.6979,0.6979,0.6979,0.6979,0.6979,0.6979,0.6979,0.6979,0.7194,0.7341,0.7341,0.7836,0.8183,0.7922,0.8417,0.8804,0.8804,0.8804,0.0,0.7777,0.7074,0.6312,0.5597,0.4893,0.4519,0.4519,0.4494,0.3821,0.2281,0.2866,0.3428,0.3723,0.376,0.3639,0.3331,0.3517,0.3503,0.0,0.0,0.0,0.0,0.0,0.0,0.0,0.0,0.0,0.0,0.0,0.0,0.0,0.0,0.0,0.0,0.0,0.0,0.0,0.0,0.0,0.0,0.5197,0.4997,0.4166,0.3775,0.3429,0.3003,0.2812,0.274,0.2896,0.318,0.3433,0.3558,0.383,0.4205,0.4652,0.4661,0.4838,0.5303,0.5043,0.5173,0.5658,0.5437,0.561,0.6184,0.6184,0.605,0.583,0.583,0.548,0.4957,0.5173,0.5173,0.4913,0.4913,0.487,0.0,0.0,0.0,0.0,0.0,0.4618,0.5135,0.5776,0.5771,0.5599,0.6295,0.652,0.6598,0.6894,0.6979,0.6979,0.6979,0.6979,0.6979,0.6979,0.6979,0.6979,0.6979,0.6979,0.7054,0.7181,0.7341,0.7553,0.7635,0.8043,0.0,0.8143,0.8504,0.8804,0.8804,0.8804,0.8533,0.7777,0.7074,0.6312,0.5597,0.4957,0.4587,0.4522,0.4475,0.0,0.0,0.0,0.3767,0.4285,0.4247,0.0,0.0,0.0,0.0,0.0,0.0,0.0,0.0,0.5569,0.6162,0.0,0.0,0.0,0.0,0.0,0.0,0.0,0.0,0.0,0.0,0.0,0.0,0.0,0.0,0.0,0.0,0.5578,0.5366,0.5242,0.4576,0.3953,0.3425,0.3068,0.2913,0.3057,0.368,0.413,0.4309,0.4942,0.5346,0.5394,0.0,0.0,0.0,0.0,0.5216,0.6264,0.5739,0.5782,0.6307,0.6307,0.6002,0.5475,0.5475,0.5216,0.4735,0.5285,0.5236,0.4691,0.4714,0.5019,0.5351,0.4826,0.4268,0.3928,0.5091,0.6033,0.681,0.6937,0.0,0.0,0.6979,0.6979,0.6979,0.6979,0.6979,0.6979,0.6979,0.6979,0.6979,0.6979,0.6979,0.6979,0.6979,0.7047,0.7141,0.7453,0.7567,0.7649,0.7929,0.8216,0.8424,0.8424,0.8637,0.8818,0.8851,0.8858,0.8592,0.7859,0.7155,0.6385,0.5661,0.0,0.0,0.4556,0.4505,0.4521,0.4487,0.3188,0.2941,0.3986,0.3949,0.38,0.3609,0.3588,0.3581,0.3626,0.4767,0.5343,0.5338,0.582,0.6379,0.0,0.0,0.0,0.0,0.0,0.0,0.0,0.0,0.0,0.0,0.0,0.0,0.0,0.0,0.0,0.6606,0.6335,0.6005,0.5986,0.5357,0.4632,0.3943,0.3793,0.3875,0.4238,0.4385,0.4646,0.5042,0.524,0.5524,0.6002,0.6007,0.6215,0.6677,0.6543,0.6592,0.6852,0.6719,0.6719,0.6852,0.0,0.0,0.6677,0.6677,0.6592,0.6513,0.6918,0.6843,0.652,0.6787,0.653,0.6007,0.5916,0.5486,0.5091,0.6246,0.6252,0.5776,0.6677,0.6732,0.6435,0.6852,0.6979,0.6979,0.6979,0.6979,0.0,0.6979,0.6979,0.6979,0.6979,0.6979,0.6979,0.6979,0.7208,0.7439,0.75,0.7896,0.8216,0.8277,0.8524,0.8724,0.8724,0.8771,0.8884,0.9064,0.9103,0.8899,0.8362,0.7628,0.6817,0.6003,0.5269,0.4813,0.466,0.4674,0.4633,0.4487,0.4196,0.4072,0.418,0.4043,0.3889,0.3754,0.3639,0.3581,0.3626,0.4947,0.5616,0.5651,0.6428,0.7009,0.0,0.0,0.0,0.0,0.0,0.0,0.0,0.0,0.0,0.0,0.0,0.55,0.6273,0.0,0.6841,0.7159,0.6863,0.6569,0.6429,0.5972,0.5418,0.4824,0.4427,0.4362,0.4796,0.5075,0.5385,0.5711,0.5996,0.6295,0.6598,0.6605,0.6725,0.6979,0.6866,0.6937,0.7241,0.7122,0.7199,0.743,0.743,0.743,0.743,0.743,0.7295,0.707,0.7491,0.7472,0.707,0.7544,0.7288,0.6657,0.6935,0.6624,0.6024,0.6777,0.6877,0.6702,0.7251,0.7257,0.707,0.734,0.743,0.743,0.743,0.743,0.743,0.743,0.743,0.743,0.743,0.743,0.743,0.743,0.7589,0.7742,0.7936,0.8212,0.8417,0.8564,0.8824,0.9025,0.9025,0.9145,0.9245,0.9183,0.9365,0.9042,0.7988,0.7527,0.6818,0.5574,0.5164,0.4965,0.4816,0.4735,0.4629,0.4487,0.4473,0.4375,0.4055,0.409,0.4026,0.3795,0.3795,0.3799,0.3799,0.5189,0.585,0.5898,0.6939,0.7555,0.0,0.0,0.0,0.0,0.0,0.0,0.0,0.4894,0.4979,0.5232,0.5753,0.6356,0.6903,0.7467,0.778,0.7548,0.7304,0.7077,0.672,0.6465,0.6147,0.5812,0.517,0.4908,0.5369,0.5779,0.6141,0.6331,0.6768,0.7047,0.7101,0.7108,0.7134,0.7151,0.6981,0.7101,0.7555,0.7367,0.7487,0.7882,0.7882,0.7882,0.7882,0.7882,0.7685,0.7296,0.7732,0.7669,0.7364,0.7758,0.7637,0.7296,0.7798,0.7579,0.6969,0.7181,0.7535,0.7882,0.7882,0.7882,0.7882,0.7882,0.7882,0.7882,0.7882,0.7882,0.7882,0.7882,0.7882,0.7882,0.7882,0.7882,0.7882,0.7882,0.7928,0.8083,0.8323,0.8464,0.8611,0.8844,0.9125,0.9325,0.9325,0.9573,0.9686,0.9389,0.9613,0.9185,0.7657,0.7421,0.682,0.5188,0.5108,0.5118,0.4972,0.4796,0.464,0.4528,0.4539,0.4345,0.3986,0.4137,0.4066,0.3839,0.3958,0.4069,0.4214,0.548,0.6139,0.6335,0.7523,0.807,0.3793,0.4538,0.5151,0.5214,0.5214,0.5239,0.0,0.523,0.5449,0.6184,0.6388,0.6794,0.7825,0.809,0.8073,0.7881,0.7829,0.7602,0.7051,0.672,0.664,0.6811,0.6324,0.612,0.6396,0.6468,0.6626,0.6875,0.6979,0.7134,0.7446,0.7459,0.7542,0.7775,0.7768,0.7781,0.7876,0.7814,0.7834,0.7882,0.7882,0.7882,0.7882,0.7882,0.7882,0.7834,0.7882,0.8028,0.8254,0.7988,0.7882,0.7861,0.8223,0.8303,0.8144,0.7913,0.7834,0.7882,0.7882,0.7882,0.7882,0.7882,0.7882,0.7882,0.7882,0.7882,0.7882,0.7882,0.7882,0.7882,0.7882,0.7882,0.7882,0.7882,0.8136,0.8337,0.837,0.8778,0.9097,0.913,0.9432,0.9633,0.9633,0.9873,1.006,1.0027,1.0047,0.9536,0.8116,0.795,0.7242,0.5505,0.5325,0.5274,0.5121,0.485,0.4684,0.4667,0.4594,0.4392,0.4177,0.4187,0.4117,0.3995,0.4012,0.4313,0.4992,0.5916,0.6676,0.7345,0.8268,0.8571,0.457,0.5023,0.5309,0.5309,0.5309,0.5309,0.5309,0.5411,0.579,0.6663,0.6939,0.7423,0.8783,0.8729,0.8462,0.0,0.8118,0.7704,0.7063,0.6914,0.6887,0.7007,0.6961,0.6935,0.6847,0.684,0.6894,0.7014,0.7181,0.7335,0.7506,0.7635,0.7796,0.7882,0.8096,0.819,0.819,0.8357,0.8444,0.8444,0.8444,0.8444,0.8444,0.8444,0.8444,0.8444,0.8444,0.851,0.8617,0.849,0.8444,0.845,0.8577,0.8624,0.8611,0.8484,0.8444,0.8444,0.8444,0.8444,0.8444,0.8444,0.8444,0.8444,0.8444,0.8444,0.8444,0.8444,0.8444,0.8444,0.8444,0.8444,0.8484,0.8599,0.8784,0.8925,0.9098,0.9325,0.9499,0.9499,0.9733,0.9933,0.9933,1.018,1.0374,1.0374,1.0374,0.997,0.893,0.8291,0.7312,0.5557,0.5428,0.5298,0.5142,0.5016,0.4874,0.4701,0.4629,0.449,0.4204,0.4328,0.4304,0.4103,0.4236,0.4643,0.5314,0.6135,0.6871,0.7617,0.859,0.8991,0.5087,0.5309,0.5309,0.5309,0.5309,0.5309,0.5309,0.5504,0.5998,0.7089,0.746,0.8024,0.9329,0.9202,0.8837,0.8521,0.8152,0.7734,0.722,0.7141,0.7174,0.7218,0.7462,0.7508,0.7251,0.7231,0.7231,0.7231,0.7475,0.7629,0.7762,0.7929,0.809,0.817,0.8383,0.849,0.849,0.8704,0.8804,0.8804,0.8804,0.8804,0.8804,0.8804,0.8804,0.8804,0.8804,0.8804,0.8804,0.8804,0.8804,0.8804,0.8804,0.8804,0.8818,0.8898,0.8878,0.8804,0.8804,0.8804,0.8804,0.8804,0.8804,0.8804,0.8804,0.8804,0.8804,0.8804,0.8804,0.8824,0.8905,0.8925,0.8998,0.9292,0.9359,0.9419,0.9633,0.9746,0.98,0.98,1.004,1.0241,1.0241,1.0414,1.0624,1.0624,1.0624,1.0301,0.9402,0.835,0.7051,0.5557,0.5428,0.5315,0.5203,0.5155,0.5023,0.4769,0.4714,0.4575,0.4317,0.4406,0.4412,0.4307,0.4409,0.4952,0.5819,0.6425,0.7225,0.8105,0.8942,0.9359,0.5182,0.5309,0.5309,0.5309,0.5309,0.5309,0.5309,0.5504,0.6103,0.7503,0.7985,0.8468,0.9349,0.9469,0.9119,0.8077,0.7912,0.7814,0.7504,0.7493,0.7569,0.7822,0.7862,0.7868,0.0,0.7855,0.7855,0.7855,0.7862,0.8043,0.833,0.8357,0.849,0.8771,0.8791,0.8791,0.8791,0.8804,0.8804,0.8804,0.8804,0.8804,0.8804,0.8804,0.8804,0.8804,0.8804,0.8804,0.8804,0.8804,0.8804,0.8804,0.8804,0.8804,0.8838,0.907,0.9051,0.8804,0.8804,0.8804,0.8804,0.8804,0.8804,0.8804,0.8804,0.8804,0.8804,0.8804,0.8804,0.8871,0.9097,0.917,0.925,0.9599,0.9666,0.9673,0.9679,0.9907,1.01,1.01,1.0341,1.0611,1.0611,1.0618,1.0624,1.0624,1.0624,1.0301,0.9402,0.7832,0.64,0.5491,0.5428,0.5425,0.5422,0.5216,0.5067,0.4921,0.4772,0.4619,0.4519,0.4515,0.4515,0.4512,0.4515,0.5171,0.6588,0.6916,0.7813,0.9176,0.9532,0.9666,0.5182,0.5309,0.5309,0.5309,0.5309,0.5363,0.5524,0.5798,0.6304,0.7347,0.7452,0.7713,0.8772,0.8532,0.8177,0.8149,0.8032,0.7845,0.7756,0.7776,0.7816,0.7875,0.8103,0.0,0.0,0.0,0.0,0.7882,0.811,0.827,0.837,0.8557,0.8704,0.8804,0.8804,0.8804,0.8804,0.8804,0.8905,0.9044,0.9292,0.9185,0.8824,0.9212,0.9279,0.905,0.9305,0.9385,0.9385,0.9385,0.9385,0.9385,0.9385,0.9385,0.9399,0.9499,0.9472,0.9385,0.9385,0.9385,0.9385,0.9385,0.9385,0.9385,0.9385,0.9252,0.9044,0.9044,0.9044,0.9064,0.9157,0.9385,0.9606,0.99,0.9973,1.0027,1.0221,1.0341,1.0414,1.0414,1.0488,1.0624,1.0624,1.0624,1.0624,1.0624,1.0624,1.0301,0.9402,0.8285,0.7242,0.6334,0.5749,0.5428,0.5428,0.5315,0.522,0.5067,0.5009,0.487,0.4623,0.4711,0.467,0.4522,0.5224,0.6032,0.6921,0.772,0.8595,0.9546,0.9833,0.9973,0.5783,0.5911,0.5911,0.5911,0.5758,0.5672,0.5832,0.6135,0.655,0.7264,0.7375,0.7607,0.8513,0.821,0.7914,0.8224,0.8098,0.7922,0.8076,0.809,0.813,0.823,0.841,0.853,0.0,0.0,0.0,0.8346,0.8477,0.8624,0.8831,0.8818,0.8905,0.9112,0.9018,0.9011,0.9118,0.9118,0.9212,0.9399,0.9593,0.9486,0.9132,0.9512,0.9579,0.9412,0.9599,0.9686,0.9686,0.9686,0.9686,0.9686,0.9686,0.9686,0.9693,0.98,0.984,0.9826,0.9719,0.9686,0.9686,0.9686,0.9686,0.9686,0.9686,0.9552,0.9399,0.9399,0.9399,0.9426,0.9526,0.9693,0.9913,1.0207,1.0274,1.0327,1.0521,1.0624,1.0624,1.0624,1.0624,1.0624,1.0624,1.0624,1.0624,1.0624,1.0624,1.0301,0.9402,0.8549,0.7632,0.6785,0.5947,0.5428,0.5428,0.5428,0.5294,0.5142,0.5131,0.5023,0.4782,0.4867,0.4826,0.4629,0.5691,0.652,0.7145,0.8204,0.911,0.9846,1.0247,1.0428,0.6914,0.7006,0.7042,0.7006,0.6615,0.627,0.6283,0.6463,0.6744,0.7331,0.7639,0.7995,0.0,0.8446,0.8298,0.8298,0.8087,0.8076,0.8357,0.8397,0.8497,0.8778,0.8824,0.8831,0.0,0.0,0.0,0.923,0.0,0.9098,0.9653,0.9152,0.9105,0.9666,0.9412,0.9399,0.9679,0.9699,0.9699,0.9686,0.9713,0.9713,0.9686,0.9719,0.9719,0.9706,0.9719,0.9726,0.9726,0.9726,0.9726,0.9726,0.9726,0.9726,0.9766,1.004,1.014,1.01,0.9826,0.9726,0.9726,0.9726,0.9726,0.9726,0.9726,0.9719,0.9706,0.9706,0.9706,0.9773,1.006,1.014,1.0214,1.0528,1.0658,1.0651,1.0665,1.0665,1.0665,1.0665,1.0665,1.0665,1.0665,1.0665,1.0665,1.0651,1.0645,1.0321,0.9466,0.8549,0.7697,0.685,0.5954,0.5435,0.5428,0.5435,0.5308,0.5152,0.5142,0.5077,0.4935,0.4935,0.4996,0.4979,0.5884,0.6722,0.7369,0.8526,0.9475,1.0174,1.0748,1.1015,0.6975,0.7293,0.7515,0.7114,0.6898,0.6965,0.7551,0.711,0.6813,0.7603,0.7473,0.7273,0.7391,0.7767,0.7996,0.7996,0.8349,0.8611,0.8691,0.8697,0.8724,0.8798,0.8998,0.907,0.907,0.9399,0.0,0.0,0.9626,0.9526,0.9679,0.9539,0.9532,0.9679,0.9613,0.9606,0.9686,0.99,0.99,0.9686,1.0127,1.0167,0.9699,1.0201,1.0214,1.002,1.0241,1.0403,1.0403,1.0403,1.0403,1.0403,1.0403,1.0403,1.0409,1.0421,1.0448,1.0434,1.0361,1.0403,1.0403,1.0403,1.0403,1.0403,1.0403,1.018,1.0007,1.0007,1.0007,1.0074,1.0374,1.0448,1.0575,1.1082,1.1042,1.0942,1.1156,1.1209,1.1209,1.1209,1.1209,1.1209,1.1209,1.1209,1.1129,1.0915,1.0882,1.0737,1.0327,0.8935,0.7897,0.7697,0.6392,0.5488,0.5439,0.5467,0.5467,0.5311,0.5304,0.5237,0.5084,0.5815,0.614,0.5872,0.7628,0.8533,0.8586,0.9869,1.0574,1.0775,1.1142,1.1316,0.7789,0.7951,0.811,0.7829,0.7372,0.7107,0.7566,0.7218,0.6909,0.7412,0.7341,0.7174,0.7047,0.7629,0.8083,0.7902,0.8424,0.8851,0.8978,0.8884,0.8905,0.9158,0.9218,0.9236,0.9419,0.9699,0.994,0.0,0.9846,0.98,1.0053,0.982,0.98,1.006,0.994,0.994,1.0067,1.0227,1.0227,1.0074,1.0463,1.045,1.0141,1.0477,1.053,1.0321,0.0,1.0624,1.0631,1.0759,1.0755,1.0755,1.0755,1.0828,1.0922,1.0795,1.0828,1.0942,1.0942,1.0942,1.0902,1.0705,1.0712,1.0728,1.0665,1.0621,1.0668,1.0534,1.0595,1.0728,1.0895,1.0942,1.1022,1.1349,1.1303,1.1229,1.139,1.1423,1.1423,1.1423,1.1423,1.1423,1.1423,1.1423,1.1369,1.1209,1.1182,1.1122,1.0962,0.9634,0.8766,0.8766,0.7291,0.6306,0.6142,0.5869,0.562,0.5471,0.5518,0.5688,0.5855,0.6461,0.6876,0.7166,0.87,0.9486,0.9515,1.0618,1.1182,1.1189,1.1483,1.1623,0.8673,0.8675,0.8756,0.8643,0.7889,0.7231,0.7308,0.7231,0.7147,0.7231,0.7392,0.7432,0.7128,0.7789,0.8303,0.8083,0.851,0.8965,0.9203,0.9085,0.9112,0.9619,0.9492,0.9459,0.9713,1.0007,1.0174,1.0174,0.994,1.0027,1.0598,1.008,1.0033,1.0611,1.0307,1.0301,1.0618,1.0624,1.0624,1.0624,1.0624,1.0624,1.0624,1.0624,1.0645,1.0678,1.0678,1.0641,1.0695,1.0949,1.1049,1.1049,1.1049,1.1209,1.1396,1.1142,1.1209,1.1423,1.1423,1.1423,1.1336,1.0795,1.0815,1.0995,1.0701,1.0995,1.1369,1.1122,1.1229,1.143,1.147,1.1456,1.1443,1.1523,1.151,1.1496,1.1536,1.1543,1.1543,1.1543,1.1543,1.1543,1.1543,1.1543,1.153,1.149,1.1483,1.147,1.143,1.0454,0.977,0.977,0.8394,0.7447,0.7305,0.6643,0.6182,0.6007,0.6142,0.6514,0.7117,0.7245,0.7723,0.8602,0.9489,1.0018,1.0245,1.1043,1.1483,1.149,1.179,1.1924,0.8177,0.8683,0.9159,0.8275,0.8234,0.8504,0.895,0.839,0.7863,0.8308,0.7903,0.7493,0.7446,0.7929,0.8437,0.8624,0.8945,0.9265,0.9566,0.9566,0.9573,0.9673,0.9846,0.9987,1.0033,1.0307,0.0,0.0,1.0497,1.0517,1.0618,1.053,1.0517,1.0618,1.0571,1.0571,1.0624,1.0624,1.0624,1.0624,1.0624,1.0624,1.0624,1.0624,1.0688,1.0915,1.0915,0.0,1.1276,1.1329,1.1349,1.1349,1.1349,1.1383,1.1416,1.1369,1.1383,1.1423,1.1423,1.1423,1.1369,1.1029,1.1116,1.1296,1.1009,1.1156,1.1416,1.1363,1.1383,1.1483,1.173,1.161,1.155,1.2037,1.1971,1.1857,1.2098,1.2151,1.2151,1.2151,1.2151,1.2151,1.2151,1.2151,1.2071,1.183,1.179,1.1703,1.1456,1.0617,1.0036,1.0036,0.9269,0.8593,0.819,0.8382,0.8369,0.7909,0.8146,0.8318,0.8488,0.9189,0.9616,0.9823,1.0654,1.1096,1.1149,1.16,1.179,1.1797,1.2091,1.2225,0.8082,0.8275,0.8561,0.8036,0.7863,0.7889,0.8129,0.7807,0.7531,0.7987,0.7898,0.7709,0.7709,0.8196,0.8597,0.8584,0.8824,0.9172,0.9619,0.9552,0.9626,1.0087,1.0127,1.0174,1.0327,1.0537,1.0624,1.0624,1.0624,1.0624,1.0624,1.0624,1.0624,1.0624,1.0624,1.0698,1.0782,1.0698,1.0698,1.0782,1.0782,1.0708,1.0631,1.0875,1.1002,1.1002,1.1149,1.1296,1.1436,1.159,1.1657,1.1657,1.1657,1.175,1.1864,1.171,1.175,1.1884,1.1884,1.1884,1.1837,1.1543,1.1543,1.1597,1.1309,1.153,1.185,1.1697,1.1764,1.1917,1.2058,1.1991,1.1951,1.2238,1.2198,1.2131,1.2271,1.2305,1.2305,1.2305,1.2305,1.2305,1.2305,1.2305,1.2258,1.2118,1.2091,1.2044,1.1897,1.152,1.1177,1.1032,1.0382,0.9868,0.9583,0.9306,0.9066,0.88,0.8918,0.9207,0.9652,1.0007,1.0514,1.1019,1.144,1.173,1.1884,1.2024,1.2091,1.2098,1.2398,1.2532,0.8015,0.7891,0.7975,0.7849,0.7546,0.7285,0.7285,0.7285,0.7353,0.7599,0.7893,0.8085,0.8009,0.8552,0.8901,0.8635,0.8804,0.9178,0.9699,0.9686,0.9853,1.0551,1.0408,1.0367,1.0611,1.0678,0.0,1.0719,1.0715,1.0688,1.0631,1.0624,1.0624,1.0624,1.0685,1.0762,1.0989,1.0828,1.0862,1.1089,1.1089,1.0969,1.0762,1.1216,1.1336,1.1196,1.1423,1.1557,1.163,1.1864,1.1964,1.1964,1.1964,1.2098,1.2271,1.2044,1.2104,1.2305,1.2305,1.2305,1.2265,1.2037,1.1964,1.1911,1.161,1.1884,1.2258,1.2024,1.2124,1.2305,1.2305,1.2305,1.2305,1.2305,1.2305,1.2305,1.2305,1.2351,1.2378,1.2311,1.2351,1.2398,1.2398,1.2345,1.2325,1.2385,1.2345,1.2305,1.2305,1.2305,1.2218,1.1984,1.1487,1.1058,1.0875,1.0285,0.9873,0.9701,0.984,1.0187,1.0791,1.0779,1.1147,1.1964,1.1964,1.2078,1.2305,1.2305,1.2338,1.2405,1.2714,1.2856,0.7771,0.7872,0.8136,0.765,0.7872,0.818,0.818,0.818,0.8187,0.8217,0.852,0.8696,0.8425,0.9089,0.9597,0.9173,0.9406,0.9713,1.0033,1.0514,1.0762,1.0645,1.0768,1.0822,1.0645,1.0795,1.0955,1.0955,1.1196,1.1116,1.0651,1.0624,1.0624,1.0624,1.0815,1.0969,1.0995,1.1229,1.1363,1.1383,1.1383,1.1369,1.1349,1.1403,1.1557,1.179,1.1817,1.1977,0.0,1.2251,1.2265,1.2265,1.2265,1.2278,1.2298,1.2271,1.2278,1.2305,1.2305,1.2305,1.2298,1.2271,1.2265,1.2204,1.1917,1.2051,1.2291,1.2271,1.2278,1.2305,1.2305,1.2305,1.2305,1.2305,1.2305,1.2305,1.2305,1.2512,1.2625,1.2351,1.2518,1.2782,1.2782,1.2478,1.2392,1.2741,1.2478,1.2305,1.2305,1.2305,1.2291,1.2265,1.2211,1.2032,1.1819,1.1913,1.1952,1.1663,1.1913,1.2063,1.2111,1.2111,1.2184,1.2265,1.2265,1.2278,1.2305,1.2305,1.2445,1.2782,1.2808,1.2899,0.7869,0.7881,0.802,0.7789,0.7784,0.7874,0.8024,0.792,0.793,0.8268,0.849,0.8714,0.917,0.9231,0.9362,0.9781,0.9611,0.9579,1.0053,1.0474,1.0755,1.0815,1.1076,1.1209,1.1096,0.0,1.1249,1.1249,1.1363,1.1323,1.1096,1.1082,1.1082,1.1082,1.1196,1.1336,1.1516,1.1456,1.1516,1.169,1.169,1.1597,1.1436,1.179,1.1924,1.1877,1.2051,1.2191,0.0,1.2305,1.2305,1.2305,1.2305,1.2305,1.2305,1.2305,1.2305,1.2305,1.2305,1.2305,1.2305,1.2305,1.2305,1.2278,1.2164,1.2211,1.2305,1.2305,1.2305,1.2305,1.2305,1.2305,1.2305,1.2305,1.2438,1.2565,1.2565,1.2812,1.2993,1.2872,1.2946,1.3026,1.3026,1.2772,1.2672,1.2979,1.2766,1.2639,1.2826,1.2685,1.2565,1.2565,1.2412,1.2258,1.2138,1.2398,1.2445,1.2144,1.2405,1.2565,1.2565,1.2398,1.2472,1.2846,1.2665,1.2659,1.2846,1.2846,1.2913,1.3026,1.3206,1.3353,0.8143,0.8063,0.8063,0.8063,0.7896,0.7836,0.8009,0.7889,0.7903,0.829,0.857,0.8904,0.9658,0.9694,0.9833,1.0539,1.0195,1.0006,1.0525,1.0758,1.0895,1.1096,1.1383,1.1523,1.143,1.151,1.159,1.1677,1.1683,1.1683,1.1683,1.1683,1.1603,1.143,1.151,1.1657,1.1864,1.1744,1.179,1.1997,1.1997,1.1891,1.1697,1.2111,1.2191,1.2011,1.2211,1.2305,0.0,1.2305,1.2305,1.2305,1.2305,1.2305,1.2305,1.2305,1.2305,1.2305,1.2305,1.2305,1.2318,1.2405,1.2432,1.2452,1.2545,1.2445,1.2305,1.2305,1.2365,1.2452,1.2545,1.2572,1.2572,1.2572,1.2732,1.2879,1.2879,1.312,1.3313,1.3227,1.328,1.334,1.334,1.3086,1.2986,1.3293,1.308,1.2966,1.318,1.3019,1.2879,1.2879,1.2699,1.2532,1.2438,1.2625,1.2699,1.2579,1.2766,1.2879,1.2879,1.2679,1.2772,1.32,1.2993,1.2993,1.3213,1.3213,1.3253,1.3347,1.3547,1.3734,0.845,0.837,0.837,0.837,0.842,0.837,0.837,0.842,0.837,0.8377,0.8905,0.9482,0.9754,1.0701,1.1464,1.1472,1.1341,1.1383,1.172,1.1556,1.1416,1.1423,1.1683,1.175,1.1456,1.169,1.1984,1.2271,1.2291,0.0,1.2291,1.2291,1.2031,1.1443,1.171,1.1864,1.187,1.2151,1.2291,1.2298,1.2298,1.2291,1.2291,1.2298,1.2305,1.2298,1.2305,1.2305,0.0,1.2305,1.2305,1.2305,1.2305,1.2305,1.2305,1.2305,1.2305,1.2305,1.2305,1.2305,1.2351,1.2721,1.2815,1.2876,1.3106,1.2779,1.2305,1.2305,1.2512,1.2889,1.312,1.32,1.32,1.32,1.32,1.3206,1.3206,1.3434,1.3554,1.3267,1.344,1.3641,1.3641,1.34,1.3307,1.3594,1.3394,1.3206,1.3213,1.3206,1.3206,1.3206,1.32,1.3073,1.2842,1.2822,1.2872,1.318,1.32,1.3206,1.3206,1.32,1.32,1.3213,1.3206,1.3206,1.3213,1.3213,1.336,1.3641,1.3559,1.3955,0.8697,0.8671,0.8671,0.8671,0.8524,0.8424,0.8624,0.8517,0.843,0.8631,0.9219,0.9959,1.0813,1.1284,1.193,1.316,1.2373,1.1872,1.2443,1.2093,1.173,1.173,1.1984,1.2131,0.0,0.0,1.2204,1.2291,1.2305,1.2305,1.2305,1.2305,1.2218,1.2031,1.2118,1.2164,1.2164,1.2258,1.2305,1.2305,1.2305,1.2305,1.2305,1.2305,1.2305,1.2305,1.2305,1.2305,1.2305,1.2305,1.2305,1.2318,1.2525,1.2605,1.2632,1.2846,1.2926,1.2926,1.2926,1.2926,1.2939,1.3033,1.3066,1.308,1.318,1.308,1.2926,1.2926,1.2993,1.3086,1.3186,1.3213,1.3213,1.3213,1.336,1.3507,1.3507,1.3734,1.3921,1.3828,1.3888,1.3948,1.3948,1.3701,1.3607,1.3901,1.3694,1.3581,1.3781,1.3634,1.3507,1.3507,1.3327,1.3173,1.3073,1.3247,1.3313,1.322,1.34,1.3507,1.3507,1.3313,1.34,1.3801,1.3607,1.3607,1.3808,1.3808,1.3955,1.4249,1.4449,1.4643,0.8804,0.8804,0.8804,0.8804,0.8671,0.8584,0.8764,0.8664,0.8721,0.9323,0.9797,1.0469,1.1828,1.2232,1.2837,1.4218,1.3442,1.2813,1.3201,1.268,1.2136,1.2076,1.2291,1.2425,0.0,1.2305,1.2305,1.2305,1.2305,1.2351,1.2465,1.2472,1.2525,1.2639,1.2425,1.2358,1.2472,1.2472,1.2532,1.2645,1.2645,1.2585,1.2472,1.2472,1.2412,1.2305,1.2305,1.2365,0.0,1.2472,1.2538,1.2665,1.2846,1.2919,1.2946,1.314,1.3213,1.3213,1.3213,1.3213,1.3227,1.334,1.3454,1.354,1.354,1.3387,1.3233,1.3347,1.3373,1.34,1.3514,1.354,1.354,1.354,1.3681,1.3808,1.3808,1.3955,1.4088,1.4088,1.4088,1.4088,1.4088,1.3935,1.3874,1.4055,1.3928,1.3874,1.4062,1.3928,1.3808,1.3808,1.3647,1.354,1.354,1.3607,1.3614,1.3547,1.3714,1.3808,1.3808,1.3634,1.3714,1.4082,1.3908,1.3955,1.4249,1.4362,1.4509,1.4696,1.499,1.5124,0.0,0.8804,0.8811,0.8831,0.8824,0.8818,0.8858,0.8851,0.0,1.0277,1.0562,1.1152,1.2868,1.357,1.4119,1.479,1.4597,1.425,1.409,1.3313,1.2694,1.2345,1.2599,1.2735,1.2365,1.2351,1.2365,1.2365,1.2365,1.2485,1.2842,1.2856,1.2913,1.32,1.2665,1.2498,1.2856,1.2856,1.2926,1.3213,1.3213,1.306,1.2856,1.2856,1.2625,0.0,1.2365,1.2525,0.0,1.2856,1.2953,1.3213,1.3233,1.324,1.324,1.3267,1.3273,1.3273,1.3273,1.3273,1.332,1.3587,1.3861,1.4088,1.4088,1.3707,1.3333,1.3601,1.3674,1.3741,1.4015,1.4088,1.4088,1.4088,1.4088,1.4088,1.4088,1.4088,1.4088,1.4088,1.4088,1.4088,1.4088,1.4088,1.4088,1.4088,1.4108,1.4122,1.4122,1.4135,1.4148,1.4148,1.4128,1.4128,1.4148,1.3854,1.3794,1.4068,1.4088,1.4088,1.4088,1.4108,1.4122,1.4122,1.4135,1.4282,1.4556,1.485,1.5003,1.503,1.5324,1.5471,0.8804,0.0,0.8858,0.9078,0.8971,0.8925,0.0,0.9299,0.9432,1.0558,1.1225,1.2081,1.3798,1.4345,1.4936,1.6052,1.5573,1.5149,1.5358,1.4552,1.3586,1.2777,1.2913,1.2979,1.2748,1.2859,1.2999,1.2999,1.2999,1.3026,1.3093,1.31,1.3133,1.3206,1.3073,1.3033,1.31,1.31,1.314,1.3213,1.3213,1.3173,1.31,1.31,1.306,1.2999,1.2999,1.3039,1.31,1.31,1.3146,1.3233,1.3454,1.354,1.3567,1.3794,1.3881,1.3881,1.3881,1.3881,1.3895,1.3961,1.4035,1.4088,1.4088,1.3995,1.3895,1.3961,1.3981,1.4001,1.4068,1.4088,1.4088,1.4088,1.4088,1.4088,1.4088,1.4088,1.4088,1.4088,1.4088,1.4088,1.4088,1.4088,1.4088,1.4088,1.4275,1.4422,1.4422,1.4616,1.4756,1.4756,1.4556,1.4509,1.4736,1.4282,1.4015,1.4082,1.4088,1.4088,1.4088,1.4302,1.4422,1.4422,1.4643,1.479,1.4863,1.5157,1.5404,1.5631,1.5932,1.6186,0.8804,0.8804,0.8844,0.9005,0.8925,0.8891,0.9212,0.9259,0.9646,1.112,1.1874,1.2734,1.4517,1.5148,1.5605,1.6309,1.6132,1.5799,1.5306,1.4673,1.387,1.2898,1.3019,1.314,0.0,1.3113,1.3213,1.3213,1.3213,1.3267,1.34,1.3407,1.3474,1.3607,1.3614,1.3547,1.3407,1.3407,1.348,1.3614,1.3614,1.354,1.3407,1.3407,1.334,1.3213,1.3213,1.3287,1.3407,1.3407,1.3487,1.3627,1.3788,1.3848,1.3868,1.4028,1.4088,1.4088,1.4088,1.4088,1.4088,1.4088,1.4088,1.4088,1.4088,1.4088,1.4088,1.4088,1.4088,1.4088,1.4088,1.4088,1.4088,1.4088,1.4088,1.4122,1.4255,1.4182,1.4128,1.4262,1.4282,1.4282,1.4282,1.4402,1.4489,1.4489,1.4623,1.4723,1.4723,1.4863,1.4963,1.4963,1.4823,1.479,1.495,1.4669,1.4489,1.4489,1.4362,1.4349,1.4482,1.4643,1.4723,1.4723,1.501,1.5164,1.5164,1.5591,1.5879,1.6039,1.6333,1.6553,0.8864,0.8871,0.8871,0.8871,0.8838,0.8831,0.8918,0.918,0.9987,1.1824,1.2529,1.3386,1.5282,1.5859,1.6164,1.6302,1.6641,1.644,1.523,1.4757,1.4236,1.3258,1.3311,0.0,1.328,1.332,1.3347,1.3347,1.3347,1.3454,1.3701,1.3707,1.3828,1.4082,1.4088,1.3968,1.3714,1.3707,1.3841,1.4088,1.4088,1.3955,1.3707,1.3707,1.3574,1.3347,0.0,0.0,1.3707,1.3707,1.3854,1.4088,1.4088,1.4088,1.4088,1.4088,1.4088,1.4095,1.4135,1.4182,1.4222,1.4222,1.4222,1.4208,1.4168,1.4188,1.4208,1.4168,1.4155,1.4155,1.4155,1.4188,1.4222,1.4222,1.4222,1.4289,1.4536,1.4396,1.4295,1.4543,1.4589,1.4589,1.4589,1.4796,1.4963,1.4963,1.4997,1.503,1.503,1.507,1.5097,1.5097,1.5057,1.505,1.5097,1.5017,1.4997,1.509,1.4776,1.4716,1.5017,1.503,1.505,1.5097,1.5337,1.5484,1.5531,1.6032,1.6319,1.6413,1.666,1.68,0.905,0.9117,0.9117,0.9117,0.8985,0.8938,0.9432,1.013,1.0978,1.2258,1.326,1.4469,1.6191,1.6269,1.637,1.7061,1.7539,1.7789,1.7689,1.6927,1.5991,1.5061,0.0,1.3854,1.3601,1.3808,1.3955,1.3955,1.3955,1.3975,1.4015,1.4021,1.4041,1.4088,1.4088,1.4068,1.4021,1.4021,1.4041,1.4088,1.4088,1.4062,1.4021,1.4021,1.3995,1.3955,0.0,1.3975,1.4021,1.4021,1.4048,1.4088,1.4088,1.4088,1.4088,1.4088,1.4088,1.4122,1.4369,1.4616,1.483,1.483,1.483,1.4783,1.4529,1.4629,1.4776,1.4522,1.4456,1.4456,1.4456,1.4643,1.483,1.483,1.483,1.4843,1.4883,1.4863,1.4843,1.489,1.4897,1.4897,1.4897,1.4937,1.4963,1.4963,1.517,1.5331,1.5331,1.5545,1.5698,1.5698,1.5478,1.5431,1.5671,1.5244,1.517,1.5665,1.519,1.503,1.5317,1.5331,1.5444,1.5691,1.5738,1.5885,1.6139,1.6226,1.6526,1.7014,1.7061,1.7215,0.9379,0.9384,0.9183,0.9183,0.9259,0.9457,1.0172,1.0762,1.1499,1.2952,1.3767,1.4634,1.6127,1.6396,1.6787,1.7881,1.8418,1.8538,1.8124,1.7658,1.6876,0.0,0.0,1.4496,1.3958,1.4008,1.4088,1.4088,1.4088,1.4088,1.4088,1.4088,1.4088,1.4088,1.4088,1.4088,1.4088,1.4088,1.4088,1.4088,1.4088,1.4088,1.4088,1.4088,1.4088,1.4088,0.0,1.4088,1.4088,1.4088,1.4088,1.4088,1.4088,1.4088,1.4108,1.4262,1.4322,1.4362,1.4656,1.485,1.4963,1.4963,1.4963,1.4937,1.4803,1.4856,1.4937,1.4796,1.4763,1.4763,1.4763,1.4863,1.4963,1.4963,1.4963,1.501,1.5164,1.5077,1.501,1.5164,1.5197,1.5197,1.5197,1.5331,1.5431,1.5431,1.5545,1.5631,1.5631,1.5745,1.5832,1.5832,1.5712,1.5685,1.5818,1.5585,1.5478,1.5585,1.5491,1.5491,1.5625,1.5631,1.5772,1.6059,1.6072,1.6213,1.6506,1.6667,1.6887,1.7154,1.7315,1.7455,0.9806,0.9749,0.95,0.9339,0.9459,0.9815,1.0721,1.1272,1.2062,1.362,1.4396,1.5116,1.6227,1.6816,1.7529,1.8613,1.915,1.9242,1.8658,1.8055,1.7235,1.5942,1.5337,1.4796,1.4146,1.4088,1.4088,1.4088,1.4088,1.4088,1.4088,1.4088,1.4088,1.4088,1.4088,1.4088,1.4088,1.4088,1.4088,1.4088,1.4088,1.4088,1.4088,1.4088,1.4088,1.4088,1.4088,1.4088,1.4088,1.4088,1.4088,1.4088,1.4088,1.4128,1.4222,1.4516,1.4669,1.4756,1.4983,1.511,1.5164,1.5164,1.5164,1.5157,1.5084,1.511,1.515,1.5084,1.5117,1.515,1.5084,1.5117,1.5164,1.5164,1.5164,1.5224,1.5451,1.5324,1.5231,1.5451,1.5498,1.5498,1.5498,1.5678,1.5832,1.5832,1.5885,1.5932,1.5932,1.5992,1.6032,1.6032,1.6032,1.6032,1.6032,1.6032,1.5939,1.5718,1.5845,1.5932,1.5932,1.5999,1.6139,1.6373,1.6373,1.652,1.6807,1.7041,1.7188,1.7255,1.7475,1.7582,1.0348,1.0405,1.0422,0.9819,0.9459,0.9506,1.0669,1.1856,1.3031,1.4155,1.5487,1.6704,1.7207,1.7949,1.8662,1.916,1.959,2.001,2.0333,0.0,1.7268,1.7131,1.544,1.4146,1.4088,1.4088,1.4088,1.4088,1.4088,1.4088,1.4088,1.4088,1.4088,1.4088,1.4088,1.4088,1.4088,1.4088,1.4088,1.4088,1.4088,1.4088,1.4088,1.4088,1.4088,1.4088,1.4088,1.4088,1.4088,1.4088,1.4088,1.4088,1.4088,1.4255,1.4522,1.4823,1.5104,1.5337,1.5357,1.5538,1.5765,1.5765,1.5765,1.5718,1.5444,1.5558,1.5712,1.5438,1.5558,1.5705,1.5438,1.5565,1.5765,1.5765,1.5765,1.5772,1.5792,1.5785,1.5772,1.5792,1.5798,1.5798,1.5798,1.5812,1.5832,1.5832,1.6066,1.6239,1.6239,1.648,1.6647,1.6647,1.6647,1.6647,1.6647,1.6647,1.6633,1.6613,1.638,1.6239,1.6239,1.65,1.6653,1.6673,1.6673,1.682,1.7114,1.7141,1.7288,1.7555,1.7569,1.7582,1.0633,1.0655,1.0515,0.9853,1.0126,1.0821,1.2035,1.3237,1.4414,1.5581,1.6307,1.6865,1.7305,1.8291,1.9092,1.9258,1.9863,2.0381,2.0547,1.9274,1.8069,1.7415,1.5951,1.481,1.4166,1.4088,1.4088,1.4088,1.4088,1.4088,1.4088,1.4088,1.4088,1.4088,1.4088,1.4088,1.4088,1.4088,1.4088,1.4088,1.4088,1.4088,1.4088,1.4088,1.4088,1.4088,1.4088,1.4088,1.4088,1.4088,1.4195,1.4376,1.4563,1.4703,1.483,1.5124,1.5304,1.5424,1.5605,1.5738,1.5832,1.5832,1.5832,1.5805,1.5698,1.5745,1.5805,1.5698,1.5745,1.5805,1.5698,1.5745,1.5832,1.5832,1.5832,1.5832,1.5832,1.5832,1.5832,1.5832,1.5832,1.5832,1.5832,1.5979,1.6106,1.6106,1.6353,1.6547,1.6547,1.664,1.6707,1.6707,1.6707,1.6707,1.6707,1.6707,1.6707,1.6707,1.66,1.6547,1.6547,1.6647,1.6794,1.6981,1.6981,1.7128,1.7422,1.7422,1.7475,1.7582,1.7582,1.7682,1.1046,1.101,1.085,1.0236,1.1039,1.2311,1.3339,1.4276,1.53,1.6442,1.6943,1.7266,1.7705,1.8603,1.9336,1.9463,2.0088,2.0479,2.0157,1.9116,1.806,1.6927,1.5869,1.4894,1.4166,1.4088,1.4088,1.4088,1.4088,1.4088,1.4088,1.4088,1.4088,1.4088,1.4088,1.4088,1.4088,1.4088,1.4088,1.4088,1.4088,1.4088,1.4088,1.4088,1.4088,1.4088,1.4088,1.4135,1.4222,1.4222,1.4396,1.4689,1.4983,1.5104,1.5137,1.5424,1.5531,1.5565,1.5758,1.5832,1.5832,1.5832,1.5832,1.5832,1.5832,1.5832,1.5832,1.5832,1.5899,1.5972,1.5972,1.5972,1.5972,1.5972,1.6039,1.6106,1.6106,1.6106,1.6106,1.6106,1.6106,1.6106,1.6106,1.6273,1.6413,1.6413,1.666,1.6847,1.6847,1.6927,1.6981,1.6981,1.6981,1.6981,1.6981,1.6981,1.6981,1.6981,1.6981,1.6941,1.6847,1.6934,1.7081,1.7281,1.7288,1.7382,1.7582,1.7582,1.7582,1.7589,1.7682,1.7836,1.1472,1.1513,1.1559,1.1012,1.2249,1.3735,1.43,1.4763,1.5433,1.6515,1.7422,1.8135,1.8555,1.8994,1.9424,1.9844,2.0283,2.0245,1.9195,1.7989,1.6927,1.5861,1.4734,1.4088,1.4088,1.4088,1.4088,1.4088,1.4088,1.4088,1.4088,1.4088,1.4088,1.4088,1.4088,1.4088,1.4088,1.4088,1.4088,1.4088,1.4088,1.4088,1.4088,1.4088,1.4088,1.4088,1.4088,1.4255,1.4522,1.4529,1.4703,1.4997,1.5291,1.5398,1.5438,1.5725,1.5832,1.5832,1.5832,1.5832,1.5832,1.5832,1.5832,1.5832,1.5832,1.5832,1.5832,1.5832,1.6046,1.6273,1.6279,1.6279,1.6279,1.6279,1.65,1.6707,1.6707,1.6707,1.6707,1.6707,1.6707,1.6707,1.6707,1.6707,1.6707,1.6707,1.6967,1.7154,1.7154,1.7408,1.7582,1.7582,1.7582,1.7582,1.7582,1.7582,1.7582,1.7582,1.7582,1.7455,1.7161,1.7428,1.7582,1.7582,1.7582,1.7582,1.7589,1.7589,1.7589,1.7595,1.7909,1.8056,1.1052,1.137,1.1783,1.1615,1.2834,1.4069,1.4246,1.5308,1.6485,1.7405,1.7832,1.8135,1.8555,1.8994,0.0,1.9844,1.9648,1.9599,2.0079,1.7811,1.6355,1.6764,1.5228,1.4088,1.4088,1.4088,1.4088,1.4088,1.4088,1.4088,1.4088,1.4088,1.4088,1.4088,1.4088,1.4088,1.4088,1.4088,1.4088,1.4088,1.4295,1.4282,1.4088,1.4088,1.4202,1.4389,1.4389,1.4556,1.485,1.505,1.519,1.5297,1.5585,1.5698,1.5712,1.5798,1.5832,1.5832,1.5832,1.5832,1.5832,1.5832,1.5832,1.5832,1.5832,1.5832,1.5872,1.6079,1.6206,1.6319,1.6526,1.6734,1.684,1.6627,1.6647,1.6707,1.6707,1.6707,1.6707,1.6707,1.6707,1.6707,1.6707,1.6881,1.7014,1.7014,1.7268,1.7455,1.7455,1.7528,1.7582,1.7582,1.7582,1.7582,1.7582,1.7582,1.7582,1.7582,1.7582,1.7542,1.7455,1.7535,1.7582,1.7582,1.7582,1.7689,1.7909,1.7909,1.8016,1.8223,1.8317,1.847,1.1444,1.2007,1.2612,1.2757,1.3611,1.4585,1.5079,1.5966,1.6973,1.7832,1.8008,1.8193,1.8789,1.9111,0.0,2.0078,1.9839,1.9678,1.9923,1.7891,1.6437,1.6601,1.5144,1.4088,1.4088,1.4195,1.4262,1.4262,1.4262,1.4262,1.4262,1.4148,1.4088,1.4088,1.4202,1.4202,1.4088,1.4202,1.4202,1.4088,1.4382,1.4429,1.4262,1.4382,1.4529,1.4703,1.4816,1.497,1.5157,1.5444,1.5571,1.5585,1.5758,1.5832,1.5832,1.5832,1.5832,1.5832,1.5832,1.5832,1.5832,1.5832,1.5912,1.6005,1.6005,1.6086,1.6213,1.6393,1.6533,1.666,1.6834,1.7101,1.7248,1.6954,1.6967,1.7054,1.7054,1.7054,1.7054,1.7054,1.7054,1.7054,1.7054,1.7208,1.7321,1.7321,1.7468,1.7582,1.7582,1.7582,1.7582,1.7582,1.7582,1.7582,1.7582,1.7689,1.7756,1.7762,1.7876,1.7943,1.7943,1.7829,1.7822,1.7943,1.7943,1.8036,1.8223,1.8223,1.8317,1.8497,1.8611,1.8758,1.2299,1.3001,1.3717,1.4128,1.46,1.5234,1.6504,1.6787,1.7021,1.7842,1.8008,1.8271,1.9131,1.9287,1.957,2.043,2.0489,2.0079,1.9116,1.7908,1.6764,1.5779,1.4734,1.4095,1.4122,1.4362,1.4529,1.4556,1.4536,1.4522,1.4522,1.4249,1.4088,1.4088,1.4342,1.4355,1.4088,1.4349,1.4362,1.4128,1.4422,1.4576,1.4609,1.485,1.4977,1.5017,1.5311,1.5438,1.5458,1.5718,1.5832,1.5832,1.5832,1.5832,1.5832,1.5832,1.5832,1.5832,1.5832,1.5845,1.5872,1.5872,1.6072,1.6313,1.6313,1.65,1.6714,1.674,1.6941,1.7257,1.7181,1.7382,1.7515,1.7248,1.7388,1.7582,1.7582,1.7582,1.7582,1.7582,1.7582,1.7582,1.7582,1.7582,1.7582,1.7582,1.7582,1.7582,1.7582,1.7582,1.7595,1.7622,1.7622,1.7635,1.7662,1.7909,1.8063,1.809,1.8343,1.8504,1.8531,1.8243,1.8217,1.8484,1.849,1.8504,1.8531,1.8531,1.8544,1.8577,1.8844,1.8965,1.2301,1.3103,1.3882,1.4544,1.5235,1.6045,1.7021,1.7246,1.7393,1.791,1.8008,1.8271,1.9131,1.9287,1.957,2.043,1.9923,1.9283,1.9036,1.7326,1.5944,1.5703,1.4734,1.4175,1.4402,1.4482,1.4616,1.485,1.4656,1.4522,1.4522,1.4249,1.4088,1.4088,1.4148,1.4148,1.4088,1.4148,1.4262,1.4429,1.473,1.4983,1.5204,1.5037,1.5084,1.5317,1.5611,1.5732,1.5745,1.5805,1.5832,1.5832,1.5832,1.5832,1.5832,1.5832,1.5832,1.5832,1.5832,1.5979,1.6179,1.6179,1.6373,1.6613,1.6613,1.6653,1.6754,1.6987,1.7101,1.7201,1.7428,1.7535,1.7569,1.7502,1.7535,1.7582,1.7582,1.7582,1.7582,1.7582,1.7582,1.7582,1.7582,1.7582,1.7582,1.7582,1.7582,1.7582,1.7582,1.7582,1.7675,1.7923,1.7949,1.8043,1.8277,1.835,1.839,1.8397,1.8457,1.8591,1.8824,1.8551,1.8424,1.849,1.849,1.8604,1.8831,1.8831,1.8951,1.9178,1.9245,1.9272,1.3179,1.3941,1.4716,1.5284,1.5732,1.6351,1.7178,1.7383,1.75,1.793,1.8008,1.8271,1.9131,1.9287,1.957,2.043,1.9678,1.9036,1.9036,1.7082,1.5756,1.5913,1.4951,1.4409,1.4703,1.473,1.4796,1.495,1.4689,1.4522,1.4522,1.4249,1.4088,1.4088,1.4222,1.4229,1.4088,1.4362,1.4516,1.4522,1.4963,1.5324,1.5598,1.5444,1.5464,1.5611,1.5765,1.5832,1.5832,1.5832,1.5832,1.5832,1.5832,1.5832,1.5845,1.5985,1.6039,1.6059,1.6199,1.6353,1.648,1.648,1.668,1.6914,1.6914,1.7014,1.7161,1.7315,1.7355,1.7388,1.7542,1.7582,1.7582,1.7582,1.7582,1.7582,1.7582,1.7582,1.7582,1.7582,1.7582,1.7582,1.7582,1.7582,1.7582,1.7582,1.7582,1.7635,1.7782,1.7802,1.7923,1.8223,1.8257,1.8323,1.8477,1.8617,1.8698,1.8698,1.8831,1.8978,1.9132,1.8991,1.8911,1.8911,1.8911,1.8985,1.9132,1.9132,1.9219,1.9366,1.9366,1.9366,1.4218,1.4874,1.5625,1.6064,1.623,1.6504,1.7305,1.749,1.7607,1.8037,1.8057,1.8271,1.9131,1.9287,1.9487,2.0188,1.9599,1.8877,1.847,1.6838,1.5717,1.5738,1.494,1.4563,1.4856,1.4883,1.493,1.503,1.4763,1.4623,1.4669,1.4349,1.4188,1.4235,1.4422,1.4429,1.4242,1.4716,1.4863,1.4676,1.5211,1.5598,1.5832,1.5832,1.5832,1.5832,1.5832,1.5832,1.5832,1.5832,1.5832,1.5832,1.5832,1.5832,1.5865,1.6166,1.6273,1.6319,1.6607,1.674,1.678,1.678,1.6981,1.7228,1.7228,1.7388,1.7582,1.7582,1.7582,1.7582,1.7582,1.7582,1.7582,1.7582,1.7582,1.7582,1.7582,1.7582,1.7582,1.7582,1.7582,1.7582,1.7582,1.7622,1.7662,1.7662,1.7702,1.7829,1.809,1.8123,1.8237,1.8531,1.8564,1.8584,1.8637,1.8858,1.8998,1.8998,1.9232,1.9366,1.9366,1.9366,1.9366,1.9366,1.9366,1.9366,1.9366,1.9366,1.9366,1.9366,1.9366,1.9392,1.4601,1.5352,1.6084,1.6533,1.6924,1.7334,1.7812,1.793,1.8047,1.8467,1.8262,1.8271,1.9131,1.9287,1.9264,1.9233,1.9116,1.8301,1.6437,1.5861,1.5394,1.4467,1.4226,1.4262,1.4549,1.4583,1.479,1.5297,1.507,1.501,1.5264,1.4763,1.4583,1.4836,1.4636,1.4623,1.4843,1.4923,1.507,1.5284,1.5611,1.5792,1.5832,1.5832,1.5832,1.5832,1.5832,1.5832,1.5832,1.5832,1.5832,1.5832,1.5832,1.5832,1.5865,1.6166,1.6273,1.6319,1.6607,1.6874,1.7088,1.7088,1.7288,1.7522,1.7522,1.7549,1.7582,1.7582,1.7582,1.7582,1.7582,1.7582,1.7582,1.7582,1.7582,1.7582,1.7582,1.7582,1.7582,1.7582,1.7582,1.7582,1.7582,1.7809,1.7989,1.7989,1.8203,1.8384,1.8424,1.843,1.8544,1.8831,1.8865,1.8971,1.9232,1.9285,1.9305,1.9305,1.9345,1.9366,1.9366,1.9366,1.9366,1.9366,1.9366,1.9366,1.9366,1.9366,1.9366,1.9366,1.9366,1.9499,1.5362,1.5841,1.6292,1.6924,1.7246,1.749,1.791,1.8008,1.8125,1.8555,1.8486,1.8623,1.9482,1.9639,1.9533,1.9104,1.847,1.7563,1.611,1.5396,1.4947,1.4865,1.4823,1.493,1.5224,1.5104,1.5117,1.5378,1.5124,1.5017,1.515,1.475,1.4656,1.495,1.4676,1.4663,1.4963,1.5124,1.5351,1.5645,1.5765,1.5832,1.5832,1.5832,1.5832,1.5832,1.5832,1.5832,1.5832,1.5832,1.5832,1.5845,1.6012,1.6079,1.6132,1.6593,1.676,1.6807,1.7094,1.7281,1.7388,1.7388,1.7475,1.7582,1.7582,1.7582,1.7582,1.7582,1.7582,1.7582,1.7582,1.7582,1.7582,1.7582,1.7702,1.7842,1.7909,1.7883,1.7889,1.8056,1.809,1.809,1.809,1.8203,1.8297,1.8297,1.8404,1.8551,1.8711,1.8731,1.8844,1.9145,1.9172,1.9225,1.9359,1.9366,1.9366,1.9366,1.9366,1.9366,1.9366,1.9366,1.9446,1.9606,1.9452,1.9366,1.9366,1.9366,1.9366,1.9372,1.9533,1.9679,1.5693,1.6064,1.6416,1.7197,1.7539,1.7812,1.8232,1.834,1.8457,1.8877,1.874,1.8816,1.9866,1.999,1.9583,1.8726,1.7904,1.6996,1.5904,1.5085,1.4796,1.5231,1.5291,1.5371,1.5585,1.5418,1.5317,1.5391,1.5197,1.5104,1.5177,1.4903,1.4877,1.517,1.4897,1.4883,1.5177,1.5398,1.5618,1.5832,1.5832,1.5832,1.5832,1.5832,1.5832,1.5832,1.5832,1.5832,1.5832,1.5832,1.5872,1.5965,1.6186,1.6319,1.6446,1.6961,1.7148,1.7194,1.7482,1.7582,1.7582,1.7582,1.7582,1.7582,1.7582,1.7582,1.7582,1.7582,1.7642,1.7702,1.7702,1.7756,1.7816,1.7816,1.7976,1.8163,1.825,1.8217,1.8223,1.8444,1.849,1.849,1.849,1.8551,1.8597,1.8597,1.8664,1.8791,1.9011,1.9038,1.9118,1.9345,1.9366,1.9366,1.9366,1.9366,1.9399,1.9472,1.9472,1.9512,1.9586,1.9586,1.9686,1.9907,1.97,1.9553,1.9472,1.9406,1.9366,1.9372,1.9666,1.984,1.5322,1.6055,1.6807,1.7275,1.7978,1.8682,1.9121,1.9219,1.9336,1.9756,1.8995,1.8742,2.0285,2.0195,1.9344,1.7679,1.7631,1.7022,1.485,1.4851,1.495,1.4983,1.4983,1.499,1.501,1.4997,1.5104,1.5378,1.5384,1.5491,1.5765,1.5504,1.5484,1.5772,1.5498,1.5491,1.5785,1.5798,1.5812,1.5832,1.5832,1.5832,1.5832,1.5832,1.5832,1.5832,1.5832,1.5832,1.5832,1.5832,1.5999,1.6253,1.6266,1.644,1.672,1.7034,1.7148,1.7194,1.7482,1.7582,1.7582,1.7582,1.7582,1.7582,1.7582,1.7582,1.7582,1.7582,1.7796,1.8023,1.8023,1.823,1.8444,1.8444,1.8457,1.847,1.847,1.847,1.847,1.849,1.849,1.849,1.849,1.8718,1.8905,1.8905,1.9145,1.9325,1.9339,1.9345,1.9352,1.9366,1.9366,1.9366,1.9366,1.9366,1.9486,1.976,1.978,1.99,2.0174,2.0187,2.0194,2.0214,2.0194,2.0054,1.978,1.9499,1.9366,1.9372,1.9666,1.9947,1.5644,1.6269,1.6836,1.7275,1.8018,1.8601,1.8828,1.8566,1.8425,1.8824,1.8035,1.7526,1.8311,1.8347,1.8065,1.7398,1.6976,1.6271,1.5035,1.5057,1.5311,1.5498,1.5518,1.5518,1.5518,1.5518,1.5565,1.5665,1.5671,1.5718,1.5818,1.5558,1.5531,1.5818,1.5545,1.5538,1.5825,1.5832,1.5832,1.5832,1.5832,1.5832,1.5832,1.5832,1.5832,1.5832,1.5832,1.5832,1.5832,1.5832,1.5892,1.6025,1.6406,1.6613,1.6767,1.7248,1.7428,1.7442,1.7549,1.7582,1.7582,1.7582,1.7582,1.7582,1.7582,1.7722,1.7883,1.7883,1.8096,1.833,1.833,1.841,1.8537,1.8724,1.8911,1.9052,1.9052,1.8905,1.8824,1.9018,1.9052,1.9052,1.9052,1.9138,1.9205,1.9205,1.9299,1.9366,1.9366,1.9366,1.9366,1.9366,1.9366,1.9366,1.9366,1.9539,1.9686,1.9793,1.9973,2.0127,2.0227,2.0234,2.0321,2.0514,2.0327,2.018,2.008,1.9973,1.992,1.9927,2.0227,2.0414,1.5439,1.6064,1.665,1.7236,1.791,1.8545,1.8965,1.8461,1.8015,1.8479,1.7367,1.6557,1.7212,1.669,1.6363,1.6683,1.6484,1.6002,1.5109,1.5297,1.5611,1.5805,1.5832,1.5832,1.5832,1.5832,1.5832,1.5832,1.5832,0.0,1.5832,1.5645,1.5631,1.5818,1.5645,1.5631,1.5825,1.5832,1.5832,1.5832,1.5832,1.5832,1.5832,1.5832,1.5832,1.5832,1.5832,1.5832,1.5832,1.5832,1.5945,1.6159,1.6553,1.6827,1.7048,1.7442,1.7582,1.7582,1.7582,1.7582,1.7582,1.7582,1.7582,1.7602,1.7709,1.7883,1.807,1.817,1.841,1.8637,1.8637,1.8711,1.8831,1.9032,1.9225,1.9366,1.9366,1.9212,1.9132,1.9332,1.9366,1.9366,1.9366,1.9366,1.9366,1.9366,1.9366,1.9366,1.9366,1.9366,1.9366,1.9366,1.9366,1.9406,1.9506,1.9686,1.9887,2.008,2.0274,2.0421,2.0521,2.0528,2.0621,2.0815,2.0628,2.0528,2.0528,2.0327,2.0234,2.0241,2.0541,2.0728,0.0,0.0,0.0,1.7148,1.7686,1.834,1.959,1.9032,1.8383,1.8858,1.7228,1.6018,1.709,1.5553,1.4412,1.547,1.6171,1.6168,1.5149,1.5471,1.5832,1.5832,1.5832,1.5832,1.5832,1.5832,1.5832,1.5832,1.5832,1.5832,1.5832,1.5832,1.5832,1.5832,1.5832,1.5832,1.5832,1.5832,1.5832,1.5832,1.5832,1.5832,1.5832,1.5832,1.5832,1.5832,1.5832,1.5832,1.5845,1.5845,1.6179,1.6693,1.6714,1.7068,1.7569,1.7582,1.7582,1.7582,1.7582,1.7582,1.7582,1.7582,1.7582,1.7642,1.7956,1.8056,1.8123,1.8424,1.8711,1.8938,1.8938,1.9152,1.9366,1.9366,1.9366,1.9366,1.9366,1.9366,1.9366,1.9366,1.9366,1.9366,1.9366,1.9366,1.9366,1.9366,1.9366,1.9366,1.9366,1.9366,1.9372,1.9379,1.9379,1.9499,1.9786,1.982,2.0074,2.0641,2.0681,2.0815,2.1096,2.1109,2.1109,2.1109,2.1109,2.1109,2.1109,2.0535,2.0261,2.0267,2.0555,2.0842,1.4668,0.0,0.0,0.0,0.0,0.0,1.8838,1.8405,1.7979,1.8443,1.6779,1.5427,1.6062,1.5061,1.4233,1.4778,1.5143,1.5383,1.5335,1.5591,1.5832,1.5832,1.5832,1.5832,1.5832,1.5832,1.5832,0.0,1.5832,1.5832,1.5832,1.5832,1.5832,1.5832,1.5832,1.5832,1.5832,1.5832,1.5832,1.5832,1.5832,1.5832,1.5832,1.5832,1.5832,1.5832,1.5832,1.5952,1.6152,1.6152,1.6246,1.6433,1.686,1.7128,1.7295,1.7508,1.7582,1.7582,1.7582,1.7582,1.7582,1.7582,1.7582,1.7642,1.7956,1.8196,1.843,1.8724,1.9018,1.9245,1.9245,1.9305,1.9366,1.9366,1.9366,1.9366,1.9366,1.9366,1.9366,1.9366,1.9366,1.9366,1.9366,1.9366,1.9366,1.9366,1.9366,1.9366,1.9366,1.9366,1.9446,1.9659,1.9679,1.98,2.0087,2.0307,2.0501,2.0668,2.0875,2.1029,2.1109,2.1109,2.1109,2.1109,2.1109,2.1109,2.1109,2.0942,2.0869,2.0869,2.0949,2.1036,1.4443,1.5137,0.0,1.6572,0.0,0.0,1.8691,1.8283,1.7712,1.7865,1.6653,1.5433,1.5211,1.4778,1.4549,1.4836,1.503,1.5204,1.5371,1.5645,1.5832,1.5832,1.5832,1.5832,1.5832,1.5832,1.5832,1.5832,1.5832,1.5832,1.5832,1.5832,1.5832,1.5832,1.5832,1.5832,1.5832,1.5832,1.5832,1.5832,1.5832,1.5832,1.5832,1.5832,1.5899,1.6012,1.6012,1.6179,1.6466,1.6587,1.664,1.6673,1.7014,1.7228,1.7355,1.7522,1.7582,1.7582,1.7582,1.7582,1.7582,1.7582,1.7669,1.7836,1.8136,1.8437,1.8731,1.9025,1.9232,1.9366,1.9366,1.9366,1.9366,1.9366,1.9366,1.9366,1.9366,1.9366,1.9366,1.9366,1.9366,1.9366,1.9366,1.9366,1.9366,1.9366,1.9366,1.9366,1.9366,1.9472,1.9613,1.978,1.9907,2.01,2.0394,2.0575,2.0728,2.0848,2.1015,2.1109,2.1109,2.1109,2.1109,2.1109,2.1109,2.1109,2.1109,2.1109,2.1109,2.1109,2.1109,2.1109,1.4209,1.4795,0.0,1.6504,1.6665,0.0,1.8779,1.8432,1.7769,1.7556,1.6833,1.5922,1.4967,1.4886,1.4997,1.5257,1.5351,1.5404,1.5438,1.5665,1.5838,1.5872,1.5879,1.5892,1.5925,1.5925,1.5925,1.5925,1.5892,1.5865,1.5832,1.5832,1.5832,1.5832,1.5832,1.5832,1.5832,1.5832,1.5832,1.5832,1.5832,1.5832,1.5832,1.5865,1.6019,1.6273,1.6306,1.6486,1.6774,1.7041,1.7148,1.7154,1.7188,1.7355,1.7582,1.7582,1.7582,1.7582,1.7582,1.7582,1.7589,1.7622,1.7822,1.811,1.8437,1.8718,1.8985,1.9285,1.9366,1.9366,1.9366,1.9366,1.9366,1.9366,1.9366,1.9366,1.9366,1.9366,1.9366,1.9366,1.9366,1.9366,1.9366,1.9366,1.9366,1.9366,1.9366,1.9366,1.9366,1.9619,1.9813,1.9846,2.0107,2.0401,2.0702,2.0722,2.0835,2.1089,2.1109,2.1109,2.1109,2.1109,2.1109,2.1109,2.1109,2.1109,2.1109,2.1109,2.1109,2.1109,2.1109,2.1109,1.4658,1.5029,1.5625,1.6504,0.0,0.0,1.8027,1.8305,1.8538,1.8824,1.7674,1.6597,1.6738,1.5575,1.4623,1.4683,1.509,1.5478,1.5712,1.5792,1.5919,1.6159,1.6186,1.6279,1.6513,1.6533,1.6533,1.6533,1.6319,1.6079,1.5838,1.5832,1.5832,1.5832,1.5832,1.5832,1.5832,1.5832,1.5832,1.5832,1.5832,1.5832,1.5838,1.6079,1.6219,1.6286,1.652,1.6787,1.7068,1.7128,1.7148,1.7174,1.7408,1.7528,1.7582,1.7582,1.7582,1.7582,1.7582,1.7582,1.7622,1.7876,1.7996,1.8143,1.8677,1.8878,1.8985,1.9285,1.9366,1.9366,1.9366,1.9366,1.9366,1.9366,1.9366,1.9366,1.9366,1.9366,1.9366,1.9366,1.9366,1.9366,1.9366,1.9366,1.9366,1.9366,1.9366,1.9366,1.9366,1.9619,1.9887,2.0127,2.0414,2.0708,2.1002,2.1029,2.1049,2.1109,2.1109,2.1109,2.1109,2.1109,2.1109,2.1109,2.1109,2.1109,2.1109,2.1109,2.1109,2.1109,2.1109,2.1109,1.4785,1.5088,1.5625,1.6504,0.0,0.0,0.0,1.8486,1.8618,1.8524,1.7921,1.7212,1.6537,1.5727,1.512,1.4999,1.5204,1.5498,1.5792,1.5959,1.6106,1.6253,1.64,1.6547,1.6693,1.6707,1.6707,1.6707,1.6433,1.6206,1.6059,1.5912,1.5832,1.5832,1.5832,1.5832,1.5832,1.5979,1.6052,1.6052,1.6199,1.6266,1.6273,1.642,1.6573,1.672,1.686,1.7094,1.7368,1.7368,1.7368,1.7382,1.7522,1.7582,1.7582,1.7582,1.7582,1.7582,1.7582,1.7682,1.7842,1.7996,1.8243,1.8537,1.8838,1.9025,1.9172,1.9325,1.9366,1.9366,1.9366,1.9366,1.9366,1.9366,1.9366,1.9366,1.9366,1.9366,1.9366,1.9366,1.9366,1.9366,1.9366,1.9366,1.9366,1.9366,1.9366,1.9366,1.9366,1.9619,1.9913,2.0201,2.0501,2.0795,2.1082,2.1109,2.1109,2.1109,2.1109,2.1109,2.1109,2.1109,2.1109,2.1109,2.1109,2.1109,2.1109,2.1109,2.1109,2.1109,2.1109,2.1109,0.0,0.0,0.0,0.0,0.0,1.6977,0.0,0.0,0.0,1.7972,1.7974,1.7562,1.5944,1.5747,1.5655,1.5163,1.5204,1.5398,0.0,1.5965,0.0,1.6266,1.6526,1.6727,1.6787,1.6794,1.6794,1.6794,1.652,1.6359,1.6359,1.6079,1.5912,1.5912,1.5858,1.5852,1.5912,1.6152,1.6299,1.6359,1.6593,1.6707,1.6707,1.6767,1.6921,1.7154,1.7208,1.7368,1.7582,1.7582,1.7582,1.7582,1.7582,1.7582,1.7582,1.7582,1.7582,1.7589,1.7649,1.7836,1.8063,1.8176,1.8577,1.9011,1.9011,1.9178,1.9366,1.9366,1.9366,1.9366,1.9366,1.9366,1.9366,1.9366,1.9366,1.9366,1.9366,1.9366,1.9366,1.9366,1.9366,1.9366,1.9366,1.9366,1.9366,1.9366,1.9366,1.9392,1.9446,1.97,1.9993,2.0287,2.0581,2.0855,2.1089,2.1109,2.1109,2.1109,2.1109,2.1109,2.1109,2.1109,2.1109,2.1109,2.1109,2.1109,2.1109,2.1109,2.1109,2.1109,2.1109,2.1109,0.0,0.0,0.0,0.0,1.7021,0.0,0.0,0.0,1.8582,1.8489,0.0,1.7397,1.6343,0.0,0.0,0.0,0.0,0.0,1.5057,1.5531,1.5979,1.6246,1.6526,1.6807,1.7074,1.7094,1.7094,1.7094,1.6827,1.6653,1.6653,1.638,1.6219,1.6219,1.5965,1.5952,1.6219,1.6253,1.64,1.6653,1.6693,1.6707,1.6714,1.6981,1.7114,1.7161,1.7422,1.7555,1.7582,1.7582,1.7582,1.7582,1.7582,1.7582,1.7582,1.7582,1.7582,1.7622,1.7896,1.8016,1.8136,1.8651,1.9045,1.9319,1.9319,1.9339,1.9366,1.9366,1.9366,1.9366,1.9366,1.9366,1.9366,1.9366,1.9366,1.9366,1.9366,1.9366,1.9366,1.9366,1.9366,1.9366,1.9366,1.9366,1.9366,1.9366,1.9366,1.9459,1.972,2.0007,2.0294,2.0595,2.0882,2.1076,2.1109,2.1109,2.1109,2.1109,2.1109,2.1109,2.1109,2.1109,2.1109,2.1109,2.1109,2.1109,2.1109,2.1109,2.1109,2.1109,2.1109,2.1109,0.0,0.0,0.0,0.0,0.0,0.0,1.7871,0.0,1.8271,0.0,0.0,0.0,0.0,0.0,0.0,0.0,1.4881,0.0,1.4937,1.517,1.5565,1.6199,0.0,0.0,1.7121,1.7148,1.7215,1.7388,1.6967,1.678,1.6954,1.668,1.6526,1.6526,1.6406,1.6393,1.652,1.6693,1.684,1.6967,1.7134,1.7215,1.7215,1.7341,1.7402,1.7408,1.7528,1.7582,1.7582,1.7582,1.7582,1.7582,1.7582,1.7582,1.7582,1.7582,1.7695,1.7869,1.8003,1.827,1.8624,1.9045,1.9265,1.9366,1.9366,1.9366,1.9366,1.9366,1.9492,1.9619,1.9619,1.974,1.9867,1.9867,1.9867,1.9867,1.9867,1.9867,1.9867,1.9867,1.9867,1.9867,1.9867,1.9593,1.9366,1.9366,1.9512,1.9659,1.9786,2.0054,2.0347,2.0641,2.0782,2.0922,2.1096,2.1109,2.1109,2.1109,2.1109,2.1109,2.1109,2.1109,2.1109,2.1109,2.1109,2.1109,2.1109,2.1109,2.1109,2.1109,2.1109,2.1109,1.479,0.0,0.0,0.0,0.0,0.0,0.0,0.0,0.0,0.0,0.0,0.0,0.0,0.0,0.0,0.0,0.0,1.4623,0.0,1.4897,1.5137,0.0,0.0,0.0,0.0,1.6954,1.7061,1.7435,1.6994,1.6874,1.7248,1.6987,1.6827,1.6827,1.6747,1.6747,1.6827,1.7041,1.7188,1.7275,1.7482,1.7582,1.7582,1.7582,1.7582,1.7582,1.7582,1.7582,1.7582,1.7582,1.7629,1.7709,1.7709,1.7762,1.7822,1.7742,1.7903,1.8183,1.8257,1.8617,1.9085,1.9299,1.9366,1.9379,1.9459,1.9486,1.9499,1.9586,1.976,1.992,1.992,2.0074,2.0234,2.0234,2.0234,2.0234,2.0234,2.0234,2.0234,2.0234,2.0234,2.0234,2.0234,1.9887,1.9606,1.9606,1.978,1.9947,2.0027,2.0227,2.0468,2.0762,2.0795,2.0882,2.1089,2.1109,2.1109,2.1109,2.1109,2.1109,2.1109,2.1109,2.1109,2.1109,2.1109,2.1109,2.1109,2.1109,2.1109,2.1109,2.1109,2.1109,0.0,0.0,0.0,1.6633,0.0,0.0,0.0,0.0,1.8613,0.0,0.0,0.0,0.0,0.0,0.0,0.0,0.0,0.0,0.0,0.0,0.0,0.0,0.0,0.0,0.0,1.6466,1.654,0.0,1.6881,1.6961,1.7542,1.7295,1.7134,1.7134,1.6854,1.684,1.7134,1.7148,1.7288,1.7569,1.7582,1.7582,1.7582,1.7582,1.7582,1.7582,1.7582,1.7582,1.7582,1.7582,1.7762,1.8029,1.8029,1.821,1.843,1.8143,1.8223,1.8517,1.8798,1.9098,1.9359,1.9366,1.9366,1.9419,1.97,1.9786,1.9846,2.0127,2.0214,2.0221,2.0221,2.0227,2.0234,2.0234,2.0234,2.0234,2.0234,2.0234,2.0234,2.0234,2.0234,2.0234,2.0234,2.0221,2.0201,2.0201,2.0214,2.0321,2.0608,2.0661,2.0775,2.1069,2.1096,2.1096,2.1109,2.1109,2.1109,2.1109,2.1109,2.1109,2.1109,2.1109,2.1109,2.1109,2.1109,2.1109,2.1109,2.1109,2.1109,2.1109,2.1109,2.1109,0.0,0.0,1.7437,1.6988,0.0,0.0,0.0,0.0,0.0,0.0,0.0,0.0,0.0,0.0,0.0,0.0,0.0,0.0,0.0,0.0,0.0,0.0,0.0,0.0,0.0,0.0,1.672,1.7121,1.7054,0.0,1.7562,1.7488,1.7435,1.7435,1.7335,1.7335,1.7435,1.7435,1.7482,1.7582,1.7582,1.7582,1.7582,1.7582,1.7582,1.7582,1.7582,1.7702,1.7889,1.7889,1.807,1.8337,1.8337,1.8524,1.8744,1.845,1.8524,1.8818,1.9118,1.9285,1.9399,1.9593,1.9653,1.9706,2.0,2.0087,2.0107,2.0201,2.0374,2.0528,2.0528,2.0668,2.0815,2.0815,2.0815,2.0815,2.0815,2.0815,2.0815,2.0815,2.0815,2.0815,2.0815,2.0815,2.0681,2.0294,2.0401,2.0561,2.0661,2.0842,2.1002,2.1096,2.1109,2.1109,2.1109,2.1109,2.1109,2.1109,2.1109,2.1109,2.1109,2.1109,2.1109,2.1109,2.1109,2.1109,2.1109,2.1109,2.1109,2.1109,2.1109,2.1109,1.3484,1.5496,0.0,1.6405,1.7533,0.0,1.7491,0.0,0.0,0.0,0.0,0.0,0.0,0.0,0.0,0.0,0.0,0.0,0.0,1.4763,0.0,0.0,0.0,0.0,0.0,1.6192,1.6446,1.6954,1.6894,1.7054,0.0,1.7582,1.7582,1.7582,1.7582,1.7582,1.7582,1.7582,1.7582,1.7582,1.7582,1.7582,1.7582,1.7582,1.7582,1.7589,1.7702,1.7862,1.8056,1.8163,1.8377,1.8644,1.8644,1.8824,1.9045,1.8751,1.8831,1.9112,1.9299,1.9366,1.9412,1.9706,1.98,1.9873,2.0274,2.0394,2.0414,2.0514,2.0681,2.0828,2.0828,2.0969,2.1109,2.1109,2.1109,2.1109,2.1109,2.1109,2.1109,2.1109,2.1109,2.1109,2.1109,2.1109,2.0982,2.0601,2.0708,2.0828,2.0828,2.0995,2.1109,2.1109,2.1109,2.1109,2.1109,2.1109,2.1109,2.1109,2.1109,2.1109,2.1109,2.1109,2.1109,2.1109,2.1109,2.1109,2.1109,2.1109,2.1109,2.1109,2.1109,2.1109]}]]